GFSCGP_sfc_thetae_000.txt.gz
Theta_e
299 298 296 299 300 299 296 295 295 298 295 294 295 295 297 300 300 300 300 301 299 296 298 297 295 293 292 292 292 292 292 292 292 292 291 291 291 291 291 291 289 289 288 288
296 294 300 297 296 295 295 295 295 297 293 292 293 292 296 297 298 300 300 302 301 297 296 295 293 291 291 291 291 291 291 292 291 291 290 290 289 290 289 290 289 289 287 287
295 298 295 295 294 293 294 294 295 293 292 291 289 291 292 295 295 297 298 299 300 297 295 293 291 290 290 290 291 291 291 291 290 290 288 287 287 287 287 288 288 288 287 286
295 296 295 294 294 295 292 296 293 291 290 289 290 285 293 294 294 296 299 298 296 295 295 293 291 289 289 290 292 291 290 289 289 289 287 287 286 286 287 286 286 286 286 285
295 291 292 293 295 295 294 291 291 289 289 286 290 285 291 288 290 295 299 300 298 298 295 293 291 290 290 291 291 290 290 289 288 288 287 287 285 286 286 284 284 285 285 285
294 293 294 295 289 291 290 290 288 286 286 283 289 287 289 291 293 295 299 298 297 296 296 295 293 291 289 290 290 290 289 287 287 287 287 286 285 284 283 283 282 283 283 283
292 291 292 292 291 290 290 291 287 287 284 284 286 284 289 294 296 296 299 301 297 296 295 293 290 289 288 289 289 289 288 286 286 286 286 285 284 283 282 281 281 281 281 281
289 288 289 292 295 294 289 292 288 283 284 286 282 282 291 295 297 298 295 295 293 294 294 292 291 289 289 288 288 288 288 286 285 285 284 283 282 281 281 280 280 279 279 280
288 290 289 288 290 293 287 286 292 289 279 282 288 292 295 294 293 293 293 294 294 294 292 291 291 290 288 288 288 288 287 286 284 283 283 281 280 279 279 278 278 278 279 278
293 287 289 285 288 287 287 290 285 287 282 281 286 288 288 292 293 293 292 293 296 295 293 291 290 289 289 288 289 288 288 286 284 282 281 280 279 278 277 277 276 277 277 277
293 291 287 287 286 287 285 286 285 286 286 283 282 286 291 292 295 294 295 297 298 296 294 292 290 290 289 289 288 288 287 284 282 281 279 278 277 276 276 275 276 276 275 275
293 291 288 289 287 286 290 289 289 284 283 284 285 286 294 295 296 295 296 296 297 296 297 294 291 289 288 287 287 286 285 282 281 279 278 276 276 275 274 275 275 274 274 274
291 288 285 287 284 284 285 287 288 290 288 284 282 285 295 296 294 294 295 297 295 295 295 293 290 288 287 287 285 285 283 281 279 277 276 275 274 274 273 273 273 273 272 272
295 289 288 284 287 286 284 286 286 287 284 285 285 288 292 294 294 296 296 294 295 295 295 295 290 288 287 286 284 283 281 279 277 275 274 274 274 273 272 272 272 271 271 270
292 286 289 290 292 291 289 288 287 284 286 284 287 288 292 294 295 296 297 297 296 296 292 293 290 288 286 285 283 281 280 277 275 274 273 273 272 271 271 270 270 270 269 269
289 286 288 285 289 288 286 288 289 289 288 288 287 286 293 295 296 295 295 295 294 295 296 292 288 286 284 283 281 279 278 275 274 273 273 271 270 270 269 269 268 267 267 267
287 286 284 281 287 286 282 285 287 288 290 290 285 290 295 293 294 294 295 295 293 294 295 295 288 285 283 282 280 278 275 274 272 272 271 269 269 268 267 266 266 266 266 266
288 286 286 281 284 275 287 293 291 289 290 292 291 293 294 294 295 296 297 296 295 295 295 292 288 287 284 282 279 277 273 272 271 271 268 268 267 266 266 265 265 265 266 266
292 288 283 280 280 284 285 289 287 286 286 292 291 292 293 294 293 294 296 297 296 297 298 296 290 287 283 280 277 273 272 271 270 268 268 267 266 264 264 262 264 264 265 265
290 291 284 282 277 276 287 291 293 290 281 293 292 291 291 291 286 292 297 296 295 295 291 284 283 281 279 276 273 271 271 270 269 269 267 266 265 262 261 263 262 264 263 264
283 284 281 281 280 283 291 290 290 279 284 294 294 293 292 290 292 296 291 291 286 284 281 281 279 276 275 273 273 272 270 269 269 267 266 264 263 261 261 261 262 262 262 263
285 282 281 282 279 277 294 293 285 292 296 295 295 294 292 293 294 293 291 283 281 278 277 276 275 274 272 273 273 270 269 268 266 265 264 262 260 262 262 259 261 261 262 263
284 289 286 287 286 294 296 294 296 297 296 297 296 296 294 293 292 292 289 281 279 278 276 275 274 271 271 272 273 270 266 265 264 263 261 260 260 261 260 260 261 264 263 264
289 294 288 289 292 293 294 297 297 298 295 296 297 296 294 293 293 291 288 282 278 276 274 274 271 270 269 271 271 267 265 264 261 261 261 261 261 261 261 263 264 263 264 264
286 286 285 284 287 291 295 296 297 296 295 293 294 293 294 293 290 291 289 284 280 276 274 273 271 270 268 269 265 264 263 261 261 262 262 262 262 262 262 262 262 264 265 266
285 285 283 283 291 290 292 295 295 294 295 296 294 294 294 292 291 292 288 287 280 276 273 272 271 268 266 265 264 262 261 262 262 262 261 261 261 261 261 261 262 262 264 266

GFSCGP_sfc_thetae_003.txt.gz
Theta_e
303 299 296 300 302 301 299 297 296 299 302 298 297 297 300 303 303 303 303 304 304 305 308 304 304 303 301 299 297 296 295 295 295 294 292 292 291 293 292 292 291 291 290 290
298 294 301 302 300 299 298 295 295 300 302 295 296 296 300 301 302 302 302 303 304 305 305 302 302 301 299 296 296 296 295 294 294 294 294 293 293 292 292 292 291 291 290 289
296 299 299 298 298 295 296 294 296 296 300 297 295 293 297 300 301 301 301 302 303 303 303 301 299 298 298 295 295 295 295 294 294 293 292 290 290 289 289 290 290 290 289 289
298 300 298 296 295 297 293 299 298 296 294 290 295 286 295 298 299 299 299 302 304 302 301 301 298 297 296 295 296 295 294 294 293 292 290 289 288 288 290 291 290 289 289 288
296 296 294 294 296 299 295 295 295 295 293 293 292 289 293 294 294 296 299 302 305 303 301 299 298 296 296 295 295 295 294 293 292 291 290 290 290 290 290 288 287 288 288 288
295 296 296 297 293 295 294 293 292 291 291 285 291 291 291 294 295 297 300 302 304 302 300 299 299 297 295 295 294 294 292 292 291 290 290 289 289 288 287 286 286 286 287 286
295 294 296 295 293 293 293 292 287 287 286 285 294 290 293 298 298 299 299 301 303 301 300 299 297 295 295 294 293 293 292 290 291 289 289 289 289 288 287 286 285 285 284 284
291 289 293 294 295 296 291 293 289 284 284 287 288 286 292 300 301 301 301 301 301 300 300 299 298 296 294 293 292 292 291 290 289 289 288 288 288 287 286 285 284 283 283 283
290 290 291 294 294 297 292 287 295 290 289 285 289 293 299 301 298 298 298 298 299 298 299 298 298 296 295 293 291 291 291 290 289 288 288 287 286 285 284 283 283 282 282 281
295 288 294 288 290 291 291 293 288 289 283 281 286 289 290 295 296 297 297 298 300 300 299 299 298 296 295 293 291 291 291 289 289 287 287 285 284 284 283 282 280 280 280 280
295 292 290 288 287 290 287 287 288 288 289 284 282 287 295 296 297 297 299 300 301 301 300 299 297 296 295 293 291 291 290 289 288 286 286 284 283 282 281 279 279 279 279 278
294 291 287 290 295 293 293 291 291 285 284 287 286 287 297 297 298 298 298 300 302 303 302 302 299 296 294 292 291 290 289 289 288 286 284 282 281 279 278 277 278 278 276 276
293 288 284 286 288 287 287 290 291 292 289 285 283 286 297 298 298 299 297 299 300 299 300 301 300 296 294 292 291 290 289 288 287 284 282 280 278 277 277 277 276 276 275 274
296 290 287 284 288 291 288 288 289 289 284 285 286 288 293 295 296 298 299 300 300 300 299 300 299 297 295 292 291 289 288 288 285 282 279 278 277 276 276 276 275 274 273 272
292 285 288 290 292 292 290 290 289 286 287 284 287 288 292 295 296 298 299 299 298 298 298 299 297 298 294 291 290 288 287 285 282 279 278 276 276 276 275 273 273 272 271 271
292 284 286 284 288 288 286 288 290 289 289 289 289 287 295 296 297 296 297 297 296 297 297 297 296 295 292 289 288 285 285 283 279 277 276 276 275 273 273 272 271 270 269 269
287 285 284 280 287 285 281 286 288 289 291 291 286 291 296 296 296 297 297 298 297 297 296 294 295 293 291 289 286 285 283 281 277 276 276 274 273 271 271 270 269 268 268 269
288 285 285 282 285 275 286 293 292 290 291 293 293 294 295 296 298 297 299 298 297 297 295 295 294 294 290 289 285 284 281 277 276 275 273 272 271 270 269 268 267 267 268 267
293 288 284 280 280 285 287 291 290 288 288 294 293 294 295 296 295 294 298 298 297 297 297 298 298 295 290 286 284 280 277 275 274 273 272 270 270 268 267 266 266 267 267 267
291 290 285 283 279 277 287 292 296 294 283 294 294 293 293 293 287 292 298 295 295 295 295 294 290 287 285 283 281 276 274 274 273 272 270 270 269 267 266 266 266 267 266 266
284 284 281 281 280 284 292 293 293 282 286 295 294 294 293 291 293 296 294 294 294 292 287 286 285 283 283 280 277 274 273 272 273 272 269 268 267 265 265 265 266 264 264 266
286 283 281 282 279 278 295 293 287 293 297 297 297 296 295 295 296 295 296 295 290 287 282 283 280 279 278 277 276 274 273 274 271 269 267 265 264 264 263 262 263 263 264 264
284 288 283 287 287 294 297 296 298 299 297 297 296 297 298 297 295 294 294 293 288 287 282 280 279 277 275 276 276 274 273 270 268 267 265 263 262 264 262 261 263 264 264 266
283 287 284 283 289 290 293 295 296 298 294 295 296 296 298 296 295 293 290 290 286 283 280 278 276 274 273 274 275 274 269 269 267 264 263 262 262 262 262 264 264 265 265 265
280 282 281 280 282 288 290 292 292 292 291 291 293 294 295 295 294 294 293 292 288 283 280 278 275 274 273 274 274 269 268 267 266 264 263 263 263 263 263 265 264 266 266 267
280 279 277 276 284 284 285 286 287 286 286 287 288 289 292 294 293 294 292 293 292 288 280 277 276 274 273 273 269 268 267 267 266 264 264 264 263 264 264 263 262 265 267 267

GFSCGP_sfc_thetae_006.txt.gz
Theta_e
300 293 291 294 297 297 295 293 292 296 298 294 293 294 296 298 298 298 299 300 300 299 300 301 301 298 297 295 293 293 292 291 292 290 288 287 288 288 287 289 289 289 288 288
295 291 297 298 297 295 293 291 291 295 297 293 292 293 296 297 298 299 299 299 300 297 298 297 297 297 296 294 293 292 292 292 292 291 289 288 288 288 287 288 288 288 288 287
292 295 299 297 294 293 292 290 290 291 293 292 289 288 291 295 298 298 299 300 298 297 297 295 295 295 294 293 292 292 292 292 292 290 289 287 286 286 285 285 286 287 287 286
294 298 296 294 293 294 289 294 293 292 288 284 290 284 289 291 293 295 296 298 296 296 297 296 294 294 293 293 292 292 292 291 291 290 288 286 284 282 284 285 286 286 286 285
292 292 291 291 293 295 291 292 290 290 287 286 286 283 287 292 290 292 295 298 298 297 296 295 294 295 294 292 292 292 291 291 290 289 288 286 283 284 285 284 284 283 284 284
292 294 293 293 292 292 292 289 288 286 285 280 285 285 284 288 291 292 294 296 296 296 294 294 294 293 293 292 291 291 290 290 290 288 287 286 285 284 283 282 282 282 282 282
290 291 291 293 290 290 289 286 280 278 277 281 287 284 289 291 293 294 294 295 294 296 293 293 292 291 291 290 290 290 290 289 289 287 286 286 285 284 283 283 282 281 280 280
285 285 290 292 291 290 287 288 281 274 278 282 282 280 287 294 296 295 296 295 295 294 294 293 292 291 291 290 290 290 289 288 288 287 286 286 285 286 284 283 282 280 279 279
286 286 289 291 291 292 287 284 289 282 276 277 284 287 291 293 293 293 292 292 292 293 293 294 293 291 290 290 290 289 289 289 288 287 286 285 285 283 283 281 280 279 278 279
289 285 290 287 287 287 286 288 282 282 272 271 282 283 286 291 293 291 291 291 292 293 293 293 293 292 291 291 290 289 289 288 287 286 285 285 284 282 280 279 278 278 277 277
290 289 286 286 283 285 283 283 285 285 284 275 277 283 288 290 291 292 291 292 293 294 293 292 292 292 291 290 289 288 288 287 286 285 284 283 281 280 279 278 277 277 277 276
293 289 283 287 291 287 288 287 288 282 280 280 283 284 293 292 291 292 292 294 294 295 295 294 293 291 290 290 288 288 287 287 286 284 283 281 280 279 278 277 276 276 275 275
291 285 280 282 288 286 284 286 288 288 286 283 280 283 294 295 294 293 292 293 293 294 294 294 292 290 290 289 288 287 287 287 285 283 282 280 279 277 276 276 275 275 274 274
294 287 284 281 284 288 284 285 285 286 282 282 283 285 290 292 293 295 295 296 293 293 294 294 293 291 290 289 288 287 286 286 285 283 281 279 277 276 275 275 274 274 273 272
292 283 284 287 288 287 286 286 287 285 285 281 285 285 289 292 293 294 296 296 294 293 294 292 292 292 291 288 287 287 287 285 285 282 280 278 276 275 275 274 273 273 272 271
292 284 285 282 285 285 283 286 287 286 287 287 287 286 293 294 295 294 295 295 295 295 296 295 291 289 288 287 287 286 285 284 283 280 278 276 275 275 274 273 272 271 271 271
286 285 283 280 285 284 280 284 286 287 289 288 284 289 294 293 294 295 296 296 296 296 296 292 291 289 287 287 286 284 284 283 281 278 277 275 274 273 272 272 271 271 270 270
289 286 286 282 284 275 285 291 290 288 290 291 291 292 294 295 296 297 297 295 295 296 296 294 289 290 288 286 283 282 282 280 279 277 276 274 273 272 271 271 270 270 270 269
294 290 284 280 280 284 286 289 288 286 287 292 291 293 294 295 295 295 299 298 298 297 297 296 291 290 288 284 282 281 279 277 276 275 274 273 273 271 270 269 269 269 269 269
291 292 286 284 279 277 286 292 294 293 283 293 294 293 293 294 287 291 297 297 293 293 292 291 289 288 284 280 280 279 276 275 274 274 273 272 272 270 269 269 269 269 269 268
283 284 282 283 281 284 290 292 292 280 284 294 294 294 293 290 292 295 292 291 290 290 290 286 285 284 281 280 279 277 275 274 275 274 272 271 270 269 269 268 268 267 267 268
282 280 280 282 279 277 289 289 285 288 289 289 289 290 289 292 293 293 292 290 288 288 284 283 280 279 278 278 277 275 274 275 274 272 270 269 268 268 268 267 266 265 266 265
276 277 274 277 278 287 287 283 286 290 285 286 287 288 288 288 290 291 290 291 290 287 282 278 278 276 275 275 276 274 274 273 271 269 268 266 266 265 265 264 263 264 265 265
277 281 276 276 283 280 280 284 287 286 283 284 285 285 287 287 288 288 288 289 288 283 283 277 275 275 273 272 274 273 273 271 268 266 265 264 264 263 263 265 265 265 265 266
274 275 273 273 277 279 281 283 283 283 283 282 284 285 285 286 286 287 289 289 289 285 280 277 277 278 278 274 274 273 270 269 267 266 264 264 263 263 264 265 266 267 268 267
276 274 272 271 278 277 278 280 282 278 277 278 280 281 281 283 283 285 285 285 285 286 284 278 278 278 277 274 274 269 269 268 267 266 264 264 263 264 265 265 266 270 269 271

GFSCGP_sfc_thetae_012.txt.gz
Theta_e
293 288 286 291 291 290 286 285 285 288 292 290 290 291 294 298 294 292 294 297 298 296 300 299 297 297 297 296 295 294 293 293 293 292 290 290 290 289 287 287 288 287 287 286
289 286 292 292 291 291 289 288 287 291 293 289 290 290 294 294 296 298 297 296 297 298 300 295 294 294 295 295 294 293 293 292 293 293 293 291 290 286 289 288 288 287 287 286
290 291 295 292 290 289 288 287 288 288 289 288 286 287 288 292 295 297 296 297 298 299 300 297 293 292 293 293 292 292 293 292 293 293 290 285 285 284 284 285 285 286 286 285
289 293 292 290 289 291 287 291 290 287 284 283 285 282 285 289 291 293 294 297 297 298 299 297 292 291 291 293 292 292 292 292 292 291 289 288 289 287 288 287 285 284 285 285
288 288 288 288 291 291 290 289 288 286 283 282 281 281 285 288 287 291 294 295 296 298 294 293 292 294 293 291 291 291 291 292 291 290 290 289 288 289 284 283 284 284 284 284
288 289 290 290 290 290 289 287 285 283 282 279 283 283 283 284 288 290 294 295 296 298 296 293 292 291 289 288 290 290 289 290 289 289 289 288 288 284 283 284 284 283 283 283
284 286 288 290 286 287 287 285 278 275 274 278 284 280 288 289 290 291 293 294 295 296 291 291 291 290 288 287 288 289 289 289 288 288 288 288 288 285 285 284 285 283 283 282
281 282 286 289 289 286 286 286 281 273 278 282 281 279 285 291 293 293 293 294 292 291 292 292 290 291 290 289 288 289 288 288 288 288 288 288 287 286 286 284 285 284 284 283
282 283 287 288 288 289 283 282 288 281 273 273 282 285 289 288 290 291 291 290 290 290 291 291 289 289 288 287 288 288 288 289 288 288 288 287 287 286 286 284 284 284 283 282
288 284 290 285 286 285 286 287 281 280 275 274 280 279 285 287 290 289 289 289 289 290 289 290 290 289 288 288 288 288 289 289 288 287 287 287 286 285 285 281 282 282 281 281
289 287 288 285 283 285 283 283 283 283 282 280 278 282 288 287 287 288 288 290 290 289 291 291 291 291 289 288 287 288 288 288 287 286 287 286 285 284 284 282 282 280 280 280
291 288 283 286 287 286 286 286 287 282 281 280 282 283 294 294 294 293 294 291 291 291 292 292 291 292 290 289 288 288 288 287 288 287 286 285 284 283 283 282 281 280 280 279
293 287 283 283 287 289 283 287 287 286 286 282 280 282 295 295 295 295 292 294 296 292 292 292 292 291 292 291 289 288 288 288 288 287 285 284 283 282 283 282 281 280 279 278
296 289 287 282 286 288 285 285 285 285 281 282 283 285 289 292 293 295 296 296 296 294 292 292 295 294 293 291 290 289 288 288 287 285 284 284 283 283 283 282 280 280 279 277
294 286 287 288 290 290 289 289 289 287 287 282 285 285 290 292 294 295 297 296 295 292 293 294 292 294 294 292 290 290 290 288 287 285 284 284 283 283 282 280 279 279 278 277
290 284 286 285 287 286 285 288 288 289 288 288 288 287 294 296 297 295 296 297 296 295 296 296 293 291 290 292 292 288 289 287 285 285 284 284 282 281 280 279 278 277 276 275
283 283 282 279 284 283 279 285 286 287 290 289 284 289 290 289 291 293 293 288 288 289 290 289 290 292 290 291 289 287 287 286 283 284 284 282 281 279 278 278 276 275 275 274
280 281 281 277 280 272 283 291 291 288 290 290 286 283 283 282 284 288 287 286 286 288 288 289 289 290 290 291 290 287 282 281 283 284 282 280 279 278 276 276 275 275 274 274
284 282 277 275 274 279 284 285 282 282 282 280 280 280 280 280 281 286 285 285 286 288 288 288 288 289 289 288 286 285 281 281 281 281 281 280 279 278 275 275 275 275 274 273
280 280 276 273 270 270 274 277 280 281 278 280 279 279 278 279 272 276 283 285 286 288 288 287 288 289 288 287 282 279 278 277 278 279 279 278 278 278 276 276 275 275 274 273
265 267 269 272 271 274 276 278 280 272 271 281 279 279 278 276 278 282 283 284 286 287 287 288 288 286 287 283 280 280 277 276 276 275 274 275 276 277 276 276 274 273 273 272
268 268 268 266 262 267 279 277 271 275 281 281 280 279 278 279 280 280 282 283 282 282 283 285 285 285 286 285 280 280 278 275 274 274 274 273 274 274 274 273 272 272 271 270
266 271 270 270 269 277 279 278 280 283 277 277 277 277 277 276 277 278 278 278 278 279 280 282 282 283 285 286 280 280 283 273 272 273 274 273 273 272 272 271 270 270 270 270
272 275 270 270 274 275 277 279 280 279 277 278 277 275 275 275 274 275 275 275 275 276 278 278 279 280 281 284 285 283 283 276 275 274 273 272 272 270 271 271 271 271 270 270
272 273 271 271 275 276 276 277 277 277 278 276 275 274 274 273 272 273 272 272 273 273 273 274 274 273 274 278 283 286 285 277 275 274 272 272 272 270 270 271 271 271 272 272
275 273 271 269 276 275 276 278 277 274 273 273 272 272 272 272 271 271 270 271 271 270 271 270 270 270 272 273 274 277 282 277 276 273 272 271 271 269 270 269 269 275 274 275

GFSCGP_sfc_thetae_015.txt.gz
Theta_e
292 288 286 290 290 288 285 284 284 288 291 288 289 290 293 296 296 295 293 296 297 298 301 300 296 296 295 294 295 295 293 294 294 292 290 291 291 290 290 290 289 288 287 287
288 285 292 290 289 289 288 287 286 290 292 287 288 288 291 292 294 297 297 297 297 297 298 299 293 293 294 295 295 294 294 293 294 294 294 292 293 289 291 289 288 287 287 286
288 289 293 290 288 287 286 285 287 286 288 287 285 286 288 290 293 295 296 297 298 298 298 299 293 292 292 292 293 294 294 293 294 294 292 286 285 284 284 285 287 287 286 286
288 292 291 288 287 289 286 289 289 287 283 281 285 280 284 288 290 291 294 295 295 296 297 297 294 291 291 293 292 293 293 292 293 293 291 290 290 288 288 289 288 287 286 285
286 287 286 286 289 289 288 288 286 283 281 281 281 278 283 286 287 289 293 294 296 295 295 296 293 293 293 291 290 291 291 291 292 292 291 291 290 291 287 285 284 285 284 284
288 288 289 289 288 289 288 286 284 281 281 277 283 282 284 284 288 288 291 293 294 296 295 293 291 291 290 288 288 289 290 290 291 291 290 290 290 286 285 284 285 285 284 283
283 285 286 290 286 286 287 283 277 275 274 277 282 280 287 290 289 290 294 293 292 292 291 292 290 290 288 286 287 288 289 289 289 289 289 289 289 287 286 285 286 284 283 283
280 283 285 288 288 285 284 284 279 271 277 282 281 278 288 290 291 290 289 291 290 291 290 290 291 289 288 287 286 288 287 288 288 288 289 289 289 288 287 285 286 285 285 285
281 283 285 287 287 289 282 281 286 281 276 275 283 285 291 288 288 287 289 289 290 288 289 290 289 289 288 286 285 286 287 288 288 288 288 288 288 287 286 284 285 285 285 284
288 283 289 285 285 286 286 286 280 278 274 273 279 281 284 288 291 290 288 289 291 289 290 291 290 289 288 287 286 286 286 288 288 287 288 288 287 287 286 283 284 284 284 283
288 287 287 287 283 286 282 282 282 282 281 279 278 282 293 291 289 288 288 289 290 291 292 291 292 291 289 288 287 286 286 287 287 287 287 287 286 286 285 283 284 284 283 282
291 288 284 286 285 285 286 285 285 281 280 282 282 283 295 295 292 288 292 296 295 291 291 291 292 293 292 290 288 287 287 287 288 288 287 286 286 285 284 284 283 283 282 282
293 287 282 284 285 286 286 290 289 288 286 281 278 281 294 295 295 296 294 292 291 292 296 295 291 291 291 291 290 288 288 288 287 285 285 285 285 284 284 284 283 282 282 281
296 290 286 281 285 288 284 286 288 288 283 283 283 285 289 292 293 295 297 295 294 292 290 290 290 290 291 292 291 289 288 287 286 284 285 285 284 284 284 285 283 281 281 280
290 284 286 286 286 286 285 285 286 285 287 282 285 286 290 292 293 291 289 290 288 288 288 288 288 288 289 289 291 292 291 286 285 285 285 285 285 285 284 283 282 281 281 280
287 279 282 279 282 283 282 284 286 286 285 284 283 283 285 283 282 280 284 282 282 283 285 287 287 288 287 288 289 290 290 289 284 284 284 285 283 282 282 282 281 280 279 279
281 280 275 273 278 277 272 278 280 283 285 284 280 278 279 278 278 279 281 281 282 283 285 286 286 287 287 288 288 288 286 286 286 285 285 284 283 282 281 282 280 279 278 278
277 276 270 269 269 260 275 280 280 279 279 279 278 278 278 278 279 281 284 281 282 283 284 286 287 287 287 288 287 286 285 284 284 284 283 280 280 282 280 279 278 278 278 277
280 277 268 265 261 273 277 275 273 273 274 278 277 278 278 278 278 279 281 282 282 283 285 287 285 286 287 286 286 284 283 283 281 282 280 279 279 280 278 278 277 277 277 276
278 279 275 262 263 263 273 275 278 277 271 279 278 277 276 277 270 273 280 282 282 284 285 282 283 284 285 285 285 283 283 282 281 281 280 277 278 279 277 278 276 277 277 276
261 259 260 258 262 267 273 275 277 266 268 274 276 277 275 273 274 278 280 280 282 282 279 281 280 280 281 284 284 283 283 283 281 277 276 274 274 274 274 275 275 276 276 275
265 258 257 257 254 260 275 274 269 273 277 279 279 278 277 277 277 277 278 278 277 277 277 278 278 278 279 280 280 281 282 284 280 276 274 272 271 273 272 274 272 271 273 272
264 269 264 267 266 276 277 276 279 280 278 277 276 277 277 276 275 276 275 275 276 276 276 276 276 275 276 277 277 275 277 280 283 279 277 275 276 275 272 274 273 272 272 272
273 276 271 269 274 275 277 278 278 279 277 278 278 276 275 273 275 274 274 274 274 273 273 274 273 272 271 273 273 274 275 278 276 279 279 276 274 273 273 274 273 273 271 272
273 273 270 271 275 276 277 278 278 278 277 277 276 275 274 273 272 272 272 271 272 272 272 271 270 269 269 270 270 271 272 272 271 274 277 276 274 273 272 273 272 273 274 274
276 273 271 269 276 275 276 279 278 276 275 274 272 272 273 272 271 271 270 270 270 270 270 268 267 267 266 266 266 266 268 268 268 269 272 276 274 273 272 272 272 277 277 277

GFSCGP_sfc_thetae_018.txt.gz
Theta_e
290 287 285 290 288 288 284 283 282 286 290 286 288 289 291 294 294 295 296 296 297 297 300 301 296 294 294 294 294 294 293 295 295 294 292 291 292 291 291 291 291 290 289 288
287 284 291 289 288 287 286 285 285 288 291 286 287 287 290 292 293 295 296 297 297 297 298 298 294 292 292 293 294 294 294 293 294 295 294 292 294 291 292 291 289 289 288 287
287 288 291 289 286 286 284 283 285 285 286 286 284 285 286 290 291 295 296 296 295 295 296 298 294 292 291 291 292 294 294 293 294 294 293 285 286 285 285 286 287 287 287 286
287 290 289 286 285 287 285 288 287 286 282 279 284 279 284 289 289 289 291 293 293 294 295 294 294 291 291 292 292 293 293 292 293 293 292 291 291 290 290 291 290 288 287 286
286 286 285 285 287 288 286 287 285 282 280 279 279 278 282 285 286 289 291 291 292 292 292 293 292 292 293 291 290 290 291 291 292 293 293 292 292 292 288 289 288 287 286 286
286 287 288 288 288 289 287 285 283 281 280 276 281 281 281 284 286 287 291 292 292 292 292 292 290 291 290 288 288 288 289 289 291 291 291 291 292 287 287 286 287 286 285 284
282 284 286 287 284 285 287 282 277 274 273 276 280 279 285 288 289 290 292 291 292 290 290 289 290 289 289 286 286 286 287 287 288 289 290 290 290 286 288 286 287 285 284 284
280 284 285 287 287 285 284 285 279 273 273 281 280 279 288 290 291 290 288 289 289 288 288 289 290 289 288 287 285 286 286 286 287 287 288 288 288 288 288 286 287 286 286 286
283 283 285 286 286 288 282 282 286 281 281 276 283 285 291 291 286 287 287 288 289 289 289 290 291 290 289 287 285 286 286 286 287 287 287 287 287 287 287 284 285 286 286 286
288 285 290 289 285 285 285 287 282 281 275 274 279 280 284 288 291 292 289 287 289 290 292 293 291 291 289 288 287 285 286 286 287 286 287 288 288 288 287 283 284 284 285 284
289 287 286 286 283 284 281 281 282 282 282 278 277 281 292 291 288 287 287 289 289 291 293 290 290 291 290 289 287 286 285 285 285 285 286 286 287 286 285 284 284 285 284 283
289 288 284 286 288 286 285 287 286 282 280 280 282 282 294 294 294 292 291 290 288 288 288 289 289 289 289 289 290 290 288 286 285 286 285 284 285 283 283 284 284 284 284 283
293 287 282 283 285 286 286 288 289 288 286 281 278 279 292 293 293 283 287 287 287 286 287 288 288 288 288 288 289 290 291 289 289 286 284 284 284 283 284 285 284 283 284 283
295 288 285 281 284 287 285 286 285 284 279 281 282 284 289 290 286 283 282 282 283 283 284 286 286 287 288 288 288 288 288 289 288 287 285 284 284 284 285 285 283 282 283 282
289 283 286 286 283 283 282 281 282 281 282 278 280 281 285 280 278 280 283 282 282 282 283 284 286 286 287 287 287 287 288 286 285 285 285 285 285 284 284 283 283 281 282 282
285 277 280 277 280 280 278 280 280 279 279 279 281 281 278 280 280 279 281 281 280 281 283 284 286 287 286 284 285 286 286 286 285 284 284 285 285 283 282 283 282 281 281 281
279 278 272 272 277 272 266 273 276 278 279 278 276 276 276 275 277 278 279 282 279 280 282 283 285 285 283 284 285 284 284 285 284 284 284 284 283 283 282 282 281 281 280 281
277 276 272 269 263 255 273 277 277 277 277 277 276 274 276 277 278 279 281 278 279 280 281 282 285 282 282 283 283 284 284 284 283 283 282 282 282 281 281 278 279 279 280 280
279 275 262 261 257 269 274 273 271 270 271 275 273 277 278 278 277 276 279 280 280 280 281 283 281 280 281 280 281 282 281 281 283 283 282 282 281 280 280 277 277 279 279 279
277 277 271 259 265 257 271 274 277 275 265 273 273 274 274 275 266 272 278 279 280 280 282 280 278 279 278 279 280 277 277 278 279 280 281 281 280 278 278 278 277 277 279 279
259 257 266 266 262 263 272 274 276 262 266 269 274 275 275 272 273 276 279 277 277 278 276 277 276 276 276 278 277 275 276 275 277 277 277 281 281 278 278 277 276 276 277 276
265 259 256 254 256 257 273 274 269 273 276 275 276 278 277 277 277 278 277 276 277 275 275 276 274 274 276 275 274 274 273 275 275 274 276 275 277 280 278 276 276 273 275 275
264 268 262 265 265 275 276 275 279 278 275 276 277 279 277 276 276 277 275 275 276 275 275 275 273 273 274 274 273 271 272 272 272 271 272 272 274 277 278 276 275 273 273 272
273 275 271 271 274 275 277 279 278 278 278 279 278 278 276 275 276 275 274 275 274 274 273 273 272 271 271 271 271 270 270 270 268 267 268 269 270 273 277 275 276 274 273 273
273 273 270 271 275 276 277 278 278 279 279 278 277 276 275 273 273 273 272 272 272 272 272 271 270 270 269 269 268 267 267 267 265 265 265 266 268 270 274 276 275 274 276 275
276 273 271 270 276 275 276 279 279 277 276 275 273 272 273 272 271 271 270 270 270 269 270 269 268 268 267 266 265 265 264 263 262 262 264 265 266 267 270 274 274 278 279 279

GFSCGP_sfc_thetae_021.txt.gz
Theta_e
291 287 285 290 289 287 284 283 282 286 289 287 289 289 290 293 293 294 296 297 297 297 300 301 299 299 298 297 297 298 296 299 301 301 298 297 297 298 297 298 297 296 296 294
287 284 290 289 288 287 286 285 284 288 290 286 287 288 292 293 294 295 296 296 296 296 298 299 297 297 296 297 296 297 296 297 299 300 300 300 300 298 298 297 296 295 295 293
286 288 291 289 286 286 284 283 285 284 286 286 284 285 286 291 291 293 295 296 296 295 296 298 296 296 296 295 295 295 296 296 297 299 298 291 293 291 293 293 293 293 294 293
286 290 289 286 285 287 284 287 287 285 283 280 285 279 284 289 290 290 292 292 293 293 294 294 294 293 295 296 295 295 295 295 295 297 296 295 295 293 294 295 294 293 292 292
286 286 285 285 287 287 286 286 285 284 282 280 281 279 283 285 288 290 293 293 294 294 292 292 292 293 293 293 293 293 294 294 295 295 296 294 295 295 293 295 293 292 291 291
286 287 288 288 287 288 287 285 283 281 281 276 281 281 281 284 288 288 292 294 292 292 292 293 293 292 293 291 291 291 291 291 292 294 294 293 294 292 291 290 291 290 289 289
283 285 287 287 285 287 286 282 277 276 275 277 280 279 284 288 290 291 292 292 292 290 291 292 294 293 292 290 288 289 289 290 291 292 292 292 293 292 291 290 291 289 288 288
280 283 285 287 288 286 284 285 281 275 273 279 281 280 286 290 291 290 289 290 291 291 291 291 290 290 290 290 289 288 288 288 289 289 290 291 292 292 291 290 291 290 290 289
285 283 285 285 286 289 284 282 287 282 281 277 282 285 292 291 290 288 289 289 288 288 288 288 289 289 290 290 289 288 287 288 288 288 289 289 290 290 289 288 289 289 290 289
290 285 289 288 285 284 286 288 281 281 275 275 280 281 284 287 288 288 286 286 287 288 288 288 288 288 289 290 291 291 291 289 288 288 288 288 289 289 289 287 287 287 288 288
291 289 287 288 284 284 282 282 283 283 283 279 278 280 290 288 284 285 285 286 285 285 286 287 288 289 289 289 289 290 290 289 288 289 288 287 287 288 288 286 286 287 287 287
291 289 284 286 291 287 287 287 286 281 280 281 283 283 292 285 285 285 283 283 284 284 285 286 287 288 288 288 288 288 288 288 287 287 288 287 287 286 285 286 286 286 286 286
292 286 282 282 284 286 286 288 287 286 285 281 278 281 291 290 284 283 281 281 283 283 284 285 286 287 288 288 287 287 287 288 287 286 286 286 286 285 285 285 286 285 285 285
295 286 284 280 283 287 284 285 285 283 277 279 280 280 285 286 280 280 282 282 282 282 283 283 284 287 288 285 285 286 286 287 286 286 285 285 285 286 286 286 286 285 285 285
289 283 284 286 285 282 281 280 280 279 280 276 279 279 283 279 278 279 280 283 282 280 281 282 283 284 285 283 283 284 286 285 285 285 284 284 285 285 285 285 285 285 284 284
285 278 279 277 279 280 277 277 278 278 279 279 279 278 279 279 279 278 278 281 281 279 280 281 282 283 284 281 282 282 283 283 284 283 284 284 284 284 283 284 284 283 283 282
279 278 274 272 277 273 270 274 277 277 278 276 273 274 276 276 277 277 277 279 280 279 280 280 281 283 281 280 280 280 280 282 281 281 283 283 283 282 282 283 282 282 282 282
278 275 272 270 264 264 274 276 276 276 277 275 272 271 275 276 278 279 280 280 278 279 279 280 281 281 279 280 279 279 280 278 279 279 280 280 279 280 281 281 281 281 281 281
279 275 261 260 257 267 272 274 272 272 270 274 271 273 277 278 277 275 279 279 278 279 280 280 281 280 279 278 278 278 278 276 277 277 277 277 276 278 280 279 279 280 280 280
276 277 269 253 258 255 270 272 275 274 265 272 271 272 273 276 267 273 277 278 278 279 279 279 278 277 277 277 277 277 275 275 275 275 275 275 275 276 274 276 278 279 279 279
258 261 267 267 265 264 271 274 276 262 265 270 271 274 274 273 275 278 278 277 278 278 278 277 276 276 276 276 275 274 274 273 274 274 273 273 273 273 274 275 277 278 277 278
265 258 254 253 255 260 272 273 269 273 277 275 275 276 276 277 278 279 278 278 277 276 277 277 275 275 276 275 273 273 272 273 272 271 271 270 269 270 271 271 273 277 276 276
264 268 264 265 264 274 275 275 278 279 276 277 276 277 277 277 277 278 277 276 275 275 276 276 273 274 274 274 272 270 272 272 270 267 267 267 267 268 268 269 270 272 276 274
272 273 270 271 274 274 277 279 279 279 278 279 278 277 277 276 277 276 275 275 274 274 273 273 272 271 271 272 272 271 270 269 265 264 265 265 265 266 266 268 269 271 275 275
274 272 270 271 275 276 277 278 278 279 278 277 276 276 274 273 272 273 272 272 272 271 271 271 270 269 269 270 269 269 268 266 263 263 263 263 264 264 264 266 268 270 273 276
276 274 271 270 276 276 276 278 277 276 273 272 271 271 272 271 270 270 268 269 268 268 268 267 266 266 265 265 264 264 264 263 261 260 261 261 262 262 263 264 265 271 274 277

GFSCGP_sfc_thetae_024.txt.gz
Theta_e
299 296 293 296 297 297 295 292 292 295 298 294 294 295 297 299 299 299 301 302 304 304 307 307 307 307 308 308 307 307 307 307 310 311 311 313 312 311 312 312 311 309 307 304
294 292 298 298 295 293 293 292 292 295 297 293 294 293 296 298 299 301 301 302 303 304 305 305 305 305 305 305 306 305 305 305 307 309 310 311 310 310 310 310 309 308 306 304
294 297 296 294 294 292 293 291 291 292 294 294 292 292 294 299 300 300 301 302 302 302 301 302 302 303 303 302 303 302 303 304 304 306 307 307 305 306 305 306 305 305 304 303
294 296 293 292 291 293 290 296 293 291 289 286 291 285 294 297 297 298 301 300 301 301 301 301 299 299 299 299 300 301 301 301 302 303 304 304 302 301 302 303 303 303 302 302
293 292 291 290 292 294 291 292 291 290 289 287 289 285 294 293 295 298 299 298 298 298 298 297 297 297 297 297 297 299 300 300 299 301 302 302 301 303 303 302 302 301 300 300
293 294 293 294 292 293 292 292 291 289 288 284 290 288 290 293 294 296 299 295 296 296 296 295 296 296 296 297 297 296 297 297 298 299 300 300 300 300 300 299 299 299 299 298
295 294 293 293 291 291 291 289 285 285 284 285 287 287 290 296 295 295 293 293 294 295 294 294 294 294 294 295 296 295 295 294 295 296 297 298 298 299 299 299 298 298 297 296
289 288 290 292 293 291 288 290 285 280 282 286 291 287 293 297 297 294 294 294 294 293 294 293 293 294 293 294 294 295 293 293 293 294 294 295 296 297 298 298 298 298 297 297
289 289 293 290 292 294 291 286 292 286 286 282 288 292 297 295 295 293 293 293 291 292 292 292 293 293 293 293 293 293 293 292 292 292 293 293 294 294 295 296 297 297 297 297
292 286 295 295 291 291 291 292 284 286 278 278 284 286 288 292 292 292 291 290 289 290 290 291 291 292 292 292 292 292 292 291 291 291 292 292 292 292 293 294 294 294 295 295
294 290 289 293 290 289 286 286 287 286 285 279 278 283 293 292 290 290 289 288 287 288 288 289 291 292 292 291 291 291 290 290 289 289 290 291 291 291 291 291 292 292 293 294
295 291 285 289 296 295 293 290 291 284 282 284 283 283 292 290 289 287 285 285 286 286 286 287 288 290 290 288 288 288 289 288 288 289 289 289 289 290 290 290 291 291 290 291
294 288 282 285 289 290 287 290 289 288 285 282 280 283 292 287 286 285 283 284 285 285 285 285 286 287 290 287 286 287 287 287 287 287 287 287 287 287 287 288 289 290 290 289
295 288 284 280 285 289 285 287 288 286 281 282 282 283 288 290 288 283 282 284 284 282 282 283 284 285 288 286 284 285 285 285 285 285 286 286 286 286 286 286 287 287 288 288
290 283 285 286 287 287 285 284 283 282 282 278 281 281 285 287 281 281 281 282 284 281 281 282 282 284 285 285 283 283 283 284 284 283 284 284 285 285 285 285 285 286 286 286
286 280 283 278 283 283 280 282 282 281 281 280 280 280 287 282 281 281 281 281 282 281 281 282 283 283 284 285 283 282 282 283 283 282 282 283 284 282 281 284 284 283 284 285
280 280 278 275 280 278 273 277 280 281 282 281 277 280 280 278 279 280 280 281 281 281 281 282 282 283 283 285 284 282 282 283 282 280 281 281 281 280 279 282 282 282 282 283
279 278 278 273 273 267 279 282 281 279 280 279 278 278 279 279 280 282 283 282 281 282 282 282 283 283 284 285 283 283 282 281 281 280 280 280 279 278 278 280 278 279 281 282
281 278 274 269 270 274 275 278 277 276 277 280 278 278 278 280 281 280 283 283 283 284 283 284 284 284 284 282 282 281 280 280 280 278 279 279 278 276 276 276 277 277 279 280
277 279 274 264 266 264 274 277 279 278 271 279 278 278 278 279 273 277 282 283 283 284 284 284 283 283 281 282 281 279 278 278 278 278 278 278 277 275 274 275 275 276 277 277
271 271 270 271 268 272 278 278 279 269 272 280 280 279 278 276 279 282 283 283 284 284 283 283 282 280 280 280 279 277 277 276 278 278 277 276 275 274 273 273 274 273 274 275
271 270 268 266 265 265 278 276 273 278 281 281 280 280 279 280 281 281 282 282 283 282 281 280 279 279 279 279 277 276 275 276 277 276 274 273 272 272 272 270 271 271 272 272
269 274 271 270 272 279 279 279 282 283 281 281 281 282 281 280 280 281 280 280 280 279 278 278 277 276 276 276 275 273 274 275 273 271 270 269 270 269 269 268 269 269 270 271
276 278 273 274 277 278 280 282 282 283 282 283 283 281 280 278 278 277 276 276 275 275 274 274 272 271 271 272 271 270 270 270 268 266 267 267 266 267 267 268 268 268 269 270
277 276 274 274 277 278 280 281 282 282 283 280 277 277 276 275 274 273 272 272 271 271 270 270 268 267 267 267 266 266 265 264 263 263 263 263 264 264 264 265 266 267 268 269
278 276 274 272 278 278 279 282 282 279 279 275 273 273 273 271 270 270 269 269 268 267 267 265 265 264 263 262 262 262 262 261 260 260 260 261 261 261 262 262 263 267 269 270

GFSCGP_sfc_thetae_027.txt.gz
Theta_e
302 297 294 298 300 299 297 295 294 297 300 298 298 297 299 302 302 302 302 304 305 306 307 307 307 307 308 309 309 309 309 311 311 314 315 317 317 319 319 319 319 317 314 312
297 294 299 301 300 296 295 294 293 297 300 299 296 295 298 300 301 302 303 304 304 304 304 303 303 303 302 303 304 305 306 307 308 311 313 314 315 317 317 317 317 316 314 311
295 299 301 297 296 295 295 294 294 294 297 297 295 293 297 301 303 304 303 303 302 301 300 299 299 300 300 300 301 302 304 305 306 307 309 310 312 308 310 311 313 313 312 310
297 298 295 295 294 295 291 297 295 293 291 287 294 285 294 299 301 300 300 299 299 299 299 298 298 298 299 299 301 301 302 302 302 304 306 306 305 303 306 307 310 310 310 308
295 295 294 292 294 296 293 295 293 292 290 290 291 288 294 298 296 297 297 297 297 297 297 297 297 298 299 299 300 300 299 299 301 302 303 303 303 304 305 305 306 307 307 306
297 297 295 296 296 296 296 293 293 294 290 285 292 291 292 295 296 294 295 296 296 296 297 297 297 297 297 298 298 298 297 297 298 298 299 300 300 300 301 303 302 303 303 303
297 295 299 296 293 295 293 290 287 286 285 285 291 290 292 298 297 296 295 295 296 296 295 295 295 295 295 295 296 296 296 294 296 296 297 297 297 298 298 300 301 301 301 301
290 287 294 294 294 293 292 293 288 281 283 286 292 286 293 300 296 296 296 295 295 294 295 294 294 294 294 294 294 295 294 293 294 294 294 295 296 296 297 297 298 298 299 300
290 290 295 293 294 296 293 290 295 287 288 283 287 292 297 301 296 295 295 294 292 292 293 293 294 294 293 293 293 292 292 292 291 292 293 293 294 294 294 295 296 297 297 297
294 287 296 297 294 295 291 293 286 286 278 278 284 288 289 292 293 294 292 291 290 291 291 291 292 293 292 291 292 292 291 290 290 290 291 291 292 293 293 293 293 293 294 295
296 291 290 294 291 290 288 287 287 288 286 280 280 285 296 293 293 292 289 289 289 288 288 289 290 292 291 290 289 289 289 288 288 288 289 290 290 290 290 290 291 291 292 292
296 291 286 288 294 296 295 291 291 283 282 285 284 284 293 292 290 289 288 288 288 288 287 286 287 288 291 288 287 287 287 287 287 287 288 288 288 288 287 287 288 289 290 291
295 288 282 284 288 292 290 291 290 289 286 282 279 283 291 289 288 288 287 287 286 286 284 284 285 285 286 287 285 285 285 285 286 286 286 286 287 286 285 285 286 287 287 288
295 289 284 280 282 287 285 287 289 287 282 283 283 284 289 291 291 289 286 286 286 285 283 284 284 284 285 286 286 285 284 285 285 285 284 284 285 285 284 284 285 285 285 285
290 282 284 285 286 286 285 284 285 283 284 280 283 283 286 289 289 286 284 284 284 285 283 283 283 284 284 285 286 285 285 285 285 284 283 283 284 284 283 282 283 284 284 284
289 280 282 278 283 283 280 282 283 283 284 283 283 282 289 287 284 284 284 282 282 282 284 283 283 284 284 284 285 285 284 284 284 283 282 283 282 282 281 281 281 283 281 282
282 280 278 274 279 279 274 279 281 282 284 283 278 282 282 282 281 281 281 282 282 282 283 283 283 284 284 285 285 285 284 284 283 282 282 282 281 280 280 280 279 280 279 280
280 279 278 273 275 267 278 283 282 279 280 282 282 279 280 279 281 282 283 283 282 282 283 284 285 285 285 286 285 285 284 283 282 281 281 281 280 279 279 278 278 277 278 278
282 278 274 271 271 275 277 279 278 276 277 284 281 279 279 280 281 281 284 284 283 284 284 285 286 286 285 284 284 282 281 281 280 280 280 280 280 278 278 276 276 276 276 276
278 280 276 272 267 265 275 280 280 279 271 282 281 279 279 280 274 278 283 284 284 285 286 285 286 285 284 283 282 280 279 279 278 278 279 279 279 277 276 276 275 275 274 275
273 273 271 272 270 273 280 280 280 270 273 282 282 280 280 277 280 283 284 284 285 285 285 285 284 281 281 280 279 277 276 276 277 277 277 276 277 276 276 275 274 273 272 272
272 271 270 271 268 265 280 278 274 279 282 283 282 282 281 282 282 282 283 283 283 282 282 281 279 278 278 277 275 274 273 274 274 273 272 271 272 272 272 271 271 270 270 269
270 274 272 274 273 280 281 281 283 284 282 282 282 283 282 282 281 282 281 281 280 279 278 277 275 273 274 274 272 269 270 270 269 266 265 265 266 267 267 267 267 267 268 267
277 280 275 275 277 279 281 283 283 283 283 284 284 283 282 280 280 278 278 277 276 275 274 273 271 270 269 269 269 267 267 266 263 261 261 262 262 262 263 264 265 264 264 264
279 279 276 276 278 280 281 282 283 283 283 283 281 280 279 278 276 276 274 273 273 272 271 270 268 267 266 267 265 264 264 263 261 260 261 261 261 261 262 262 262 263 264 264
280 277 275 273 279 279 280 283 284 282 282 282 279 276 275 273 273 272 271 271 269 268 267 266 265 264 263 263 262 262 262 261 259 259 260 260 260 261 261 261 261 265 267 268

GFSCGP_sfc_thetae_030.txt.gz
Theta_e
299 293 290 294 296 296 293 290 290 293 297 294 294 294 295 298 299 299 299 298 297 298 299 299 299 299 299 300 300 301 301 303 306 307 308 310 310 312 313 313 313 313 311 309
294 290 297 298 297 294 293 290 289 293 296 294 292 292 296 297 298 298 297 296 296 296 296 297 297 297 297 297 298 299 300 301 302 304 306 307 308 309 311 312 311 311 309 307
292 296 300 297 294 293 292 290 290 289 292 293 290 287 291 296 297 297 297 296 295 294 294 295 295 295 295 295 295 297 298 299 300 301 303 303 303 301 301 305 306 308 308 306
295 298 295 292 292 293 288 294 292 290 286 282 289 279 288 294 294 294 294 293 293 293 294 294 294 294 294 294 295 295 296 296 299 299 300 299 299 297 298 300 303 305 306 305
292 292 291 291 293 294 291 292 290 289 285 284 285 282 287 293 289 290 292 292 292 293 293 292 292 293 294 294 293 293 294 295 295 296 296 296 296 297 297 298 297 298 300 301
293 294 293 293 295 293 293 289 289 288 285 279 286 285 286 288 289 289 292 292 293 292 292 293 293 293 292 292 291 292 292 292 293 294 293 293 292 292 293 294 294 295 296 297
293 293 293 294 290 291 289 285 280 279 277 279 288 285 287 294 292 292 291 291 291 291 291 291 291 291 291 290 290 291 290 289 290 291 291 291 291 291 291 291 292 292 293 294
287 284 291 292 291 289 288 289 281 274 277 279 286 280 288 293 293 293 292 291 291 290 290 290 290 290 289 290 290 290 289 288 288 289 289 290 290 291 291 291 291 291 292 292
286 286 290 291 291 291 290 286 292 285 281 280 282 287 292 292 291 291 290 289 288 288 289 289 290 289 288 288 289 289 288 287 287 288 289 288 288 288 288 289 289 289 290 292
292 285 294 293 291 291 290 292 284 285 273 268 279 280 284 289 290 290 288 286 287 287 287 287 288 288 287 286 286 287 287 285 285 286 287 287 287 287 287 287 286 287 288 289
294 290 287 290 288 288 286 285 285 286 282 275 275 279 290 289 291 288 287 287 286 286 285 285 286 288 287 285 285 285 286 285 284 285 286 285 285 285 285 284 285 285 286 286
294 290 282 286 292 292 290 288 288 283 279 281 282 282 291 288 288 288 287 287 286 286 284 284 285 286 287 285 283 284 284 284 284 285 285 285 284 284 282 282 283 283 284 284
293 285 274 277 284 288 287 288 289 288 285 280 278 279 292 288 287 288 287 286 286 286 283 283 283 284 284 285 284 283 283 284 284 283 282 282 282 282 281 280 281 282 282 282
294 286 278 275 279 284 280 283 285 282 279 278 279 281 285 288 287 287 285 285 284 283 282 282 281 283 283 283 283 283 283 283 283 282 282 281 281 281 281 280 280 280 281 280
288 276 280 282 283 282 281 280 282 280 281 276 279 280 284 287 282 281 281 281 282 283 282 281 280 280 282 282 282 283 283 282 281 280 280 279 280 280 279 279 279 279 280 280
287 273 277 270 279 280 278 280 280 280 280 280 280 279 285 282 281 280 282 281 279 280 281 282 281 281 281 282 282 283 283 281 280 278 279 280 280 280 279 279 278 278 278 278
279 274 267 265 276 274 267 275 278 279 280 280 276 279 278 277 279 278 279 280 280 281 281 280 281 281 281 281 282 281 282 280 279 280 279 279 279 278 279 279 278 277 276 276
278 273 271 265 266 259 274 279 278 276 278 277 275 272 274 276 278 278 280 279 279 280 280 280 281 281 281 281 281 280 280 279 279 278 277 277 278 278 279 278 278 277 276 275
281 277 270 263 262 270 274 276 274 272 271 276 274 275 277 278 277 276 280 280 279 280 281 281 281 282 281 279 279 278 278 278 277 277 277 277 276 275 276 276 276 276 276 275
276 277 272 261 259 256 271 276 278 277 267 274 273 273 275 276 268 272 280 280 281 281 281 281 280 280 278 278 277 276 275 275 274 275 275 274 274 273 272 273 274 275 274 274
264 264 266 268 265 267 275 276 278 265 269 274 275 276 276 274 275 279 280 279 280 280 279 278 277 277 276 276 274 273 272 271 272 271 270 270 269 268 268 268 269 269 269 270
267 263 262 261 258 261 276 275 271 276 280 279 279 278 278 279 279 279 279 278 278 277 276 276 274 274 274 273 271 269 268 270 269 267 266 264 263 263 264 263 263 264 265 265
265 271 265 269 268 277 278 278 280 280 277 279 279 279 279 278 278 278 277 277 276 274 275 273 270 270 270 270 268 266 267 267 265 262 261 261 261 261 262 261 261 261 261 261
274 276 272 272 275 276 279 280 281 281 280 280 280 279 279 278 278 277 276 276 274 273 272 270 267 267 266 266 267 263 265 264 261 259 260 260 260 260 260 261 261 260 260 260
275 275 273 273 276 278 279 280 280 281 281 280 280 279 278 277 276 276 274 272 272 271 270 268 266 266 264 265 263 261 263 261 259 259 260 259 260 259 260 261 260 261 262 263
278 276 273 272 278 277 278 280 280 279 279 279 278 276 275 275 274 273 270 270 269 267 266 265 264 263 262 261 261 260 259 259 258 259 259 259 259 259 260 259 260 265 267 268

GFSCGP_sfc_thetae_033.txt.gz
Theta_e
295 289 287 290 291 290 289 287 286 289 294 291 290 290 293 296 295 296 292 292 292 293 296 296 296 295 296 295 296 297 298 299 302 305 307 308 309 310 311 314 315 314 314 311
291 287 293 294 294 292 289 287 287 290 293 290 289 289 293 295 292 292 292 291 292 293 293 294 294 293 293 293 294 295 295 297 298 301 302 304 305 305 309 310 311 312 311 310
288 292 297 295 292 291 289 287 287 288 289 290 287 285 288 290 292 293 292 292 292 291 291 291 292 292 291 291 292 293 294 295 295 298 300 300 301 300 299 301 305 306 308 308
292 296 295 291 290 291 286 291 290 289 284 280 286 278 286 289 288 290 290 289 289 290 291 291 291 291 291 290 291 292 293 293 294 294 294 294 295 294 295 296 299 302 303 303
290 290 289 289 290 292 289 290 288 287 283 282 282 279 284 288 286 287 288 289 289 290 290 290 290 291 290 290 289 290 290 291 292 292 292 292 291 292 293 294 294 295 298 300
290 292 292 292 293 291 291 287 287 284 283 277 283 282 283 285 287 287 288 289 290 289 289 289 290 290 288 288 288 288 288 289 290 291 290 290 289 289 289 290 290 291 293 295
290 290 291 292 288 290 288 283 279 277 275 277 285 283 286 290 289 289 288 287 288 288 288 287 287 287 287 286 286 287 286 287 288 288 289 288 289 288 288 288 289 288 289 290
285 284 288 290 290 288 286 286 279 272 275 277 284 281 286 289 290 289 289 288 288 287 288 287 287 286 287 287 286 285 285 285 286 287 287 287 287 288 288 287 287 287 288 289
284 284 289 289 289 290 287 284 289 282 281 275 280 284 287 289 288 287 287 286 285 287 288 288 286 285 285 286 285 285 284 284 285 286 286 286 286 286 286 285 285 285 287 288
290 282 291 289 291 289 289 291 282 283 271 270 277 279 281 285 286 286 285 285 285 285 286 287 287 285 285 284 284 285 285 283 283 284 285 285 285 285 285 284 284 284 285 285
292 288 285 289 287 287 284 283 286 285 282 275 271 277 287 288 287 285 285 285 286 286 285 285 286 286 284 284 283 282 283 283 283 283 284 285 285 285 284 282 282 282 283 283
292 287 278 284 289 289 289 286 286 282 278 279 280 280 289 288 287 286 286 286 285 284 282 282 283 284 284 282 282 282 283 283 283 284 283 283 284 283 283 282 281 282 282 283
291 283 271 276 281 287 285 287 288 287 284 277 274 277 287 286 286 287 286 286 284 283 281 281 281 281 281 282 282 282 282 283 282 283 282 282 282 282 281 282 281 281 281 281
293 285 277 274 277 283 279 282 282 283 276 274 276 279 283 284 283 285 286 284 282 280 280 279 279 280 281 281 281 281 281 281 282 282 281 280 279 280 280 280 280 280 280 280
288 276 281 282 281 280 279 279 280 278 279 274 278 278 281 283 279 279 280 282 282 282 280 279 279 279 280 280 280 281 281 281 280 280 279 279 279 280 280 279 279 279 279 279
286 273 276 269 279 279 277 278 278 278 278 278 279 278 285 279 280 279 280 279 278 279 279 279 280 280 280 280 280 281 280 280 280 278 279 279 279 280 280 280 280 280 279 278
280 274 267 265 276 272 266 273 276 277 279 277 274 278 275 276 279 277 277 278 279 279 279 279 279 279 279 279 280 280 279 279 278 279 278 279 279 278 278 279 278 278 277 278
278 273 268 262 263 258 273 277 277 276 277 275 273 270 273 276 276 277 278 277 278 279 279 279 279 279 280 279 278 278 278 278 277 276 274 275 276 275 276 275 275 275 275 275
280 277 264 262 257 267 273 275 274 271 271 272 271 274 277 277 276 274 278 279 279 279 280 280 280 279 278 277 277 277 276 276 275 274 274 273 272 270 271 269 270 270 270 271
277 278 271 255 260 258 270 274 277 275 267 271 270 273 274 276 267 271 278 280 280 280 280 279 278 278 277 275 275 274 273 272 271 272 271 270 269 266 265 266 265 266 266 267
262 261 269 269 263 265 273 275 277 264 268 270 273 276 276 273 274 277 279 279 280 279 278 277 276 275 274 274 272 271 270 269 270 269 268 267 266 264 263 263 263 263 263 264
267 263 260 257 256 261 275 275 271 275 279 278 278 277 277 278 278 278 279 278 278 277 276 275 272 273 272 271 269 268 267 268 267 266 264 262 261 261 262 260 261 261 260 260
266 270 265 268 267 276 276 277 279 279 276 278 278 279 278 278 277 278 277 277 276 275 275 272 269 270 269 269 267 264 266 265 264 259 258 259 260 261 261 259 259 259 260 260
273 274 271 270 274 275 277 278 279 279 279 280 279 279 278 277 278 278 277 277 275 273 271 269 267 266 265 264 265 262 263 263 255 254 258 260 260 259 260 261 260 259 259 259
274 274 272 272 276 277 277 278 279 279 279 279 279 278 278 277 277 277 275 272 272 271 269 267 265 265 263 263 261 258 261 257 257 258 259 259 260 259 259 260 260 260 262 263
278 275 273 271 277 276 278 279 279 278 278 279 278 277 277 277 275 273 271 270 270 268 267 265 264 262 260 258 258 256 254 253 255 257 259 259 259 259 260 259 259 264 266 268

GFSCGP_sfc_thetae_036.txt.gz
Theta_e
293 288 286 288 290 288 287 285 285 288 292 289 289 289 293 293 293 290 289 290 291 291 293 293 292 292 292 292 293 294 294 295 299 301 304 307 307 309 310 315 317 317 316 312
290 287 292 292 292 290 288 286 286 289 291 289 288 289 289 290 289 289 289 289 290 289 290 291 290 290 290 290 291 292 293 293 295 297 298 300 300 300 305 306 310 311 313 312
288 291 294 293 291 290 288 287 286 288 288 288 285 284 286 289 290 290 290 290 289 288 288 289 289 288 288 288 289 291 291 292 292 294 295 296 296 296 296 297 299 303 306 307
290 294 293 290 290 290 286 290 289 287 284 280 284 277 284 286 286 287 287 286 287 287 288 288 288 287 287 287 287 289 290 291 292 292 292 291 290 290 291 292 293 295 297 298
291 289 289 288 290 290 288 289 287 285 283 280 281 278 282 286 284 285 285 287 287 287 287 287 287 288 287 287 286 286 288 289 289 290 290 289 288 289 289 290 290 291 292 292
290 291 291 291 290 290 290 287 286 283 281 276 281 281 281 284 285 285 286 287 287 287 286 287 287 287 285 285 285 285 286 287 288 287 287 287 287 287 287 287 287 288 289 290
288 289 290 291 288 288 287 284 279 276 275 276 283 280 283 286 287 287 286 286 286 286 285 285 285 285 284 284 283 285 284 284 286 286 286 285 285 285 285 285 285 285 286 286
285 283 288 290 289 287 285 284 277 269 273 276 283 280 284 286 288 288 287 286 286 286 286 285 284 284 284 284 283 283 283 283 284 284 284 284 284 284 284 284 284 284 284 285
284 284 287 288 288 290 286 283 287 281 280 278 280 281 286 286 285 285 285 285 284 285 286 285 284 283 284 284 284 284 282 283 283 284 284 284 284 282 282 282 283 283 284 285
288 280 289 288 291 288 288 290 281 281 268 272 276 278 279 283 283 284 283 283 284 285 286 286 285 285 285 284 285 284 284 283 282 282 283 284 283 284 283 283 282 282 283 284
290 286 284 288 286 286 284 284 284 284 281 271 269 276 285 286 286 284 283 284 283 284 284 285 284 283 282 283 283 284 283 283 283 283 283 283 283 282 282 282 282 282 282 282
291 286 278 284 288 288 286 285 285 281 277 278 278 279 288 288 287 286 285 285 284 284 282 281 282 281 280 280 280 280 281 281 282 281 281 281 281 280 280 280 280 280 281 281
291 281 271 276 281 285 284 285 285 284 282 274 276 277 286 286 285 285 285 285 284 282 280 281 280 281 281 280 279 280 280 280 281 281 280 280 279 279 279 279 279 280 280 279
293 283 278 275 277 281 279 282 283 281 274 275 278 279 282 284 283 284 285 285 282 280 280 279 279 279 279 280 280 279 280 280 280 280 279 278 278 279 279 279 279 278 279 278
287 277 280 281 282 281 280 281 280 279 279 275 278 278 281 282 280 281 281 282 281 279 278 278 278 278 279 279 279 279 280 280 279 278 278 278 278 279 278 278 278 278 278 278
285 274 277 270 279 280 278 279 278 279 279 278 279 278 284 281 278 278 278 281 281 280 279 279 279 279 279 279 279 279 278 279 278 277 278 278 278 278 278 278 277 277 277 276
281 276 271 269 275 273 268 273 276 277 277 276 273 277 275 277 279 278 277 277 278 278 278 278 279 279 279 279 279 278 277 278 277 277 276 276 276 274 275 274 273 273 272 272
279 275 270 264 265 260 274 275 276 276 277 276 273 270 273 276 276 277 277 278 278 279 279 279 279 278 279 278 278 278 277 276 276 273 271 272 272 270 271 270 270 269 269 269
280 276 265 264 261 267 274 275 274 272 271 273 272 272 276 276 275 274 278 278 278 279 279 279 279 278 277 276 276 275 274 274 273 272 272 270 269 266 268 265 266 266 266 266
277 278 272 257 258 259 270 273 275 275 267 270 269 271 273 275 267 273 277 279 279 279 279 279 278 277 276 274 274 273 272 270 270 270 269 268 267 262 263 264 263 264 263 264
263 264 271 269 262 263 273 274 276 264 269 269 272 275 274 273 276 277 278 278 279 280 279 277 276 275 273 273 271 270 269 268 269 267 267 266 265 263 262 262 262 261 261 262
267 265 262 263 261 260 274 274 271 275 277 277 277 278 277 278 278 278 278 278 278 277 277 276 273 272 272 271 269 267 266 268 266 265 264 262 260 260 262 259 260 260 259 259
267 270 265 268 267 276 276 278 280 279 276 278 278 279 278 278 277 278 278 278 278 276 275 272 270 270 269 269 267 264 265 265 264 257 256 256 258 260 260 258 259 259 259 259
273 274 270 269 273 275 277 280 279 279 279 279 280 279 278 277 278 278 277 277 276 274 271 269 267 267 267 267 266 263 263 263 254 251 255 258 258 259 259 260 260 259 258 258
274 273 271 271 276 276 276 277 279 278 279 279 279 278 278 277 277 278 277 275 274 271 269 268 266 266 266 265 264 261 261 256 254 255 258 258 258 258 259 260 260 260 262 262
278 275 272 271 277 277 277 279 279 278 279 278 278 277 277 277 277 276 273 272 270 268 266 265 265 263 263 262 261 260 257 253 252 255 258 258 259 259 260 259 259 264 266 268

GFSCGP_sfc_thetae_039.txt.gz
Theta_e
292 287 285 288 289 287 286 284 284 287 291 288 288 288 290 289 288 287 288 288 288 288 290 290 290 289 290 290 291 292 292 294 296 298 300 303 300 300 303 307 307 310 314 314
289 285 291 291 290 288 287 285 285 288 290 288 287 287 287 288 287 287 287 287 287 287 287 288 288 287 287 288 289 290 291 291 293 295 295 297 296 296 298 299 299 301 303 306
288 291 293 292 289 288 286 285 285 287 288 286 284 284 285 287 288 288 288 287 287 286 286 286 286 285 286 285 286 288 289 290 291 292 293 293 293 292 292 293 295 295 295 295
289 293 292 290 289 290 285 290 288 286 283 280 283 278 282 284 284 285 285 285 285 286 286 286 285 284 284 284 285 287 288 288 289 290 290 289 288 287 288 289 290 291 291 290
290 289 289 288 290 291 288 288 286 285 282 280 280 278 281 284 282 283 284 285 285 285 285 284 284 285 284 284 283 285 286 286 286 287 287 286 285 286 286 286 286 287 288 288
289 290 290 291 289 289 289 286 285 282 280 276 280 280 280 282 284 283 285 285 286 285 285 284 285 284 282 282 282 283 284 284 285 284 284 284 283 283 282 283 283 283 285 285
286 287 288 290 287 287 287 284 279 276 274 276 281 279 282 285 285 286 285 285 285 284 283 283 283 282 282 281 282 283 283 283 283 283 283 282 282 282 281 282 282 282 282 282
284 283 288 289 289 286 284 285 278 269 273 276 282 279 284 285 286 287 286 285 285 284 284 283 283 282 282 281 281 281 282 282 283 283 283 282 282 281 282 282 282 282 282 282
284 284 286 287 288 289 285 282 285 279 275 274 278 282 285 285 284 284 284 284 284 284 284 283 282 282 282 281 281 281 281 281 282 283 282 282 283 282 281 281 282 281 282 283
288 281 287 287 289 287 287 289 281 279 269 267 275 278 280 281 282 283 283 283 283 284 285 283 282 283 283 282 281 282 282 281 282 282 282 282 281 282 282 281 280 280 281 282
289 286 283 287 285 284 284 283 284 283 277 270 268 275 283 284 285 284 284 284 284 284 284 283 282 282 281 281 280 280 280 280 280 280 280 280 280 281 281 280 280 280 279 279
290 285 277 283 285 285 285 285 285 280 276 277 277 278 286 286 286 285 284 285 284 283 283 283 281 280 280 279 279 279 280 280 280 280 280 279 279 279 279 279 280 279 279 280
291 282 273 277 281 284 282 284 284 282 278 273 274 277 285 286 285 286 285 284 284 283 280 281 280 279 279 279 279 279 279 280 280 280 279 279 279 278 278 279 279 279 278 278
293 283 279 279 278 282 280 283 283 280 274 279 279 282 282 284 284 284 284 285 285 282 279 279 279 280 280 280 278 278 278 279 279 279 278 278 278 278 278 278 278 277 277 277
288 278 279 280 280 280 279 280 280 279 280 278 280 281 282 284 284 283 283 282 282 280 279 279 278 278 278 278 278 278 278 278 278 277 278 277 278 278 277 277 276 276 275 275
284 274 277 274 279 280 278 280 281 282 281 280 281 280 286 282 281 278 279 280 281 280 278 278 278 278 279 279 278 279 278 279 278 277 277 277 276 276 275 274 273 272 272 272
280 274 270 268 274 272 269 273 278 279 280 279 275 279 274 276 279 279 279 278 280 280 280 279 279 279 279 279 279 277 277 277 276 276 274 275 273 271 271 271 270 270 269 269
278 274 272 269 267 264 276 274 276 276 277 275 273 272 275 277 277 277 277 277 278 278 278 278 278 277 278 278 277 277 277 276 274 272 270 271 270 268 269 268 268 267 267 267
281 278 267 269 264 269 275 275 273 272 272 275 275 275 276 276 275 274 277 277 277 278 279 279 279 278 277 277 277 275 274 274 272 272 271 269 267 265 266 263 265 265 264 264
279 280 278 263 265 262 270 273 275 276 267 271 272 273 273 274 267 274 276 278 278 279 279 279 278 277 276 275 274 273 271 270 269 270 269 268 267 261 261 263 262 263 262 264
266 269 272 267 266 264 272 274 276 265 270 269 272 274 274 272 275 277 278 277 279 279 279 278 277 277 275 273 271 270 269 268 269 267 267 266 264 261 261 261 262 261 260 262
268 265 266 264 261 262 274 274 271 275 276 275 275 276 276 277 278 277 278 277 278 278 278 278 275 274 272 271 269 268 267 268 266 266 264 261 258 258 260 256 258 258 258 258
268 271 267 269 269 276 275 277 279 279 277 277 277 278 278 278 277 278 277 277 278 277 277 274 273 271 269 268 267 266 266 266 265 261 255 254 257 258 259 255 258 258 258 258
273 273 270 270 273 274 276 278 279 279 278 279 280 279 278 277 278 278 277 277 277 275 274 271 269 269 266 265 267 264 264 264 257 257 258 258 256 257 257 259 260 258 257 258
274 274 271 271 275 275 276 277 278 279 279 278 278 279 278 277 277 277 277 276 276 273 271 270 269 267 265 265 263 262 263 260 259 258 258 257 257 255 258 259 259 260 261 262
276 274 272 269 277 275 276 278 279 278 278 278 277 277 277 277 277 276 275 274 272 270 268 267 266 265 263 262 262 262 258 258 257 257 258 257 257 258 259 258 258 264 266 268

GFSCGP_sfc_thetae_042.txt.gz
Theta_e
291 286 285 287 288 286 286 284 283 285 289 287 287 287 287 287 287 286 285 285 285 286 288 288 287 287 288 288 289 290 291 292 295 296 297 297 295 297 298 298 298 299 301 305
287 284 289 289 289 287 285 283 284 287 289 288 286 286 285 286 286 286 285 285 285 285 285 286 286 286 285 286 287 288 289 290 292 293 293 293 293 292 293 294 294 294 294 295
286 290 292 290 287 286 285 284 284 286 286 285 283 283 284 285 286 286 286 286 285 284 284 284 283 283 283 284 284 286 287 288 289 291 292 291 291 290 289 289 289 289 289 290
288 291 291 287 287 288 284 289 288 286 283 280 283 278 282 283 283 284 284 283 283 283 284 283 282 282 282 282 283 285 285 286 287 288 288 286 285 284 284 285 285 286 286 285
290 289 288 287 289 290 288 288 286 284 281 280 279 278 281 282 281 282 283 284 283 283 283 282 282 282 282 282 281 282 284 284 284 284 284 284 282 283 282 282 283 283 284 284
290 290 290 290 288 289 289 286 284 281 280 276 280 280 279 281 283 282 283 284 284 283 283 282 283 282 281 281 281 281 282 282 282 283 282 282 281 281 281 281 281 281 282 282
286 287 288 290 287 287 286 285 279 276 274 276 279 277 281 285 285 285 284 284 284 283 282 282 281 280 280 280 281 282 281 281 281 281 281 281 280 280 280 280 280 280 281 281
284 283 288 290 288 286 284 285 279 271 272 275 280 278 283 284 285 286 286 285 284 283 283 282 281 280 279 280 280 280 281 280 281 281 280 280 280 280 280 280 280 280 280 281
283 285 287 287 288 288 283 282 284 279 273 274 278 281 283 283 282 283 284 283 282 283 282 282 282 281 279 279 279 279 280 280 281 280 280 280 280 279 279 279 279 279 280 282
289 282 286 286 288 288 286 288 282 279 269 267 275 277 278 281 282 282 282 282 283 283 283 282 281 281 281 280 280 280 280 279 280 280 280 280 279 279 279 279 278 278 279 279
288 286 283 286 284 284 284 283 283 282 277 270 267 274 282 284 283 283 283 284 283 284 283 282 281 281 281 280 279 279 279 279 279 279 279 279 279 279 279 278 278 278 278 278
290 285 279 283 285 285 285 285 285 279 276 276 276 278 285 285 285 285 285 285 284 283 283 282 281 280 279 279 279 279 278 278 279 279 279 279 278 278 278 278 278 278 277 278
291 284 273 278 282 283 283 284 285 282 278 274 273 276 285 285 284 285 284 284 283 283 282 282 280 279 279 279 278 278 278 279 279 279 278 278 278 278 277 277 278 277 277 276
294 285 280 279 280 283 281 283 283 282 274 277 280 282 281 283 284 283 284 284 283 283 281 281 280 279 278 278 278 277 278 279 279 279 278 278 277 277 277 277 276 276 275 274
290 284 281 281 280 279 280 282 282 280 283 279 283 281 282 285 285 284 284 283 283 283 280 279 280 279 279 279 278 278 277 278 278 277 277 277 277 277 276 275 274 273 273 272
285 279 278 274 279 279 278 280 280 282 280 278 279 280 284 282 282 282 282 281 281 281 281 279 280 280 279 279 278 279 277 278 278 277 277 277 276 275 274 273 272 271 271 270
282 277 275 274 274 275 276 276 280 280 280 281 278 283 276 277 280 280 280 279 280 281 282 279 279 279 279 278 279 278 277 277 277 277 275 274 272 271 271 270 269 268 268 268
278 276 276 269 270 270 277 274 276 280 280 279 275 275 277 277 277 278 279 279 279 280 281 280 278 277 278 278 278 277 277 276 275 272 270 270 269 268 269 268 267 266 266 266
281 278 270 271 269 273 276 273 273 273 274 277 276 277 277 276 275 274 278 278 278 278 279 279 279 277 277 277 277 276 275 274 272 271 270 269 267 265 266 263 264 265 264 264
280 280 281 267 269 267 272 273 275 277 269 273 275 274 274 275 268 272 277 278 278 278 278 279 278 278 277 276 275 274 272 271 269 271 269 268 266 261 261 263 262 263 261 263
273 274 275 270 272 271 274 275 276 268 270 269 274 275 274 273 274 277 277 277 278 278 278 278 277 277 277 274 273 272 270 269 269 267 267 266 265 261 262 260 261 259 259 261
270 271 270 271 269 268 275 274 272 276 276 276 275 276 276 277 277 277 277 278 277 277 277 278 275 275 273 273 272 270 268 268 266 265 265 263 261 262 262 255 257 255 256 256
269 272 269 273 272 275 277 277 279 279 276 276 276 277 277 277 276 277 277 277 277 276 278 274 274 272 269 269 269 268 267 266 264 261 259 260 261 261 260 256 258 257 255 255
272 273 271 271 273 275 277 278 278 278 278 279 279 278 277 276 277 277 277 277 276 275 275 272 270 270 268 266 267 265 265 265 257 257 260 261 260 260 260 261 260 257 256 257
274 274 270 271 274 275 276 277 279 279 279 278 278 278 278 277 276 277 276 275 276 275 272 271 271 271 268 266 264 261 262 260 258 258 260 261 260 258 259 259 259 260 260 261
275 273 271 269 277 277 277 278 279 277 277 278 277 276 276 277 277 276 275 276 274 272 269 268 267 266 264 263 261 259 257 257 256 259 260 260 259 258 259 258 258 263 267 269

GFSCGP_sfc_thetae_045.txt.gz
Theta_e
292 288 287 288 288 288 287 285 286 287 290 289 289 289 287 288 287 286 286 286 286 286 287 288 287 288 288 289 290 291 293 294 298 299 299 298 295 296 294 294 293 294 295 298
287 285 290 290 288 287 286 284 284 287 289 289 287 288 286 287 286 287 285 285 285 286 286 286 286 286 286 286 288 289 290 292 294 295 295 295 293 292 291 290 289 289 291 293
286 289 290 290 286 286 284 284 284 286 287 286 285 285 284 285 286 286 286 286 286 285 284 284 284 284 285 284 284 286 288 289 290 292 293 292 291 289 287 287 286 287 288 288
287 291 291 287 287 288 283 288 287 286 285 282 284 280 284 284 284 285 285 285 285 284 284 284 283 283 283 283 284 285 286 286 286 288 287 286 285 283 284 285 286 286 287 286
290 288 288 287 288 290 287 289 287 286 283 282 282 281 283 283 282 283 284 284 284 284 284 283 283 283 283 283 283 283 284 284 285 285 286 285 283 284 284 284 285 285 285 286
290 290 291 291 289 290 288 286 284 282 281 277 282 282 281 281 283 284 284 284 285 284 283 283 282 282 282 283 283 283 283 282 283 284 283 283 283 283 283 283 283 283 284 284
286 287 289 290 287 288 287 286 280 277 276 278 280 279 283 285 286 286 285 285 285 284 283 282 281 281 282 282 282 283 282 281 282 283 282 283 282 282 282 282 282 282 282 282
284 282 287 289 288 286 285 286 281 275 273 276 281 278 284 286 286 286 287 286 285 284 283 282 281 281 281 281 282 282 282 281 282 282 282 282 283 283 282 282 282 282 282 282
283 284 287 288 288 288 285 283 286 279 274 276 279 282 285 285 284 284 284 284 284 283 283 283 282 281 280 280 281 282 281 281 281 282 282 282 282 282 281 281 281 281 281 282
288 282 286 286 288 288 286 288 282 280 272 271 276 278 280 283 283 282 282 284 284 284 283 283 282 281 281 281 281 281 282 281 282 282 282 282 281 281 281 281 280 280 280 280
289 286 284 286 284 285 284 284 283 283 279 273 270 276 283 284 284 283 284 285 285 284 284 283 283 282 281 281 280 280 281 281 281 281 281 281 281 281 281 280 280 280 280 279
290 286 279 282 285 285 285 285 284 280 276 276 277 277 285 285 285 285 285 286 285 285 285 284 282 282 281 280 280 280 280 280 281 281 281 281 281 280 280 279 279 279 278 278
290 284 276 278 282 283 283 284 285 282 280 275 275 275 285 284 284 285 285 285 285 285 284 284 282 281 280 280 279 279 280 280 280 280 280 280 280 279 279 279 278 277 276 276
295 286 284 283 282 284 281 283 283 284 275 278 280 280 283 284 285 284 284 285 284 284 284 283 282 281 280 279 279 279 279 280 280 280 280 280 279 279 278 278 276 275 274 273
291 286 282 280 280 280 280 283 282 282 285 281 282 282 283 287 287 286 285 284 283 283 282 281 282 281 279 279 279 278 278 279 279 279 279 279 279 278 277 275 274 273 273 272
287 283 282 278 280 279 280 281 282 283 283 283 281 282 286 287 284 283 284 283 283 282 283 282 281 282 281 281 280 279 278 279 279 278 278 278 277 276 275 273 272 272 271 270
286 280 282 279 275 277 278 279 280 280 280 284 279 284 280 280 282 283 283 282 281 281 282 282 281 281 282 282 281 279 279 279 278 278 278 276 275 272 272 271 270 269 268 268
282 283 282 271 273 272 277 274 278 281 282 279 276 274 280 280 279 280 281 281 280 281 281 282 281 279 279 280 279 279 278 278 277 276 273 273 271 270 270 268 268 267 267 266
280 281 273 273 272 276 274 273 274 277 277 279 280 280 278 277 277 276 279 279 280 280 281 281 281 279 278 278 278 277 276 276 275 274 272 270 269 267 267 265 266 266 265 265
280 281 280 271 273 271 273 272 275 277 271 274 281 277 275 275 271 275 277 278 279 279 279 279 279 278 277 277 277 275 274 274 273 272 271 269 267 264 263 265 264 264 263 265
275 276 277 274 274 275 276 275 277 271 273 273 276 276 275 274 278 278 278 277 278 279 278 278 278 278 278 276 275 274 273 273 272 270 268 267 266 263 263 262 263 262 261 263
274 274 274 274 272 271 276 275 275 278 277 277 276 277 277 277 278 277 278 278 278 278 277 279 276 276 275 274 274 273 272 270 268 267 266 264 262 263 264 258 260 260 259 259
273 277 275 277 277 276 278 278 279 280 278 277 277 277 278 277 276 277 277 277 277 276 277 276 276 274 271 272 272 272 270 268 266 264 261 260 261 263 262 259 260 260 261 259
273 274 273 274 275 275 277 279 279 279 278 278 278 277 276 276 276 277 276 276 277 275 275 273 272 273 273 269 270 268 267 266 261 259 260 261 260 261 261 262 262 260 259 259
275 275 272 273 275 276 277 278 279 279 279 278 277 278 277 276 275 276 276 276 276 275 273 272 273 273 272 267 265 264 264 262 260 259 261 261 260 260 261 261 261 261 261 261
275 273 272 271 277 277 278 280 280 278 278 278 277 276 276 277 277 276 275 275 274 273 270 270 270 268 266 265 263 261 260 260 260 260 261 261 261 260 260 259 259 264 267 269

GFSCGP_sfc_thetae_048.txt.gz
Theta_e
299 297 294 298 299 298 296 294 294 294 295 296 297 297 298 294 294 294 293 293 292 292 292 294 294 296 298 299 299 300 302 304 309 309 307 303 300 298 297 296 298 299 301 302
295 293 300 297 296 295 294 293 294 294 294 294 296 295 298 293 293 294 293 292 292 292 292 292 294 295 295 296 298 300 301 302 303 304 302 300 297 294 294 294 293 294 295 296
295 297 297 294 292 292 293 292 293 293 293 294 293 293 293 290 291 291 292 293 293 293 292 292 292 292 293 293 294 295 296 298 300 300 298 296 295 294 292 291 291 291 292 292
294 296 293 292 292 293 291 294 293 291 291 289 291 289 292 290 289 289 290 291 292 291 291 290 290 290 291 291 292 293 293 294 295 296 296 296 293 289 289 289 290 290 291 290
294 292 293 292 293 294 294 294 293 292 291 290 289 288 293 289 288 289 290 291 292 292 291 289 289 288 289 290 291 291 291 291 292 292 292 291 289 289 289 290 289 289 290 290
296 296 296 296 293 295 293 292 290 290 290 284 290 289 291 288 290 290 291 291 291 290 289 288 288 288 288 289 289 289 289 288 289 290 290 289 289 289 289 289 288 288 288 288
294 292 294 294 292 292 292 291 286 284 283 283 285 285 292 292 291 291 290 290 291 290 288 287 286 286 286 286 287 288 288 287 288 289 289 289 289 289 288 288 288 287 287 286
290 288 291 294 296 292 290 293 288 281 281 284 284 283 290 291 291 291 293 292 291 289 288 287 287 286 286 286 287 287 286 286 287 287 287 288 288 288 288 287 287 286 286 285
289 290 292 292 293 295 289 287 292 283 280 284 287 288 292 289 288 289 290 290 289 289 288 287 287 286 286 286 286 286 286 286 286 287 287 287 288 287 286 286 286 286 285 284
293 289 289 290 294 293 291 294 286 287 281 280 282 283 288 286 288 287 287 288 289 289 288 288 287 286 286 286 286 287 287 286 286 287 287 287 287 287 286 286 285 285 284 283
293 291 288 289 288 290 288 288 288 290 287 283 281 284 291 291 291 288 289 290 290 289 289 288 288 287 286 286 286 286 286 286 286 287 287 286 286 286 286 285 284 284 283 282
296 291 286 287 290 290 293 291 290 287 281 283 282 286 290 291 292 292 291 291 292 291 290 290 289 288 286 285 285 285 286 286 287 287 287 286 286 285 285 284 283 282 281 281
294 289 285 285 287 288 287 289 291 290 288 284 284 287 290 289 290 292 291 291 291 291 290 290 289 288 287 286 285 285 285 286 286 286 286 285 285 285 284 283 282 281 280 279
297 292 289 287 290 291 286 288 289 289 287 287 286 288 287 289 290 290 291 292 291 290 290 290 289 289 288 287 285 285 285 286 286 286 285 285 285 285 284 282 280 279 278 277
294 288 291 293 288 290 289 288 288 287 290 287 290 288 290 292 291 292 293 292 291 290 290 290 290 290 288 287 286 285 285 285 285 285 285 285 285 284 282 280 278 277 276 276
291 288 290 287 286 285 284 289 289 289 290 290 290 289 295 294 293 292 291 290 290 290 291 290 290 290 288 287 286 285 285 284 285 284 284 284 283 281 280 278 276 275 274 274
288 288 284 283 286 281 280 285 287 289 291 291 286 291 290 288 290 291 292 290 290 290 290 289 289 288 288 287 287 285 284 285 284 284 283 282 281 279 278 276 274 273 273 272
287 287 286 277 278 275 285 282 289 288 288 289 286 287 290 290 290 291 292 291 289 289 288 288 288 288 287 288 287 286 285 284 283 283 282 281 279 277 275 274 273 272 272 271
283 285 276 276 277 282 277 278 283 285 286 288 288 286 284 282 284 283 285 288 289 287 288 288 289 287 285 285 285 284 283 283 282 282 281 279 277 274 273 272 271 271 271 270
282 283 284 276 277 277 282 279 280 284 280 285 288 283 281 281 282 286 284 285 285 285 285 286 286 285 284 284 283 282 281 281 280 281 280 277 275 272 271 271 270 271 270 269
278 279 279 277 278 279 283 279 280 278 283 281 286 284 281 282 286 285 284 283 284 284 284 283 284 283 283 282 281 281 281 280 281 279 276 274 272 270 270 269 269 268 268 267
279 278 278 276 277 276 279 277 279 283 279 281 282 282 281 282 281 282 282 282 282 282 282 283 282 281 282 281 280 280 279 280 276 275 273 271 269 270 268 266 267 266 266 265
277 281 280 281 282 279 281 281 283 283 283 281 282 282 283 281 280 281 281 281 281 282 281 281 281 281 279 279 280 279 280 275 273 271 269 268 267 267 267 266 266 267 266 266
276 277 278 280 278 278 280 280 282 282 283 282 283 282 281 281 281 280 280 280 281 281 280 279 278 278 279 278 277 279 274 273 269 269 268 267 266 267 266 267 267 267 267 267
278 277 275 275 276 278 279 281 282 282 281 280 280 280 281 281 280 280 280 280 280 280 278 278 278 279 279 277 275 273 272 269 269 268 267 268 268 266 268 267 268 267 267 267
277 276 275 276 279 281 281 282 282 281 281 281 281 279 279 280 280 280 279 280 279 279 278 276 277 277 278 274 272 269 268 268 268 268 267 268 268 268 267 266 266 268 269 270

GFSCGP_sfc_thetae_051.txt.gz
Theta_e
304 299 296 300 301 301 300 298 297 300 300 297 299 299 302 299 299 299 299 298 297 297 297 298 300 303 301 302 302 304 306 305 307 307 305 304 301 300 298 299 300 300 302 303
297 294 301 303 301 300 298 296 296 300 298 296 298 298 302 300 299 300 299 297 297 295 296 297 299 301 301 302 303 304 306 308 309 307 304 301 298 297 296 295 295 295 296 296
297 299 301 298 297 295 296 295 296 296 296 297 296 295 298 302 299 298 298 298 297 296 295 295 297 298 300 300 301 302 303 304 303 302 299 298 298 296 294 293 292 293 294 294
298 302 297 296 295 296 293 299 297 295 293 291 297 289 298 300 294 294 294 295 295 296 296 295 295 296 296 296 298 299 299 300 301 303 301 300 295 291 291 291 292 292 293 292
296 294 294 294 295 297 295 298 296 295 293 293 294 289 295 296 291 291 293 294 295 295 294 293 293 293 293 295 295 296 296 296 297 297 296 294 292 292 291 291 291 291 291 292
297 299 298 298 297 297 298 295 293 293 293 287 292 291 293 291 292 293 293 294 294 294 293 292 292 291 291 292 293 293 292 292 293 293 294 293 291 291 291 291 290 290 290 289
295 296 298 298 294 295 296 293 288 286 284 284 292 292 294 297 295 295 293 293 294 293 292 290 289 289 290 290 290 290 290 289 291 292 292 292 292 292 290 290 290 289 288 287
292 290 296 297 298 296 292 294 289 283 285 288 286 285 292 295 296 295 295 294 294 292 291 290 290 290 289 289 289 289 289 288 289 289 290 290 291 290 290 289 289 287 287 286
293 294 298 298 300 300 293 290 297 288 283 283 288 291 295 292 291 293 293 293 292 291 291 290 290 289 289 288 288 288 288 288 288 289 289 289 289 289 288 288 288 287 286 285
297 292 293 293 295 295 295 297 287 288 282 281 287 289 290 288 289 290 292 291 292 291 290 290 289 289 289 288 288 288 288 288 288 289 289 288 288 288 288 287 286 286 285 285
298 294 289 291 289 291 290 289 291 292 290 286 284 287 295 295 293 290 291 292 292 291 291 290 290 289 289 288 288 287 288 287 287 288 288 288 288 287 287 287 286 285 284 284
298 294 291 291 295 296 296 292 292 287 285 288 287 289 292 296 296 294 292 292 293 293 292 291 290 289 288 287 287 287 287 287 288 288 288 288 287 287 286 286 285 285 283 283
296 290 286 288 290 290 288 291 293 293 291 286 285 288 292 293 294 295 294 294 294 293 292 291 291 289 287 287 287 287 287 287 288 288 288 287 286 286 286 285 284 283 282 281
299 291 289 288 292 292 286 289 290 290 286 287 288 291 289 291 292 294 295 295 294 293 292 291 291 290 289 287 287 287 287 288 288 288 287 287 286 286 286 285 283 282 281 280
296 287 290 292 294 293 291 289 289 287 290 287 291 291 295 293 293 294 295 295 294 292 292 292 291 291 291 288 287 287 287 287 288 287 286 286 287 286 286 284 282 280 279 278
293 287 290 287 292 292 289 291 291 290 290 291 292 293 300 296 296 295 294 294 293 292 292 292 292 291 290 289 288 287 287 286 287 286 286 286 286 285 283 282 280 278 277 276
288 287 285 284 289 289 279 285 290 292 292 293 288 294 292 293 293 294 294 294 293 293 293 292 292 292 291 290 289 288 287 287 285 285 285 285 284 282 281 280 278 277 276 275
287 286 286 285 284 277 289 293 293 292 293 294 294 291 293 292 292 293 298 295 293 293 293 293 293 293 292 292 290 289 287 285 284 284 284 283 282 280 280 278 276 276 275 274
288 286 283 281 282 286 288 282 287 289 289 294 292 289 285 286 288 289 294 295 295 294 294 293 293 293 291 290 289 287 284 283 283 282 283 282 281 279 278 275 275 275 274 273
282 285 285 281 280 279 286 284 287 289 283 291 291 288 284 286 285 292 287 289 290 290 289 289 289 287 286 286 285 284 282 282 282 282 283 282 280 277 275 275 274 275 274 273
279 280 280 283 281 284 286 281 283 281 285 284 290 286 284 287 289 287 287 286 287 287 286 286 286 284 285 283 283 282 282 281 283 282 281 279 277 275 275 274 274 272 271 271
282 281 280 282 279 278 282 279 284 284 283 284 287 285 284 284 283 285 285 284 284 283 283 284 283 282 282 282 282 281 281 282 280 279 277 275 273 274 273 270 271 270 269 268
280 286 284 284 283 280 282 281 284 285 287 283 285 285 285 283 282 282 282 282 282 282 282 282 283 281 281 281 282 281 281 278 276 275 273 271 271 272 271 269 269 268 269 269
279 280 280 282 279 280 282 286 284 283 283 283 284 284 283 282 281 281 281 281 281 281 281 280 280 280 280 279 279 280 278 276 273 272 271 270 269 269 269 270 270 270 270 270
279 281 279 275 278 280 282 284 285 284 283 282 282 282 283 283 281 281 281 281 281 281 280 280 279 279 280 279 278 277 275 273 273 272 271 271 270 269 269 269 270 270 271 271
279 278 277 277 280 283 283 285 285 283 281 282 281 280 281 282 281 281 281 281 281 280 279 278 278 278 278 278 277 274 273 272 272 272 271 271 271 270 270 270 269 272 272 272

GFSCGP_sfc_thetae_054.txt.gz
Theta_e
300 294 292 295 297 298 296 294 292 295 296 294 294 294 296 296 295 295 295 294 294 294 294 296 299 300 301 302 303 305 304 305 305 303 301 298 295 294 293 294 294 295 296 298
295 291 298 300 299 297 295 293 292 296 296 293 293 293 297 296 295 296 295 294 293 292 292 295 297 300 300 301 303 304 306 306 305 302 299 296 292 291 291 291 291 292 292 292
294 297 300 298 295 294 294 292 292 292 293 293 290 289 293 297 296 297 297 296 294 292 292 293 295 298 299 300 301 302 302 300 298 296 295 293 292 290 289 288 288 289 290 290
295 300 296 295 294 295 290 296 295 293 289 284 291 283 292 295 293 293 294 292 291 292 293 293 293 295 296 296 298 299 298 297 296 295 293 292 289 286 286 287 288 288 289 288
293 293 293 293 294 296 292 295 292 291 288 287 287 285 289 294 290 292 293 292 291 292 292 291 291 292 291 292 291 292 293 293 293 292 291 289 287 287 288 287 287 287 287 287
295 296 295 295 295 296 296 292 290 289 288 281 288 288 288 292 292 293 293 292 292 291 290 289 289 290 289 289 289 289 289 289 290 290 289 288 287 287 287 287 285 285 285 285
292 293 295 296 291 294 294 289 283 280 279 280 287 286 291 292 291 293 292 291 291 291 289 287 287 287 287 287 287 288 287 288 289 289 288 288 288 287 286 286 285 284 283 282
287 286 293 295 294 291 289 290 283 276 279 281 282 281 288 290 291 293 294 293 292 290 289 287 286 286 286 286 286 286 286 286 286 286 287 287 287 286 285 285 284 283 282 282
290 290 295 295 296 297 289 286 294 285 277 277 284 287 291 290 289 290 291 291 290 289 288 286 286 286 286 285 284 285 285 285 286 286 286 286 285 285 284 283 283 282 282 283
295 288 292 290 293 293 291 294 284 285 277 276 282 284 286 285 287 289 290 290 291 289 288 287 287 286 285 285 285 285 285 285 285 286 285 285 284 284 283 283 282 281 281 281
295 292 285 289 287 288 287 286 288 289 285 280 277 284 292 293 291 288 291 291 291 289 289 288 288 286 286 285 284 284 284 284 284 285 285 284 284 284 283 282 281 281 281 280
296 293 283 285 291 292 292 290 290 286 282 285 284 286 290 291 293 291 291 291 292 290 289 288 287 286 285 284 284 284 284 284 284 285 284 284 284 283 282 281 281 280 279 279
296 289 283 285 286 289 287 290 292 292 287 285 281 285 289 290 291 291 291 291 291 290 288 288 287 285 285 284 284 284 284 284 285 285 284 283 282 282 281 280 280 279 278 277
299 290 287 286 288 288 283 286 289 289 285 284 286 289 286 287 288 290 290 291 291 290 289 288 286 286 285 285 284 284 284 284 284 284 283 282 281 281 281 280 279 279 278 277
296 287 290 290 292 290 286 285 288 286 288 285 288 289 293 290 289 291 293 291 290 290 289 288 287 286 285 284 284 284 284 284 284 284 282 282 281 282 281 280 278 278 277 276
294 287 289 287 289 290 288 289 287 288 289 290 290 290 295 297 293 291 292 292 290 290 290 289 289 288 285 285 284 284 284 283 284 283 282 282 282 281 281 279 277 277 276 275
289 286 285 283 286 287 284 288 290 291 290 290 286 291 294 291 290 290 291 292 291 291 291 290 289 289 287 286 285 284 283 283 283 282 282 282 282 280 279 278 276 275 274 274
285 285 286 284 285 278 287 291 293 292 293 294 292 292 288 291 293 292 294 292 291 292 292 291 291 290 288 287 285 284 282 282 282 282 282 281 280 279 278 276 275 274 273 272
289 285 284 282 282 283 286 281 285 286 288 293 293 294 286 287 289 289 291 293 293 292 292 292 291 290 288 287 286 284 282 282 282 282 282 280 279 278 277 275 274 273 272 271
283 286 285 281 279 277 277 279 284 288 282 284 291 289 284 288 287 288 288 289 290 291 290 289 288 287 287 285 285 284 282 281 281 281 281 280 279 278 276 274 272 271 270 271
278 279 281 283 282 283 280 278 282 279 280 277 283 283 285 288 288 286 287 287 288 287 286 286 286 286 285 284 283 282 280 280 281 279 279 279 279 277 275 273 271 270 270 271
279 279 278 281 280 278 279 279 281 281 280 281 282 281 283 281 283 284 285 284 283 283 283 282 282 282 281 282 282 281 280 281 279 279 278 276 274 275 273 272 269 269 267 266
280 284 282 283 282 279 280 279 281 283 284 281 283 284 284 280 279 281 281 280 280 281 281 280 281 280 279 280 281 280 280 279 277 276 275 272 271 272 271 269 268 266 265 265
279 281 281 281 280 281 281 286 284 281 281 281 281 282 281 278 279 279 278 279 279 279 279 278 279 278 277 277 278 275 276 275 275 272 270 270 270 268 268 269 268 267 265 265
279 281 278 276 278 280 281 282 285 282 281 280 280 281 280 279 278 279 278 278 279 278 277 276 277 277 276 275 273 272 273 273 273 271 269 268 268 268 266 267 267 267 266 268
278 279 279 277 280 281 282 284 286 282 281 280 280 279 279 280 279 279 278 279 278 277 276 275 275 274 272 273 272 272 272 272 271 269 268 268 267 266 266 265 263 273 273 274

GFSCGP_sfc_thetae_057.txt.gz
Theta_e
296 290 288 291 292 293 291 289 288 291 294 292 291 291 293 294 292 291 291 292 292 292 292 295 297 297 298 300 303 304 303 303 303 301 298 296 293 293 292 292 292 293 294 294
292 289 295 297 296 294 292 290 289 292 294 292 291 291 293 293 294 294 294 293 292 290 291 294 295 296 298 299 303 304 305 304 304 301 297 294 291 290 289 290 290 290 290 291
291 295 299 296 294 292 291 290 289 290 291 290 288 288 290 294 295 294 295 295 293 291 290 292 294 295 297 300 303 304 305 300 297 295 293 291 290 288 287 287 287 288 289 289
293 297 295 293 292 293 289 293 293 292 288 283 288 283 288 291 292 292 294 293 291 290 291 293 294 294 297 299 300 300 299 296 295 295 292 290 288 285 284 285 286 287 287 287
292 292 292 292 293 295 290 292 291 290 286 284 284 282 286 292 292 291 293 290 290 290 291 292 293 295 296 296 296 296 297 296 295 294 290 288 286 286 286 285 285 285 285 285
292 294 294 294 293 295 294 292 290 287 286 280 285 285 286 289 293 294 294 290 289 290 291 291 291 290 293 292 292 292 292 289 289 289 288 287 286 285 285 284 283 283 283 283
290 290 293 294 291 293 293 289 282 279 278 280 285 284 290 292 292 294 293 291 289 290 290 289 288 288 289 289 287 287 288 287 288 288 288 287 287 286 285 284 283 282 282 281
286 283 291 293 292 290 289 288 281 275 277 279 283 280 287 292 291 292 293 292 290 289 289 288 287 287 287 287 286 285 286 286 286 287 287 287 287 286 285 284 283 282 282 281
286 286 292 292 294 295 287 286 292 286 274 275 283 286 291 289 289 289 290 290 288 288 287 286 286 286 286 285 285 286 285 285 286 286 287 286 286 285 284 283 282 282 281 282
293 286 289 289 293 291 290 292 284 283 273 274 280 282 286 286 289 288 287 288 288 288 287 286 285 286 285 285 284 285 286 285 286 286 286 285 284 283 283 282 281 280 281 281
293 292 284 287 287 288 287 286 287 288 283 277 275 284 289 292 292 289 288 290 289 288 286 286 286 285 285 284 284 284 284 284 284 285 284 284 283 283 282 281 280 280 280 279
295 292 280 284 289 289 289 289 288 285 281 281 281 286 289 289 291 291 290 290 290 289 287 286 286 285 284 284 284 283 284 284 284 284 284 283 283 282 281 280 279 279 279 279
295 289 280 282 285 287 286 289 292 291 284 283 283 285 288 289 288 288 288 289 290 289 287 286 286 285 285 284 283 283 284 284 284 284 283 282 282 281 280 279 279 278 278 277
298 290 287 285 286 287 283 286 288 289 284 284 287 290 290 286 288 288 288 288 289 288 287 287 286 285 285 284 283 283 284 284 284 284 283 282 281 281 280 279 278 278 277 276
296 287 290 290 290 289 284 284 288 286 289 286 289 289 293 294 289 290 290 288 288 288 287 287 286 286 284 284 284 284 284 284 284 283 282 282 281 281 280 279 278 278 277 276
294 287 288 287 288 288 287 290 286 287 289 290 290 289 294 295 295 290 290 289 289 289 288 288 287 286 284 284 284 284 284 284 284 283 282 282 282 281 281 280 278 277 276 275
289 286 285 284 286 287 283 288 289 292 291 289 286 291 291 292 293 290 290 291 290 290 290 289 288 287 286 285 285 284 284 284 283 283 283 282 282 281 280 279 278 276 275 274
287 285 286 285 285 278 287 287 292 291 293 294 292 294 294 293 295 296 294 292 291 291 291 290 289 288 286 286 285 285 284 283 283 283 282 282 281 281 280 278 277 276 275 274
290 287 285 282 283 285 287 283 286 286 288 293 293 294 296 292 286 289 290 292 293 292 293 292 291 289 287 285 285 283 282 283 282 282 282 282 282 281 279 278 276 276 274 273
285 287 285 283 279 278 281 281 283 288 284 286 292 293 293 286 285 293 287 289 289 291 291 289 289 288 287 285 284 283 282 282 282 282 282 282 283 281 279 279 276 274 274 274
278 280 280 281 281 283 283 280 282 280 281 275 279 281 284 287 290 287 287 287 289 290 289 289 289 288 287 285 284 283 282 281 283 283 282 281 281 281 280 278 275 274 273 272
280 280 279 282 280 278 282 280 283 283 281 279 281 281 283 282 282 284 286 287 287 287 287 287 287 286 285 285 285 283 281 282 280 280 279 279 279 279 277 276 273 272 271 270
279 284 282 283 283 281 281 282 283 283 282 282 282 283 281 281 280 281 281 281 282 282 282 281 283 281 280 281 282 281 280 278 278 278 279 279 278 276 275 274 271 269 269 269
281 281 282 282 282 280 281 284 284 282 280 281 281 282 281 279 279 279 278 279 279 279 279 277 279 278 278 276 278 278 278 278 278 278 274 271 273 270 270 272 271 271 268 268
278 281 280 280 279 280 282 282 285 284 281 280 280 281 280 279 278 279 277 277 279 278 277 277 278 278 278 276 274 271 274 274 273 270 269 270 270 269 268 268 268 269 266 269
279 280 280 279 282 283 283 284 284 284 282 280 280 279 279 280 279 278 277 277 277 276 275 275 274 274 271 271 270 268 270 272 272 270 269 269 268 266 266 266 263 273 273 274

GFSCGP_sfc_thetae_060.txt.gz
Theta_e
294 290 288 292 291 291 289 287 287 290 294 291 290 291 293 292 290 290 290 291 291 292 292 294 296 297 298 299 300 301 303 303 303 301 299 297 294 294 294 294 292 293 293 293
291 288 294 295 293 291 290 287 288 290 293 291 290 289 291 292 292 293 293 292 293 290 290 293 294 295 297 299 300 301 303 303 303 301 296 294 292 291 291 291 290 290 290 289
290 293 296 295 292 290 289 288 287 289 290 289 287 287 289 292 293 293 295 296 295 293 290 292 293 294 295 297 300 302 303 303 297 293 292 290 290 290 289 288 287 287 288 288
292 296 294 292 291 292 287 292 291 290 287 283 287 282 287 290 291 291 295 294 294 291 292 293 294 294 296 298 304 305 303 297 295 294 292 291 290 288 287 284 285 286 286 286
290 292 292 290 292 294 290 292 290 288 285 282 282 281 285 289 289 292 295 293 292 291 291 292 294 296 297 299 299 300 297 296 294 294 293 291 288 286 285 284 284 283 284 284
291 293 294 294 293 294 293 290 289 286 284 279 285 284 285 287 291 292 296 293 291 290 291 293 294 295 294 295 295 297 295 294 294 292 290 289 286 284 284 283 282 282 282 283
289 290 291 293 290 291 291 288 280 279 277 279 284 282 289 290 293 293 295 292 289 290 290 291 291 293 292 292 294 295 294 292 291 290 288 288 286 285 284 283 282 282 281 280
285 282 290 292 292 289 288 287 281 274 276 279 282 280 286 291 293 294 292 291 289 288 290 290 292 292 291 291 292 292 291 289 289 288 287 286 285 284 284 283 282 282 281 281
284 284 289 290 292 294 287 285 290 285 272 275 282 285 291 290 291 290 292 288 286 288 289 289 290 290 290 289 290 290 290 288 288 287 286 285 285 284 283 282 282 281 281 281
290 283 287 288 292 291 289 291 283 282 273 273 280 281 286 288 289 291 289 287 286 287 286 287 288 288 288 287 287 288 289 287 286 286 286 285 285 284 283 282 281 281 281 281
293 289 284 287 286 287 286 285 286 286 281 276 274 283 289 291 291 290 291 288 287 287 286 286 286 287 286 285 285 285 285 285 285 286 286 284 284 283 283 281 281 281 280 279
293 291 280 284 287 288 288 288 287 283 279 282 280 286 289 291 292 292 292 289 288 288 286 286 285 285 284 283 284 284 284 284 285 285 284 284 283 282 281 280 280 280 279 279
294 289 281 282 286 287 286 289 292 288 283 284 279 285 287 288 290 289 290 287 288 287 285 285 284 284 284 284 284 283 283 284 283 283 283 282 281 281 280 279 279 279 279 278
298 289 286 285 285 287 284 285 288 290 284 284 285 290 290 287 289 289 288 287 287 287 285 285 284 284 285 284 283 283 284 284 283 283 282 281 281 281 280 280 279 279 278 278
296 288 289 290 287 286 284 287 288 287 289 286 289 289 294 294 291 293 290 288 286 286 285 285 285 285 284 284 283 284 284 284 284 283 282 282 282 281 280 279 279 279 278 278
295 288 289 287 289 288 286 288 285 288 290 290 291 290 294 294 293 291 291 289 287 288 287 287 287 286 285 285 284 284 284 284 284 283 282 282 281 281 280 280 279 278 278 277
290 288 285 285 288 287 283 288 290 290 289 289 286 292 296 290 292 293 293 290 289 289 289 288 287 287 286 285 285 284 284 284 283 283 283 282 282 281 280 280 279 278 277 276
287 287 287 285 285 278 287 290 293 292 293 294 292 293 294 293 295 296 292 290 290 291 291 290 289 288 287 287 285 285 284 283 283 283 283 282 282 281 280 279 278 277 277 276
291 287 284 283 283 284 286 284 285 286 288 293 293 295 296 297 289 294 291 292 293 292 293 292 291 289 288 286 285 283 282 283 282 282 282 282 282 281 280 279 278 277 276 276
286 290 286 283 280 279 281 280 283 289 284 282 292 294 292 287 285 293 291 289 290 291 289 288 286 285 284 284 284 282 282 282 282 282 283 283 283 282 281 280 279 278 278 277
280 280 282 283 282 283 285 281 283 282 282 276 279 280 285 285 289 285 286 287 286 286 286 286 286 284 284 283 283 282 282 281 283 283 283 282 282 283 282 281 279 278 276 275
280 280 279 281 279 278 284 281 284 284 280 280 282 282 283 284 284 283 284 284 285 285 285 284 283 283 283 283 284 282 282 284 283 283 282 282 283 283 282 281 280 276 276 274
278 282 280 283 283 282 281 284 283 284 284 282 282 283 282 281 281 281 282 282 282 282 282 283 284 283 283 284 285 285 284 282 282 282 282 282 282 282 281 280 277 275 275 274
280 281 279 282 281 281 282 282 284 282 281 281 281 281 282 280 280 280 280 281 281 280 280 279 280 279 278 280 281 281 279 279 281 281 280 279 279 277 277 278 276 275 273 273
280 281 278 279 281 281 282 283 285 282 281 280 280 281 281 280 279 279 278 277 279 277 277 277 279 279 277 276 275 274 277 279 278 277 274 274 274 274 272 272 273 274 270 274
279 280 280 280 284 284 283 283 285 285 282 281 280 279 279 279 279 278 277 278 277 276 275 276 275 275 272 273 272 272 273 275 273 271 271 271 271 269 269 268 266 274 273 276

GFSCGP_sfc_thetae_063.txt.gz
Theta_e
292 289 287 290 290 289 288 286 286 289 292 290 289 290 293 292 290 290 290 291 291 292 294 292 295 296 297 298 300 300 305 304 303 301 301 300 297 296 296 297 297 297 295 294
290 287 293 293 292 290 288 286 286 289 291 290 289 289 291 291 291 293 293 293 292 293 290 292 294 295 296 298 299 300 305 303 303 304 297 294 295 292 292 293 292 292 290 289
288 292 294 293 290 289 288 286 285 287 289 288 286 286 288 291 293 292 294 296 295 294 292 291 293 294 296 297 299 300 304 304 302 296 293 291 291 291 290 290 289 289 288 287
290 294 293 290 289 291 286 290 290 288 286 282 286 282 286 289 290 291 294 294 295 294 292 292 293 294 296 298 299 301 303 302 295 295 294 294 294 292 289 288 287 286 285 285
289 291 291 289 290 292 289 291 289 287 284 282 281 281 285 287 288 291 294 295 295 293 292 291 293 295 297 298 300 303 301 295 295 294 294 294 293 288 287 287 286 283 283 283
289 292 293 293 292 293 292 289 287 285 283 278 285 284 284 286 291 291 295 295 293 291 290 291 293 295 296 298 303 303 295 294 294 293 293 291 287 286 285 285 284 282 282 282
288 289 291 292 289 290 290 288 280 278 276 279 282 281 288 290 291 293 294 295 291 289 288 289 291 294 295 297 299 298 295 292 293 293 291 289 288 287 286 284 282 281 281 281
284 281 289 291 293 289 288 287 281 273 275 278 282 280 286 290 292 292 292 292 289 287 288 289 292 294 294 296 298 297 293 292 292 291 289 289 288 287 286 284 283 282 282 281
284 284 288 289 290 294 286 284 289 283 271 274 281 284 289 290 290 291 291 288 286 287 287 289 291 293 294 294 295 294 293 292 291 290 289 287 287 286 284 282 281 281 281 281
289 282 287 288 291 290 288 290 283 281 273 270 279 280 284 288 289 291 291 289 288 287 286 287 289 291 291 292 291 291 292 290 290 289 288 287 286 285 282 281 281 280 281 281
290 287 283 286 286 286 286 285 284 285 281 276 273 283 288 290 292 292 291 292 289 287 286 286 288 288 289 288 287 287 289 290 288 288 287 286 285 282 282 281 281 281 281 280
291 288 279 283 286 287 287 286 287 282 279 281 280 285 289 290 290 291 292 291 287 287 286 285 286 286 285 285 285 286 287 288 288 287 286 285 283 281 280 280 280 280 280 279
293 288 281 283 285 286 285 287 291 288 283 284 279 284 287 288 290 290 289 289 288 286 284 284 284 285 285 285 285 285 286 287 287 286 285 284 281 281 280 279 279 280 279 279
298 289 284 284 285 287 283 285 287 289 284 284 285 289 291 288 289 290 290 289 287 286 285 284 284 284 285 285 285 284 284 287 285 285 284 282 281 281 280 280 279 279 279 279
295 286 288 289 289 286 285 286 287 287 288 286 289 289 293 294 289 291 293 290 287 286 284 284 284 284 285 284 284 284 284 284 284 284 283 282 282 282 281 280 279 279 279 279
295 285 287 286 290 288 286 286 286 288 290 290 291 290 296 294 293 291 293 292 288 287 287 286 285 285 284 285 284 284 284 284 284 284 283 283 282 281 280 280 279 279 278 278
291 288 286 285 287 287 283 287 289 287 290 290 286 292 296 294 291 294 295 291 290 289 289 288 286 286 285 285 286 284 284 284 283 283 283 282 282 281 280 279 279 278 277 277
287 288 288 285 285 279 288 290 293 291 292 291 291 293 294 294 294 295 292 292 293 291 290 290 289 288 287 286 285 285 284 283 283 283 282 282 282 281 280 279 278 278 278 277
291 287 285 283 284 285 288 285 286 288 289 295 293 294 296 297 290 296 292 293 294 293 293 293 291 289 286 285 285 283 282 282 282 282 282 282 282 281 279 279 278 278 277 277
286 290 285 283 281 280 285 282 284 290 285 283 293 294 294 287 285 293 287 287 289 288 289 289 287 285 284 283 283 282 281 281 281 282 283 282 282 282 280 280 279 279 278 278
281 284 282 283 282 283 287 281 284 282 284 277 282 283 286 286 289 285 285 286 285 286 286 285 283 283 283 282 282 281 281 281 283 283 283 282 282 282 282 281 279 278 278 277
281 281 281 284 281 278 286 283 283 285 281 281 282 283 284 284 285 284 285 285 284 283 283 282 280 280 280 281 281 280 280 281 281 281 280 281 282 282 282 281 280 279 278 277
281 281 281 285 284 283 282 283 283 284 283 282 282 283 283 282 282 283 284 283 282 281 281 279 279 279 278 281 283 281 282 282 282 282 282 282 283 283 283 282 280 279 279 278
283 284 283 285 285 282 282 283 282 281 281 280 280 280 282 281 280 280 279 282 281 278 279 279 281 281 280 283 284 284 283 283 285 284 283 283 282 282 282 283 282 280 277 277
283 283 281 280 282 282 283 283 284 283 281 280 281 280 280 280 279 280 278 278 279 277 276 277 281 279 276 277 276 275 278 281 281 281 279 280 281 281 279 278 279 278 278 279
281 281 281 281 285 286 285 284 285 282 281 281 281 280 280 280 280 279 278 278 276 276 275 275 275 275 272 273 271 270 270 275 275 273 274 274 274 273 273 272 269 276 275 279

GFSCGP_sfc_thetae_066.txt.gz
Theta_e
292 289 287 290 289 287 286 284 284 286 291 288 288 289 292 292 289 290 290 291 292 292 296 293 293 295 296 297 299 300 306 305 304 303 304 303 300 299 298 299 301 300 299 300
288 286 292 292 290 288 286 285 284 287 289 289 288 288 291 292 291 292 294 293 293 293 291 291 292 294 296 297 301 300 306 303 305 305 300 299 297 294 294 294 294 294 295 295
288 290 293 292 289 288 286 285 284 286 287 287 285 285 287 290 291 292 293 295 295 295 295 291 291 293 295 296 301 302 306 304 304 298 294 293 294 293 292 291 291 290 291 291
289 292 291 288 288 290 285 289 288 286 285 281 284 280 285 288 290 290 293 293 294 295 293 291 292 292 295 297 300 301 306 304 301 296 296 297 299 296 293 290 289 288 289 287
288 290 289 288 289 291 287 290 288 286 283 281 281 280 284 285 287 291 294 295 294 294 292 291 292 294 295 297 300 301 305 303 297 297 297 298 297 290 289 288 287 286 286 285
288 292 292 292 291 292 291 288 286 284 282 278 283 283 282 285 289 290 295 294 293 291 291 290 290 292 294 297 300 301 303 298 296 296 297 298 290 289 287 286 285 285 284 282
286 288 290 291 289 289 288 287 280 277 276 278 281 280 287 289 291 292 294 295 290 290 288 288 289 291 293 295 299 302 299 296 295 295 295 292 291 290 289 286 285 283 283 281
283 282 288 291 292 288 287 286 279 272 274 277 282 279 285 290 291 291 291 291 289 289 288 288 289 291 293 295 300 302 297 295 293 294 292 291 290 291 290 287 286 285 284 281
282 282 288 288 289 293 285 284 288 282 271 274 280 283 288 290 290 291 291 288 288 290 288 287 289 291 292 295 299 299 296 294 292 291 290 288 289 289 287 286 285 284 283 281
287 282 285 287 290 289 287 289 282 280 273 269 278 280 283 288 290 291 291 290 290 288 287 287 288 290 291 294 296 296 296 294 291 290 289 289 289 288 287 284 282 282 282 281
289 286 283 286 285 285 285 284 283 284 280 275 272 282 287 289 290 291 290 291 290 289 287 286 287 289 290 291 289 291 293 291 290 289 289 288 287 286 284 283 282 282 281 280
290 288 280 283 285 286 285 286 286 281 278 280 280 285 289 289 290 290 290 291 289 288 287 286 287 287 287 288 288 289 290 290 289 288 288 287 286 284 283 283 282 281 280 280
292 286 280 282 283 284 284 286 289 286 283 281 278 285 287 288 289 290 289 290 289 287 285 285 285 286 287 287 287 288 288 289 287 287 287 286 284 284 283 282 281 280 279 279
298 289 285 283 284 286 283 285 287 289 283 283 284 288 290 288 289 290 290 289 288 287 286 284 284 285 286 287 287 287 287 287 287 286 286 285 284 284 283 282 281 279 279 279
296 286 288 288 288 288 286 285 287 287 288 285 288 288 292 294 291 293 292 291 289 288 286 284 284 284 284 285 286 286 287 286 286 285 285 285 284 284 282 281 280 279 279 279
294 286 288 286 289 289 287 290 289 287 288 289 290 289 297 295 294 290 292 293 291 289 288 287 285 284 284 285 286 286 286 285 285 285 284 284 283 282 281 281 280 279 279 279
290 287 285 284 286 287 282 286 288 290 291 290 286 291 296 295 292 293 294 292 292 292 291 289 287 287 286 286 286 285 286 285 284 284 284 284 283 282 281 280 279 278 278 278
288 285 286 285 285 278 287 291 292 290 292 292 293 295 296 295 294 294 292 292 293 292 292 291 290 288 287 286 286 286 284 283 283 283 282 282 283 282 280 279 279 279 278 278
294 288 284 283 283 285 286 284 286 287 288 294 292 293 295 296 287 294 292 292 292 291 291 291 291 290 287 285 285 283 282 282 282 282 282 281 281 281 279 278 278 279 278 278
290 291 287 285 280 278 285 281 284 290 285 292 294 294 293 289 283 292 286 286 288 287 287 287 287 286 284 282 282 282 281 281 281 282 282 281 282 281 280 280 279 279 279 278
282 284 282 283 282 283 286 281 285 283 284 279 286 292 290 287 289 285 285 284 284 284 284 284 283 283 282 281 281 280 279 279 281 280 280 281 282 281 281 280 279 278 278 277
281 281 281 283 280 279 285 283 284 287 281 280 282 284 285 285 283 283 284 283 283 282 282 281 279 279 279 280 280 278 278 279 279 281 280 281 282 281 281 280 279 278 278 277
281 282 281 283 282 284 284 285 284 284 283 282 283 283 282 283 282 282 284 283 282 281 281 279 278 278 278 279 279 278 280 280 279 279 280 281 281 281 281 280 279 278 278 277
284 284 283 282 286 286 284 284 283 282 282 281 281 281 282 282 281 280 279 282 281 278 278 278 280 280 281 282 282 282 282 282 283 282 281 282 281 281 282 282 281 280 279 279
282 283 281 282 285 284 287 285 285 284 281 280 281 282 282 282 279 280 278 278 279 277 276 278 279 280 279 280 280 281 282 284 284 283 281 282 282 282 282 281 282 282 282 283
282 282 281 280 286 286 288 287 285 284 281 281 281 280 280 280 280 278 278 277 276 276 275 276 275 275 273 273 272 272 273 277 278 277 278 279 279 278 277 276 274 280 279 283

GFSCGP_sfc_thetae_069.txt.gz
Theta_e
292 289 287 290 289 286 286 285 284 287 291 290 289 289 293 293 291 292 293 293 295 295 299 297 297 297 297 300 301 304 308 309 308 308 307 305 305 303 302 304 304 305 308 308
288 286 291 291 290 289 286 285 285 288 289 290 289 289 292 293 292 294 296 297 296 297 295 295 295 295 297 299 301 303 307 307 307 310 306 303 302 298 298 297 299 301 300 303
287 289 292 291 288 287 286 285 285 287 288 288 286 285 288 291 293 295 295 297 298 297 297 295 293 294 296 298 300 303 307 306 307 306 298 296 297 295 294 294 294 295 300 299
288 291 290 288 287 289 284 289 288 287 286 282 286 280 286 289 291 291 294 295 296 297 296 295 293 293 295 297 301 303 307 305 305 299 301 301 301 298 296 295 293 292 294 294
288 289 289 287 289 290 287 289 288 286 284 282 282 282 285 287 288 292 295 297 297 294 294 294 293 295 296 297 299 303 305 305 303 300 302 303 303 300 295 292 290 290 289 290
287 290 291 291 290 291 290 288 286 284 283 279 282 283 282 285 289 291 293 296 294 293 293 293 292 293 294 297 299 302 304 304 300 300 300 303 301 292 291 290 288 288 288 286
286 288 290 291 288 289 288 286 279 277 276 278 281 280 284 289 289 292 294 295 292 293 293 291 290 291 293 295 298 301 303 303 299 299 300 301 297 295 293 291 289 286 285 284
283 281 288 291 290 288 287 286 279 272 274 277 281 279 285 290 292 292 291 291 291 293 292 291 290 291 292 295 297 300 301 301 298 298 298 299 296 295 294 292 290 289 288 286
282 282 287 288 289 292 285 283 286 282 270 275 281 283 288 289 290 291 292 290 291 292 292 291 290 291 292 294 297 299 301 300 297 297 296 293 293 294 292 290 289 287 287 284
286 281 285 286 289 288 287 289 282 280 273 270 279 280 284 288 290 292 291 292 292 292 291 290 289 290 292 294 297 300 301 298 295 296 293 293 292 292 290 288 286 286 284 283
288 285 282 285 284 284 285 284 283 284 280 275 274 284 286 289 290 291 292 292 292 292 291 290 289 290 291 293 295 298 296 293 292 293 292 291 290 290 288 287 285 284 283 283
290 286 280 282 285 286 284 284 285 281 278 279 279 285 288 289 289 290 291 291 290 291 290 289 289 289 289 291 291 293 294 293 292 292 291 290 289 289 287 286 284 283 282 282
292 286 277 282 283 283 284 285 288 285 282 279 278 284 288 288 289 290 291 291 291 290 289 288 287 287 288 289 290 291 293 292 291 291 290 288 287 286 286 285 284 283 282 281
297 288 284 282 284 285 282 284 287 288 283 283 284 288 289 287 288 290 291 291 291 290 289 288 286 287 288 288 289 290 290 291 289 290 290 288 286 285 286 284 283 282 282 281
295 287 287 288 286 285 284 284 286 286 287 284 288 287 292 292 292 295 298 292 291 290 288 288 287 286 286 287 287 288 290 289 289 288 288 287 287 286 285 284 283 282 281 281
294 287 288 287 290 287 286 288 286 287 288 288 289 288 296 297 292 292 295 295 292 291 290 291 289 287 286 287 287 288 288 288 288 287 287 286 285 285 284 283 282 281 280 280
289 285 285 284 285 286 283 287 289 290 288 288 285 291 296 294 294 296 297 295 293 293 293 292 291 290 289 288 288 287 287 287 286 286 286 285 285 283 283 282 281 280 279 279
286 285 285 283 285 278 287 289 293 291 292 293 293 294 296 295 294 296 294 293 293 293 293 293 292 291 289 288 286 287 286 285 285 285 285 284 283 283 282 281 280 280 280 279
293 289 285 281 281 285 288 284 286 287 288 294 293 295 296 297 289 293 293 292 292 291 291 291 290 290 290 287 285 284 283 283 283 283 283 283 282 282 281 280 280 280 279 279
289 291 285 284 279 277 284 284 284 290 285 291 294 294 294 290 284 292 288 287 287 286 286 286 285 286 285 285 283 282 281 281 281 282 282 282 282 281 280 281 280 280 280 279
284 285 283 283 281 284 284 281 287 283 285 280 288 293 293 289 291 288 285 285 285 285 284 283 282 282 282 282 281 280 280 280 281 281 280 280 281 280 280 281 280 280 279 278
279 279 281 283 281 279 281 283 284 283 284 281 284 286 287 286 285 285 285 284 284 283 283 281 279 279 279 280 280 279 278 280 279 279 279 279 280 280 280 278 278 279 278 277
280 281 281 282 281 284 284 284 285 283 281 283 283 284 284 285 284 284 285 284 283 281 280 278 277 278 278 278 279 278 279 279 278 277 277 279 281 280 280 279 278 278 278 277
284 285 283 283 286 286 288 288 285 285 284 285 283 284 283 283 283 282 281 283 282 278 279 277 278 279 278 277 280 281 281 281 282 280 280 280 279 280 280 280 280 279 278 278
281 283 281 280 283 284 286 286 288 288 285 283 282 281 282 282 280 281 280 278 280 278 277 278 279 279 278 279 279 281 282 283 282 280 280 280 280 280 280 280 280 280 280 281
281 280 280 278 283 284 284 284 285 286 285 284 283 282 281 281 281 279 278 278 277 277 276 277 276 274 272 274 272 272 276 283 282 280 280 281 281 281 280 279 277 282 283 284

GFSCGP_sfc_thetae_072.txt.gz
Theta_e
300 298 295 298 299 296 294 294 293 296 296 296 297 297 300 303 303 302 304 305 306 306 309 309 309 308 309 311 311 311 312 315 317 317 316 316 315 315 310 314 315 318 319 318
297 294 299 297 297 296 294 294 293 296 295 295 296 296 300 301 302 303 304 305 306 307 308 308 307 307 306 307 309 310 311 314 316 315 316 316 316 312 309 306 309 310 313 313
294 296 298 296 294 293 294 293 293 293 294 295 294 293 297 300 300 302 303 304 305 306 307 308 306 305 306 306 307 308 310 313 314 315 315 308 307 303 301 301 303 304 304 306
296 298 295 294 293 294 291 295 294 293 292 289 293 287 294 298 298 300 302 304 305 306 307 307 306 304 305 306 308 308 310 312 313 314 310 310 309 306 306 306 302 297 301 302
293 293 293 292 294 296 293 295 294 293 292 290 292 288 293 294 295 298 302 305 306 307 306 305 305 305 305 306 306 308 309 311 312 313 311 311 311 314 314 309 301 298 294 297
294 296 296 296 294 296 295 294 292 292 291 286 291 289 291 294 296 299 301 303 302 303 303 303 303 303 303 304 305 307 307 309 311 310 311 311 312 311 306 304 300 295 292 290
292 293 295 296 293 294 294 292 285 284 284 284 289 288 292 297 297 300 302 304 301 302 303 302 301 300 300 301 303 305 306 307 309 308 309 310 311 309 307 302 299 296 290 289
288 286 293 296 295 293 292 293 288 283 282 286 286 284 292 298 300 301 301 302 300 300 303 303 302 300 300 301 302 304 304 305 308 306 307 309 310 307 306 301 299 299 295 293
287 287 292 293 296 296 291 288 294 288 281 284 288 293 297 297 298 299 299 300 301 302 302 303 300 299 300 300 302 303 304 305 306 305 306 307 307 305 304 300 297 297 296 290
292 287 290 291 295 294 293 295 287 287 283 281 286 287 290 295 296 299 299 299 301 302 302 301 299 299 299 300 302 303 304 304 305 304 305 304 303 303 303 299 295 292 292 287
295 291 288 291 290 291 290 289 289 290 288 285 283 288 298 298 298 298 300 300 300 301 302 301 299 298 299 300 301 302 304 304 303 303 303 302 300 299 297 295 293 290 287 285
295 292 288 289 292 292 293 292 292 286 284 286 285 288 295 298 297 297 298 299 299 299 301 300 298 298 298 299 300 301 304 303 302 301 301 300 299 295 292 291 289 287 285 284
294 289 285 287 289 290 289 290 292 292 290 287 286 288 294 295 297 298 299 300 299 298 298 298 297 298 298 299 299 300 302 301 300 300 299 298 297 294 291 290 288 286 285 284
297 290 288 287 290 292 287 290 291 290 286 287 288 291 297 295 297 298 300 301 301 300 299 299 299 298 298 298 298 298 298 299 299 297 297 296 296 294 291 290 287 286 284 283
292 285 288 291 293 290 289 290 290 289 290 287 291 292 295 298 298 300 302 302 300 300 298 298 298 299 297 296 296 295 296 297 297 296 296 295 294 293 291 290 289 287 284 283
293 285 286 285 290 290 288 291 290 291 291 292 292 292 299 301 300 298 300 301 301 302 302 300 298 296 295 295 295 294 294 295 295 294 294 294 292 290 288 287 286 285 284 282
289 287 285 282 288 288 284 289 292 292 293 292 289 294 299 298 298 299 300 301 301 301 302 302 300 299 298 297 295 294 294 294 292 293 291 291 289 287 287 286 284 284 283 282
288 286 286 283 285 279 290 293 296 294 295 296 295 297 299 299 300 300 302 301 301 301 300 300 300 300 299 298 295 294 293 291 290 290 289 288 288 287 286 284 283 283 282 281
293 289 284 281 282 286 289 290 292 290 291 297 296 298 299 300 300 300 303 300 301 300 298 298 297 296 295 295 294 290 289 289 288 288 288 287 287 286 285 284 283 283 281 281
290 291 285 283 279 277 287 292 294 295 286 296 297 298 298 299 292 297 296 295 294 293 293 293 292 291 290 291 289 287 287 286 286 287 287 287 286 285 284 284 284 284 283 281
283 284 281 282 280 283 291 289 294 284 286 287 287 291 294 295 299 298 292 291 291 291 290 288 288 287 286 285 286 286 285 285 286 286 285 285 286 284 285 284 284 283 281 279
281 281 282 283 280 277 287 289 285 288 289 288 289 289 288 292 294 293 292 290 289 289 287 285 285 283 283 284 285 284 284 284 284 284 284 283 283 284 284 283 282 281 280 278
279 285 282 284 284 287 288 288 290 289 288 290 287 288 288 288 289 288 290 289 288 286 284 282 283 282 282 283 285 284 282 283 282 281 280 282 282 283 282 282 281 281 281 280
285 287 284 281 285 287 288 291 289 289 289 291 288 285 286 285 286 285 285 286 285 283 282 281 282 282 281 283 283 283 282 282 282 282 281 281 281 281 281 282 282 281 280 280
284 285 283 283 286 287 289 290 292 291 290 288 286 285 285 285 286 284 283 282 283 282 281 282 282 281 280 282 282 283 284 283 282 281 281 282 282 282 281 282 282 282 283 282
284 282 280 280 287 285 285 288 288 286 288 288 288 287 285 285 285 282 282 282 280 282 281 281 279 278 277 277 275 276 280 285 283 281 282 282 282 281 281 281 281 283 283 283

GFSCGP_sfc_thetae_075.txt.gz
Theta_e
303 297 295 298 299 299 297 296 295 298 299 297 297 298 301 304 304 304 305 306 307 308 311 313 313 313 316 321 322 324 324 324 324 324 323 324 326 323 323 325 324 328 328 326
299 295 300 301 301 299 297 295 294 298 300 296 297 297 301 303 303 304 305 306 307 308 309 311 313 313 312 314 318 319 319 319 320 320 320 320 321 321 320 316 316 316 320 323
296 298 301 299 297 295 296 294 295 295 298 298 296 295 298 302 304 305 305 307 307 307 308 310 312 312 312 311 314 315 316 316 317 318 318 318 317 317 313 311 311 308 310 315
297 301 297 297 295 296 292 298 296 295 293 289 296 288 296 299 300 303 304 305 306 308 309 310 310 312 311 312 313 313 315 315 316 318 316 315 311 309 310 313 311 307 305 307
294 295 295 294 295 298 294 298 296 295 293 293 293 289 293 299 297 299 303 306 308 310 310 309 310 310 311 312 312 313 313 313 315 316 316 314 310 313 314 315 309 304 300 304
296 298 298 297 296 298 298 296 295 295 293 286 291 291 292 296 298 300 303 305 306 306 307 307 308 308 308 311 311 312 311 311 313 315 315 313 312 313 314 313 306 300 298 296
294 294 297 298 294 296 296 293 286 285 285 285 293 291 293 298 301 302 302 305 306 305 306 307 305 304 305 306 307 309 309 309 312 313 313 313 313 314 314 313 309 301 297 294
289 287 294 297 296 293 293 293 288 284 284 287 288 286 292 301 302 303 304 305 306 305 305 306 307 306 304 304 305 306 307 307 310 311 311 311 312 313 313 311 310 307 302 300
289 289 296 296 298 298 292 289 296 289 287 285 288 293 298 300 299 301 302 304 304 306 306 306 307 304 304 304 305 306 306 307 308 310 310 310 311 312 312 310 310 307 307 305
295 289 293 293 296 297 294 297 288 289 283 281 286 289 291 297 298 302 301 302 304 305 306 305 304 303 304 304 305 306 306 306 307 309 309 308 309 310 310 309 306 304 302 298
296 293 289 292 291 291 291 290 291 291 289 285 283 288 298 299 300 300 302 303 303 304 306 305 303 303 303 304 304 304 305 305 306 308 307 307 307 308 308 307 305 302 298 292
296 293 289 290 296 297 294 292 292 287 285 288 287 288 300 301 300 301 302 302 303 302 305 305 303 302 302 303 303 304 305 305 306 306 305 305 305 305 304 304 302 298 293 290
295 288 284 288 292 293 290 293 293 293 291 288 285 288 298 299 300 301 301 303 303 302 302 302 302 302 302 303 303 303 304 305 306 305 303 303 303 302 301 298 296 292 290 288
294 287 287 286 287 291 289 291 293 292 287 287 288 291 296 299 300 301 302 303 304 304 303 303 304 304 303 303 303 303 303 304 304 303 302 301 300 300 298 295 292 289 287 285
292 285 287 288 289 289 287 290 291 289 291 287 290 292 296 299 300 302 304 304 304 304 304 304 303 304 304 302 302 301 302 302 302 301 299 299 299 299 297 293 289 288 285 285
294 286 288 284 289 289 286 289 289 290 293 292 293 293 300 301 303 302 303 303 302 303 304 305 304 302 301 302 301 300 300 299 300 299 298 298 296 293 292 290 288 286 284 283
288 285 285 282 288 287 283 287 290 291 294 293 289 295 299 299 300 302 302 303 303 303 304 305 305 306 302 301 299 298 298 297 296 295 294 293 292 290 290 289 287 285 284 283
288 286 287 282 284 275 287 296 296 294 295 298 297 298 299 300 302 303 304 303 302 303 303 304 305 304 304 302 300 299 295 294 292 292 291 291 289 288 288 286 285 285 283 282
290 287 283 280 280 284 288 292 292 292 292 298 297 299 300 301 301 301 304 305 305 305 303 300 300 299 298 297 297 293 291 291 290 289 289 289 288 287 287 285 284 284 283 282
288 288 284 282 277 275 286 292 295 297 285 290 290 291 290 291 292 298 299 299 300 298 297 296 295 293 292 291 289 288 288 288 288 288 288 289 287 286 285 285 284 284 284 283
282 283 280 280 279 283 290 290 294 282 285 287 290 290 289 288 291 293 297 297 295 293 292 291 291 288 287 286 287 287 286 286 287 286 286 286 286 285 285 285 285 283 282 281
281 280 281 282 279 277 290 290 286 286 289 290 291 291 289 291 292 291 291 293 292 291 289 287 287 285 285 286 286 285 284 284 285 285 284 283 284 284 284 283 283 282 281 279
278 282 281 284 283 288 290 289 292 291 289 288 290 291 290 289 289 289 288 289 289 287 285 284 285 284 284 284 286 284 283 284 282 281 281 282 283 283 283 283 281 281 281 280
286 289 283 283 286 288 290 292 292 292 291 290 291 291 290 287 287 286 286 286 286 285 284 283 283 283 283 283 283 283 283 283 281 281 281 281 281 282 282 283 283 282 281 280
285 286 284 284 286 288 289 290 291 293 292 291 291 290 288 287 286 288 285 284 284 284 283 283 283 282 281 282 282 283 283 282 283 282 282 283 282 282 282 282 282 282 282 282
285 283 280 280 286 286 286 289 290 289 289 290 290 289 289 287 287 286 284 284 283 284 283 282 281 280 278 278 277 278 281 283 282 281 282 282 282 282 282 281 281 283 284 284

GFSCGP_sfc_thetae_078.txt.gz
Theta_e
299 292 290 293 294 295 293 291 290 291 296 293 293 293 295 297 297 296 297 298 299 300 303 305 306 306 308 314 318 323 324 324 323 322 321 319 321 322 322 327 328 329 330 327
295 291 296 298 297 295 293 290 289 293 295 292 292 292 295 296 297 298 298 298 299 300 301 303 305 304 306 310 316 319 322 323 322 323 323 321 321 319 319 318 318 320 325 324
293 295 299 296 294 294 291 290 289 290 292 292 289 288 292 297 299 299 299 301 301 301 300 301 302 304 304 306 310 315 319 321 321 321 318 313 313 312 312 310 314 314 316 323
295 299 295 293 293 294 289 293 293 291 288 283 291 280 289 293 293 296 298 298 298 300 301 302 302 303 303 305 307 312 314 315 317 316 314 313 312 310 308 308 307 308 310 313
291 292 292 292 293 295 291 294 292 290 287 286 286 283 287 291 290 293 296 297 299 300 303 304 302 303 304 305 304 305 308 310 310 311 310 310 308 307 305 305 305 305 305 307
292 295 294 294 294 294 296 292 291 289 287 280 286 285 284 288 291 292 296 297 299 298 300 300 300 301 302 304 304 305 305 306 308 309 310 308 306 304 305 305 304 303 302 302
291 291 294 295 291 294 292 288 280 279 278 279 285 283 286 291 293 293 295 297 297 298 300 299 298 298 299 300 302 304 304 303 306 307 308 308 307 305 305 306 303 298 298 296
285 283 291 294 293 290 290 288 281 274 277 279 283 280 287 293 294 297 297 297 298 298 300 300 300 299 298 299 300 301 302 302 304 306 307 307 307 306 307 307 305 302 299 298
285 286 293 294 294 294 289 286 291 284 277 277 282 287 292 294 294 295 295 296 295 297 299 299 300 299 298 299 300 301 301 302 303 304 305 305 305 305 305 305 304 302 300 300
291 284 291 291 293 292 290 293 284 283 274 272 279 281 285 290 293 295 294 295 297 299 301 299 298 298 298 299 300 301 301 301 302 303 304 304 304 304 305 304 302 301 300 298
292 289 285 289 287 288 287 286 288 287 284 277 276 281 291 293 294 295 296 297 296 297 298 298 297 298 298 298 299 299 300 301 301 302 303 302 302 303 303 302 301 299 296 292
294 291 283 286 290 291 291 289 289 282 280 282 281 284 296 295 295 296 296 297 295 295 298 297 297 297 297 297 298 299 300 300 301 301 302 301 301 301 300 300 299 296 293 288
294 288 279 283 287 289 287 289 291 290 285 281 279 283 293 294 294 295 295 296 298 295 297 296 296 296 297 297 297 298 299 300 300 301 300 299 299 298 298 297 296 292 288 286
295 286 285 283 285 290 285 288 290 289 282 284 284 288 292 292 292 294 295 297 297 297 297 297 297 297 297 297 297 298 298 299 300 300 299 297 297 297 296 295 291 288 286 284
290 284 286 287 289 287 286 287 288 287 287 285 287 288 292 293 294 296 297 298 298 297 298 298 297 298 298 297 297 297 297 298 299 298 297 296 296 296 294 290 287 285 284 283
292 284 286 283 288 288 285 287 288 288 288 288 288 288 296 298 298 296 297 298 298 298 299 299 299 298 298 298 297 297 296 296 296 296 296 294 292 291 290 288 286 284 283 282
288 285 284 279 285 284 279 283 287 288 290 290 286 291 296 296 296 296 297 298 299 300 301 300 299 300 300 298 297 295 295 294 293 291 290 290 289 288 288 287 285 284 282 282
286 285 284 274 280 272 282 288 289 288 291 293 294 294 296 296 297 299 298 296 298 299 300 300 299 298 298 297 296 295 292 291 289 288 286 286 285 285 286 285 284 282 281 282
289 285 278 275 272 279 283 285 289 289 288 293 293 291 289 290 292 293 292 293 294 294 294 293 293 293 292 292 291 289 288 288 287 286 286 284 284 283 284 282 281 280 280 282
284 286 282 273 270 266 280 286 291 290 281 285 287 288 287 287 282 288 291 292 293 291 291 289 289 288 287 285 284 286 285 285 285 285 285 285 283 283 282 282 280 279 282 282
280 279 276 277 276 277 283 283 288 277 279 280 284 286 286 284 288 290 290 289 290 289 288 288 286 284 283 283 283 284 284 283 284 282 282 281 281 280 281 280 278 278 278 280
278 277 277 278 276 274 284 283 282 283 285 285 285 285 285 288 289 289 289 286 287 287 285 283 282 282 282 282 282 282 281 282 280 280 279 277 276 280 279 278 275 276 276 275
272 278 275 280 278 285 285 284 288 288 285 286 286 287 288 287 287 287 287 286 286 285 284 281 281 280 280 280 280 279 280 280 277 275 273 273 274 276 276 276 275 275 273 274
278 281 275 277 279 282 284 288 288 289 287 287 287 286 287 287 287 285 284 285 284 283 283 281 280 279 278 277 279 277 279 278 273 273 272 273 273 274 275 277 276 275 273 274
279 280 278 278 282 282 284 287 289 288 287 286 286 286 286 286 286 284 284 284 283 282 280 280 279 279 277 278 277 277 280 279 278 275 275 275 275 274 276 276 276 277 277 278
279 279 277 276 282 282 282 283 284 285 286 285 284 284 286 285 285 284 283 281 279 279 278 278 279 279 279 278 278 277 279 282 281 279 278 278 277 274 276 277 277 284 283 284

GFSCGP_sfc_thetae_081.txt.gz
Theta_e
296 290 286 290 291 290 288 287 285 288 294 292 290 290 293 295 293 292 293 294 295 297 301 301 303 303 304 312 317 322 324 324 327 324 325 325 324 323 326 331 332 330 329 325
291 287 292 294 293 291 289 287 286 289 293 290 289 290 292 293 295 297 295 293 294 294 297 300 300 301 303 310 316 320 323 323 326 327 326 325 321 317 322 323 328 330 329 326
289 293 297 293 292 291 289 287 286 287 289 289 287 285 289 293 294 295 295 296 296 297 297 297 298 299 301 304 312 317 321 322 325 324 319 315 315 314 313 313 319 316 325 326
290 296 293 291 291 291 287 291 290 288 285 281 287 278 285 290 293 292 295 295 296 296 297 298 299 298 299 303 308 315 319 321 322 319 318 317 318 317 315 318 311 312 316 318
289 291 290 290 291 292 289 292 289 288 285 282 283 280 284 287 287 291 293 293 293 296 296 296 298 298 300 300 303 308 311 313 315 318 317 316 316 314 305 305 306 306 308 313
289 292 292 291 292 292 294 291 290 287 284 278 283 283 279 285 288 289 292 292 295 297 297 296 297 299 300 300 301 303 307 308 309 314 311 313 312 304 303 302 302 301 305 308
288 289 291 293 289 292 290 285 277 277 276 277 282 280 283 289 291 292 292 292 295 295 296 298 298 297 298 300 300 301 302 303 305 306 307 307 306 305 304 302 302 303 302 301
283 281 289 292 290 288 287 285 278 272 275 277 281 279 285 291 293 293 294 292 295 295 296 297 297 297 296 298 299 300 301 301 302 304 305 306 306 305 304 303 302 302 303 304
283 283 290 291 292 292 287 284 288 281 273 275 280 284 289 291 292 294 293 293 293 295 296 297 297 298 297 297 298 299 300 300 301 302 304 304 305 304 304 304 303 303 301 299
288 283 289 289 291 290 288 290 282 281 271 270 277 279 283 288 291 293 293 293 295 295 297 297 296 296 297 297 298 299 299 300 300 301 303 304 303 303 303 303 301 300 300 298
289 286 284 288 287 286 286 285 286 285 281 275 273 279 287 289 293 293 293 294 294 295 295 296 296 296 296 297 297 298 299 299 300 300 301 302 302 302 302 301 301 299 297 296
292 288 280 284 288 289 289 288 287 281 279 281 280 283 293 294 294 295 295 296 294 295 295 295 295 295 295 296 296 297 298 298 299 300 300 300 300 300 299 299 299 297 295 292
292 285 275 280 286 287 286 287 289 287 283 279 276 282 291 292 293 294 294 296 296 296 294 294 295 295 295 295 296 296 297 298 299 299 299 298 298 298 297 297 297 294 292 289
294 287 284 281 283 288 284 286 289 287 279 282 282 286 288 290 290 291 293 295 297 296 295 295 294 295 296 296 296 296 297 297 298 298 298 297 296 296 296 296 294 291 289 287
290 284 285 286 287 287 286 286 287 285 287 283 285 285 289 292 294 296 297 297 295 296 296 296 295 296 296 295 295 296 296 296 297 297 296 297 295 295 294 292 290 288 286 285
291 283 286 283 287 286 284 287 288 287 287 286 286 286 293 294 295 294 295 296 296 296 297 297 297 297 297 297 296 296 295 295 295 296 296 294 292 291 290 289 288 286 285 284
288 285 283 278 284 284 278 283 287 288 289 289 284 289 293 292 293 294 294 293 293 294 294 294 295 295 295 294 295 294 294 293 292 291 290 289 289 288 289 288 286 285 284 282
286 285 284 278 279 272 281 286 290 288 289 291 291 292 289 288 290 291 290 290 291 292 292 292 292 291 291 291 291 290 289 289 288 287 284 286 285 286 287 286 285 283 282 281
290 284 276 274 271 276 281 283 286 284 285 289 289 287 287 289 289 290 291 290 291 291 290 290 289 289 288 287 286 284 286 286 286 286 285 284 284 284 284 283 282 280 278 278
284 286 280 272 271 268 277 284 288 287 278 283 286 286 285 286 280 285 289 291 290 289 289 288 287 286 284 283 283 283 284 284 284 285 285 285 282 281 280 281 279 277 276 279
278 275 277 277 275 275 281 282 286 274 276 279 283 284 284 282 285 287 289 289 288 288 288 287 284 283 282 282 282 283 283 282 282 281 281 281 280 278 278 277 277 275 275 280
276 274 273 273 274 271 284 284 281 282 283 283 284 285 284 285 286 286 287 286 286 285 286 285 282 281 282 281 282 281 281 281 279 279 278 276 274 278 276 275 271 272 273 272
273 279 276 277 276 283 285 284 288 288 285 285 285 286 286 285 285 286 286 285 284 285 285 281 279 280 280 280 280 280 281 279 276 273 271 272 272 274 274 274 273 272 271 272
276 279 275 276 278 281 284 286 287 287 286 287 285 285 285 285 285 285 285 285 284 283 284 279 278 279 279 278 278 277 279 278 272 271 272 272 272 271 272 274 274 273 272 270
277 279 276 276 281 281 282 285 288 288 286 285 285 285 285 285 284 283 283 283 283 282 279 278 277 278 276 277 280 280 281 277 276 276 276 274 275 277 276 276 275 276 275 276
278 277 275 273 280 281 281 283 283 283 283 285 284 283 284 284 284 282 281 281 280 278 275 276 279 280 279 279 278 277 277 279 281 279 278 279 275 273 278 278 277 283 283 284

GFSCGP_sfc_thetae_084.txt.gz
Theta_e
294 289 287 290 289 287 286 286 285 286 292 291 290 290 292 293 292 292 291 292 293 295 300 298 299 300 302 310 313 320 324 328 330 328 328 327 329 331 332 333 332 329 327 324
290 286 292 293 291 289 286 284 284 288 291 289 288 288 291 292 293 295 294 292 292 293 294 297 298 298 298 305 312 318 323 327 329 330 331 330 330 321 327 331 331 329 328 325
287 290 294 292 289 288 286 285 285 287 287 287 286 284 287 290 291 293 294 294 294 293 294 295 296 296 297 299 307 315 321 325 328 329 322 314 314 313 314 323 327 328 328 325
289 293 292 289 288 290 285 290 289 288 284 280 285 278 283 288 290 290 293 292 292 293 294 295 296 295 296 298 302 312 318 322 325 324 322 321 321 320 321 321 322 317 326 325
288 289 289 288 289 291 288 291 288 287 284 282 281 280 283 285 287 290 291 291 292 293 293 294 295 296 297 297 299 307 313 317 318 322 321 320 321 318 308 309 311 311 312 316
288 291 290 291 290 291 292 289 287 285 282 277 281 281 279 283 287 288 291 291 294 296 297 297 297 297 300 297 298 305 310 313 314 319 316 317 318 307 306 304 307 309 310 309
287 287 290 291 288 290 288 284 277 276 275 276 280 279 281 287 289 290 290 292 293 295 295 295 296 296 297 298 298 301 306 306 308 312 310 312 312 308 308 306 306 301 306 305
282 280 288 291 289 287 286 285 278 271 274 276 280 278 284 289 289 291 291 290 292 293 295 295 296 296 295 297 298 299 300 302 304 306 306 306 307 308 307 305 303 305 304 304
282 282 288 290 290 292 286 282 285 280 270 274 279 282 288 289 291 290 291 292 293 294 295 295 296 296 295 295 297 299 299 299 300 302 303 303 304 304 304 303 303 302 302 301
286 280 287 288 289 289 287 289 281 279 270 269 277 278 281 285 289 292 293 292 293 294 295 296 296 296 296 296 297 298 298 299 300 300 301 302 303 303 303 302 301 300 299 298
287 284 282 287 286 285 285 284 284 284 279 274 271 278 285 288 289 292 292 293 294 294 295 296 295 295 295 296 297 297 298 298 299 299 299 300 301 301 301 301 300 299 298 296
289 287 280 283 286 288 287 287 287 281 278 279 279 281 290 291 292 293 293 294 294 294 294 294 295 295 295 295 295 297 297 297 298 299 298 298 299 299 299 299 299 298 296 294
291 286 274 280 285 286 284 285 287 285 282 279 276 282 289 291 290 291 292 293 294 295 294 294 293 293 294 294 295 296 297 297 298 298 298 297 297 297 297 297 297 295 295 293
294 287 283 280 282 286 283 285 287 285 279 282 280 283 286 288 290 291 291 293 293 293 294 294 294 294 294 295 294 295 296 296 296 297 296 296 296 296 296 296 295 293 292 290
291 284 286 287 288 287 284 284 285 284 284 281 284 284 287 289 291 293 292 292 294 295 294 294 294 294 294 294 294 294 294 295 295 295 295 296 295 295 294 293 291 290 289 288
291 282 285 283 287 286 284 286 286 287 287 285 284 285 291 293 292 291 292 293 292 292 293 293 293 293 293 293 293 293 293 293 292 293 294 293 292 291 290 290 289 288 287 286
287 285 283 279 284 284 279 284 286 288 288 287 284 289 292 289 292 292 290 290 290 291 292 291 291 291 291 290 290 290 289 289 289 288 288 288 288 288 289 288 287 287 286 284
286 285 283 279 281 274 280 284 290 288 289 291 289 289 289 288 290 291 291 289 289 290 290 290 289 289 288 288 287 286 285 285 286 286 285 285 284 285 287 287 286 284 284 282
291 285 279 276 274 277 280 282 284 286 285 291 290 287 287 288 288 288 290 288 288 289 289 289 288 287 286 285 284 282 283 284 284 285 284 284 283 282 283 282 282 280 279 278
285 286 281 272 271 269 277 283 287 289 279 282 287 286 284 285 281 285 290 288 288 288 288 287 287 285 284 283 282 282 282 283 283 283 283 283 282 279 280 281 279 278 276 280
277 279 279 275 275 275 280 283 285 275 279 281 284 285 283 282 285 286 287 286 286 286 286 286 285 284 283 282 281 281 281 281 282 281 281 280 279 278 278 276 276 274 274 277
276 274 275 274 274 272 282 284 280 282 282 284 285 286 284 284 285 284 285 285 285 285 285 285 282 282 282 281 279 280 280 281 279 278 278 277 277 277 276 274 272 271 271 272
274 278 274 278 278 283 285 284 286 287 285 285 284 285 285 284 284 284 284 284 284 284 284 283 280 279 279 278 277 277 279 279 277 272 273 277 273 274 273 271 270 271 269 271
274 277 274 277 279 282 285 287 288 286 285 286 284 284 284 284 284 284 284 284 283 282 283 279 278 278 277 275 276 279 280 280 277 277 277 276 273 271 270 273 273 270 269 269
276 279 275 274 279 281 282 284 286 287 286 286 285 284 285 284 283 284 282 281 282 281 278 277 278 278 278 277 277 280 279 279 280 280 279 279 279 279 278 278 277 277 277 277
278 277 275 272 279 279 280 281 282 282 281 282 282 282 284 284 283 281 281 280 278 278 275 276 277 278 278 277 275 272 273 275 276 279 279 279 278 277 277 276 277 283 283 283

GFSCGP_sfc_thetae_087.txt.gz
Theta_e
293 290 286 288 288 285 285 284 283 285 290 289 289 288 291 293 291 292 291 292 292 293 298 297 297 298 304 310 313 318 322 326 328 328 328 329 329 330 331 331 331 326 324 321
289 285 291 292 290 287 286 283 282 286 289 289 287 288 290 291 292 293 293 291 291 292 293 294 295 295 296 303 311 315 319 324 327 329 330 330 330 331 332 332 331 329 326 323
286 288 292 291 287 287 285 284 283 285 285 285 285 284 286 289 290 291 292 293 293 292 293 293 293 294 294 295 300 311 317 321 326 329 327 315 320 318 323 328 329 329 327 325
288 291 290 288 286 288 283 289 287 286 284 280 283 277 283 286 288 289 291 291 290 290 292 293 294 294 294 294 296 304 313 319 324 327 325 324 325 324 325 327 328 327 327 326
286 289 288 287 288 290 287 290 287 285 282 281 280 279 282 284 286 289 289 290 290 290 290 292 294 295 295 295 294 300 309 316 321 325 325 325 324 325 314 313 322 322 323 325
287 290 289 290 289 290 291 287 285 283 280 276 280 281 279 282 285 286 289 290 293 294 294 295 295 295 297 297 296 300 307 311 315 322 322 322 321 311 309 307 315 316 317 313
286 286 289 290 288 289 286 284 278 275 275 276 278 278 281 286 287 287 288 290 290 292 293 293 294 295 295 297 297 299 304 307 309 313 312 314 315 310 310 308 311 310 313 307
281 280 288 290 289 286 285 285 278 271 272 275 280 277 283 287 289 289 288 289 292 293 294 293 294 295 294 295 297 298 300 303 306 308 308 308 309 309 309 308 307 308 312 314
281 281 287 288 289 291 285 282 285 279 268 273 278 281 287 287 288 291 292 293 293 293 294 295 295 295 295 295 296 297 298 298 300 303 304 305 305 306 306 304 303 303 302 302
285 280 286 287 288 289 286 288 281 278 270 268 276 277 280 284 289 290 291 291 292 293 294 295 294 294 294 294 295 296 297 298 298 299 300 301 302 302 303 302 301 300 299 299
286 284 282 286 285 284 284 283 282 282 279 273 270 277 284 286 288 290 290 291 292 293 294 294 294 294 294 295 295 296 296 297 298 298 298 298 299 300 300 300 300 299 298 297
288 285 279 283 286 286 285 286 285 280 277 278 278 281 288 288 291 291 291 291 292 293 293 293 293 293 293 293 294 295 296 296 297 297 298 298 298 298 298 298 298 297 297 295
290 283 273 279 283 285 283 284 285 284 281 278 275 280 289 288 289 290 291 291 292 292 292 292 292 292 292 293 293 294 295 295 296 296 297 297 296 296 296 296 296 295 295 294
295 287 280 279 280 284 282 284 285 285 280 282 279 282 285 287 288 290 290 291 292 292 292 292 293 293 293 293 293 293 293 293 294 294 295 295 295 295 295 295 294 294 293 292
292 284 285 286 287 286 283 283 285 283 284 281 284 283 285 288 289 289 290 292 292 291 291 291 291 291 291 292 292 292 292 292 291 291 292 293 294 293 294 292 291 291 290 289
291 283 285 282 286 286 284 284 284 284 285 284 282 285 290 292 290 290 290 290 290 290 290 290 290 290 290 289 289 289 289 288 288 288 288 288 288 288 289 289 289 288 288 287
287 284 281 270 284 284 280 283 284 284 286 286 283 288 291 288 291 291 289 289 289 290 290 289 289 289 288 288 287 286 286 285 285 284 285 285 286 285 287 287 287 287 287 286
285 284 283 274 282 274 280 282 288 287 289 290 289 287 289 290 290 290 289 287 288 288 288 289 288 288 288 286 286 284 283 283 283 284 284 284 284 284 285 285 286 284 284 282
290 286 279 274 277 279 280 282 286 285 284 291 289 289 287 288 289 287 289 288 287 287 288 288 288 287 286 285 284 282 283 283 283 283 283 283 282 282 283 282 282 281 278 278
285 286 282 274 271 269 278 282 286 289 279 284 288 287 286 285 280 285 289 286 286 286 287 287 287 286 285 284 282 281 281 281 281 282 282 282 281 279 280 281 280 278 275 278
279 280 280 277 272 275 281 284 285 278 277 280 285 285 284 283 286 286 285 284 285 285 286 286 285 285 284 283 281 281 281 281 281 279 279 279 278 277 278 277 275 273 273 275
277 275 277 276 276 272 281 284 281 283 283 283 285 285 284 284 284 284 285 285 285 284 284 285 283 282 283 282 279 279 279 280 278 277 276 275 275 275 276 270 272 271 270 271
272 276 273 277 277 282 283 283 285 286 285 284 284 285 285 284 284 283 284 284 285 284 284 281 279 279 279 278 277 277 279 278 276 270 273 276 275 274 272 270 272 270 267 268
273 276 272 273 276 282 283 285 286 287 285 286 286 285 284 283 284 284 284 284 284 282 283 279 280 280 279 276 276 276 277 278 273 274 274 273 274 275 274 279 278 276 276 274
275 277 274 273 278 281 281 284 284 283 284 283 283 283 283 283 283 283 282 282 282 282 278 277 277 278 278 276 274 273 275 273 274 276 278 279 280 279 277 275 273 274 276 278
277 277 275 272 279 279 280 281 282 281 281 280 280 280 281 282 281 280 279 279 278 278 276 277 276 276 275 274 277 277 271 268 267 270 275 276 274 272 273 272 273 282 283 283

GFSCGP_sfc_thetae_090.txt.gz
Theta_e
292 288 284 289 287 284 285 283 281 283 288 288 287 288 290 292 291 291 292 292 292 292 296 294 296 296 305 309 313 317 322 326 328 329 329 328 327 329 330 330 326 321 321 317
289 285 290 291 288 286 286 283 282 285 288 288 286 287 289 290 291 292 292 292 291 291 292 293 293 293 295 302 310 314 318 324 327 329 329 329 329 329 329 330 329 324 322 320
286 288 292 290 287 286 283 282 282 284 284 285 283 283 284 288 289 290 291 291 291 291 292 293 292 292 291 293 299 309 315 320 325 328 327 318 322 323 327 328 328 328 325 323
287 290 289 287 285 287 282 287 286 285 283 279 283 277 282 285 287 288 290 288 289 289 290 290 291 291 292 292 293 300 309 315 321 325 325 324 326 325 327 328 329 328 327 325
285 288 287 286 287 289 286 288 286 283 281 280 279 279 282 281 285 287 288 289 291 291 288 289 294 295 295 294 292 293 301 309 315 322 325 324 324 325 322 327 324 325 325 326
286 290 289 289 288 289 289 286 284 281 280 276 279 280 278 281 284 287 287 288 289 290 292 292 293 294 294 296 296 298 299 305 312 319 323 322 322 318 311 311 323 324 322 323
285 286 288 289 287 288 285 284 277 275 274 275 277 278 280 285 285 284 287 289 289 290 291 292 293 294 294 294 296 298 301 303 308 312 315 316 318 313 313 310 319 318 317 311
281 280 287 290 288 286 284 284 278 271 272 275 279 277 282 285 287 288 287 289 291 292 292 293 292 293 293 294 294 296 297 301 304 307 309 309 310 310 309 309 309 315 316 317
281 281 287 288 288 289 284 281 283 278 267 272 277 280 285 285 289 290 291 291 291 291 293 293 293 293 293 294 294 295 296 297 299 302 304 305 306 307 307 306 305 305 305 309
285 280 285 286 288 287 285 287 280 278 269 267 275 276 279 284 287 289 290 291 291 292 293 293 293 293 293 294 294 295 296 296 296 297 298 300 300 301 302 302 302 301 301 300
285 283 282 285 284 283 283 282 281 282 279 273 270 276 283 284 289 289 290 290 291 292 292 292 292 292 292 293 293 294 295 295 296 296 296 297 297 298 298 298 299 298 298 298
287 285 279 282 285 285 284 284 284 279 276 277 277 280 286 286 290 290 289 291 291 291 291 290 291 292 292 293 293 293 293 293 294 295 295 296 296 296 296 297 297 297 297 295
290 283 274 279 282 284 283 283 284 283 281 278 274 280 287 288 288 289 289 290 290 291 291 291 291 291 291 291 291 291 292 292 292 293 293 294 294 294 295 295 295 295 294 294
294 285 280 278 280 283 282 283 284 284 279 281 279 281 285 286 288 288 288 289 291 290 290 290 290 290 290 290 289 289 290 290 289 290 291 291 292 292 293 293 293 292 292 292
291 284 285 285 286 286 283 283 284 283 286 281 284 282 285 288 288 289 289 290 290 289 289 289 289 289 288 288 288 288 288 287 287 287 288 288 288 289 289 289 289 289 289 289
291 282 283 278 283 283 282 286 286 285 284 283 282 284 290 290 289 288 290 290 289 288 288 289 288 288 288 288 287 287 286 286 285 285 285 285 285 285 285 286 287 287 287 287
288 284 276 271 282 282 278 283 284 285 284 285 283 287 289 288 290 290 289 289 288 288 288 288 288 288 288 287 286 285 284 284 283 283 283 283 283 283 284 284 285 285 285 285
286 284 278 270 282 273 280 281 285 285 286 288 287 287 289 289 289 289 288 287 287 287 287 287 287 287 287 286 286 284 283 283 283 282 282 282 282 282 283 283 283 283 283 282
289 283 278 277 275 278 280 280 282 282 282 288 288 287 287 288 287 285 288 287 287 286 287 287 287 287 287 285 285 283 283 282 282 282 282 281 280 279 280 280 281 281 278 279
285 286 280 274 274 269 278 281 288 289 278 281 288 287 285 284 280 284 287 285 286 285 286 286 286 285 285 284 283 282 282 281 281 281 281 280 279 275 277 278 279 277 274 279
281 280 280 277 272 275 280 281 287 277 277 278 285 284 283 281 283 285 284 284 284 285 284 285 285 285 284 283 282 282 281 281 281 279 279 279 277 275 276 276 275 272 274 275
278 279 277 278 276 270 281 282 281 283 283 282 283 284 283 284 284 284 284 283 283 284 284 284 282 282 283 282 279 279 279 280 277 277 276 275 274 276 275 268 270 269 268 271
273 277 274 277 277 281 281 281 283 285 283 284 283 283 284 284 283 283 283 283 284 284 284 282 280 281 281 279 277 278 278 278 276 273 274 273 274 275 273 269 273 269 266 266
273 275 271 274 275 279 281 283 284 284 284 284 284 284 283 282 282 282 283 283 282 281 282 279 278 278 278 275 276 275 276 276 273 275 274 276 274 276 273 275 274 268 270 269
276 277 273 273 278 280 281 282 282 283 283 281 281 281 281 281 281 281 279 280 281 280 278 277 277 277 277 275 274 273 276 274 273 272 273 274 276 275 276 274 273 273 273 273
277 276 275 272 280 281 281 282 282 281 280 280 280 279 280 279 279 276 276 276 274 274 274 275 275 275 274 272 271 269 265 266 266 268 270 272 273 277 276 271 272 280 283 284

GFSCGP_sfc_thetae_093.txt.gz
Theta_e
292 288 286 289 287 285 286 283 282 284 289 289 288 288 291 293 292 292 293 294 294 295 298 297 298 298 303 312 317 321 326 329 330 330 329 328 327 329 329 327 325 323 321 318
289 285 290 291 287 287 285 283 284 286 288 288 286 288 290 291 292 294 294 293 293 293 295 295 296 296 296 303 311 316 322 326 329 330 331 331 329 329 330 330 327 324 322 320
286 287 291 290 286 286 283 283 283 283 285 285 283 284 285 288 289 291 291 292 292 292 293 294 294 294 295 295 300 310 316 322 327 330 330 328 328 326 328 328 328 324 324 323
287 289 288 287 285 286 283 287 286 285 283 280 283 278 283 286 287 289 291 289 291 292 290 291 294 297 297 296 295 300 310 317 323 328 328 327 325 325 327 328 329 328 324 324
285 287 287 286 287 288 285 287 286 285 282 281 281 280 283 283 286 288 290 291 290 291 292 294 295 296 298 298 297 296 300 310 317 324 327 326 325 327 328 329 328 328 326 325
287 289 289 288 287 288 288 285 284 282 280 277 279 280 280 282 285 285 288 289 290 292 292 293 295 296 296 298 299 302 300 302 310 318 324 324 324 324 319 321 325 326 326 325
284 286 288 289 287 288 285 283 278 276 275 276 278 278 281 285 286 286 288 289 292 293 293 293 294 295 295 296 297 299 303 305 309 313 318 320 322 321 319 318 322 323 321 316
281 279 287 290 288 286 284 284 278 271 272 275 279 277 282 285 287 288 288 291 292 293 293 293 294 294 295 295 296 297 298 300 306 310 313 316 317 317 316 315 318 322 321 320
281 281 287 287 288 289 285 281 284 277 267 273 277 280 286 286 289 289 290 292 292 293 293 293 293 293 294 295 295 296 297 298 298 302 306 308 310 311 312 311 311 312 313 313
285 280 285 286 288 287 285 287 281 278 270 268 275 277 280 283 288 289 289 291 291 292 293 292 292 293 293 293 294 296 297 297 297 298 299 300 301 303 305 306 307 306 306 306
285 284 282 285 284 283 283 283 282 282 279 273 270 276 282 284 288 289 290 291 291 291 291 291 292 293 293 293 293 294 294 294 295 296 297 298 298 299 300 301 301 302 302 302
286 284 279 282 284 286 284 284 284 279 276 277 277 279 287 286 290 290 291 291 290 290 291 292 292 292 292 291 292 292 292 292 292 294 295 296 296 296 297 297 298 298 299 299
289 282 275 279 282 284 283 284 284 283 282 277 276 280 287 287 289 289 290 290 291 291 291 291 291 290 290 290 290 290 290 290 290 291 292 292 292 292 293 294 295 295 296 296
293 285 282 279 280 283 282 283 284 284 279 281 280 282 285 286 288 289 290 290 290 289 289 289 289 289 289 289 289 288 288 288 288 289 289 289 289 289 290 291 291 291 292 292
290 278 282 284 285 284 282 284 284 283 286 282 285 283 284 288 288 290 291 290 289 289 288 289 289 289 288 288 288 288 287 287 287 287 287 287 287 288 288 288 288 288 289 289
290 282 284 281 285 285 283 285 284 284 284 283 283 284 289 289 290 289 291 290 288 288 288 289 288 288 288 287 287 286 286 286 286 286 285 285 285 285 286 286 286 287 287 287
287 284 279 273 281 281 275 282 284 284 284 285 282 287 289 288 288 289 289 289 288 288 288 288 288 288 287 287 287 286 285 285 285 285 284 284 284 283 284 284 285 285 285 286
285 283 277 271 279 270 281 281 285 286 286 287 287 287 289 289 289 289 289 288 287 287 287 287 288 288 288 287 287 285 285 284 284 283 282 282 282 282 283 282 283 282 283 283
288 284 277 275 273 276 279 280 282 282 283 288 288 288 288 287 286 285 287 287 287 287 287 287 287 287 287 286 285 284 284 284 283 282 282 281 281 279 279 278 280 281 280 281
286 284 277 272 268 268 277 280 286 286 275 281 288 288 285 285 282 284 286 286 285 286 286 286 286 286 285 285 284 283 283 282 281 281 281 280 279 276 276 278 278 279 277 279
282 283 280 272 270 272 280 281 285 274 277 276 284 285 283 283 284 285 285 285 285 285 284 284 284 284 283 283 282 282 281 281 280 279 279 279 278 276 277 276 276 275 275 275
280 275 275 279 277 273 281 281 280 281 281 281 282 283 283 283 283 283 283 284 284 283 283 284 282 282 282 281 279 279 279 279 278 277 276 276 275 276 277 270 273 272 271 272
273 279 278 278 277 281 280 281 283 284 282 282 282 282 282 282 282 283 283 283 283 283 283 280 278 279 280 278 277 278 279 278 276 277 274 273 274 276 276 273 275 274 273 272
273 275 272 275 276 279 281 282 283 284 283 283 283 282 282 281 282 282 282 282 281 279 279 276 276 277 277 275 276 273 276 276 274 273 272 272 272 275 273 275 275 273 274 274
276 278 274 273 278 280 281 282 283 283 282 281 281 281 281 281 280 281 278 277 278 277 275 275 275 275 274 274 273 272 271 268 268 269 271 273 274 274 276 277 276 276 277 278
276 276 276 273 280 281 282 282 282 280 280 280 280 279 279 280 279 276 275 274 272 271 270 270 270 269 268 267 267 265 262 263 263 265 269 270 270 272 274 277 277 279 282 284

GFSCGP_sfc_thetae_096.txt.gz
Theta_e
298 296 292 295 296 292 294 292 290 291 294 295 295 295 298 301 300 301 303 304 305 305 308 307 307 308 310 320 326 330 333 335 335 330 330 330 329 331 332 332 329 328 330 328
296 292 296 294 293 293 293 291 290 292 294 294 294 294 298 299 300 302 303 303 304 305 305 305 305 306 306 308 314 321 328 332 335 332 331 331 331 331 333 332 330 328 328 329
292 293 295 293 292 291 291 291 289 290 291 292 292 293 295 297 296 298 299 300 300 300 301 302 303 303 304 305 307 312 318 325 331 334 334 331 332 331 330 329 328 327 327 328
293 293 293 292 291 293 289 293 292 290 290 287 291 287 293 296 296 297 298 298 300 300 300 298 302 306 307 307 305 304 311 318 324 331 332 329 327 326 328 330 331 329 328 326
291 291 291 291 292 294 290 292 292 291 290 290 289 288 292 291 293 295 297 298 299 299 300 301 302 302 305 307 307 305 304 311 318 325 329 330 329 329 330 331 329 330 327 328
291 294 294 293 291 293 292 292 291 290 290 284 289 288 290 291 293 295 296 297 300 300 301 301 302 303 304 307 309 312 305 305 313 320 325 327 326 326 327 328 330 331 329 326
290 291 293 294 291 292 292 291 284 283 283 282 284 285 290 293 293 295 295 296 300 301 301 302 303 303 303 304 306 307 312 313 311 314 320 323 325 326 325 325 328 328 327 324
285 283 290 294 292 290 290 290 286 280 279 283 283 283 290 293 294 294 295 298 300 301 301 301 301 302 302 303 305 306 307 310 316 318 317 320 322 322 323 324 325 327 328 327
285 285 291 292 292 294 289 287 290 282 276 283 286 288 292 293 293 294 297 298 299 299 299 299 300 300 301 302 303 304 305 305 307 312 316 314 314 315 316 316 316 317 317 314
289 284 289 290 293 292 291 292 286 286 280 280 282 283 287 290 294 295 296 297 297 297 297 298 299 299 300 301 302 302 303 303 304 306 306 307 307 309 310 312 313 314 315 315
290 289 286 290 289 288 287 287 287 289 286 283 280 285 292 292 294 296 296 296 297 297 298 298 298 298 298 299 299 299 300 300 301 303 304 304 304 304 305 306 306 306 307 308
290 289 284 286 289 290 289 290 290 285 281 283 282 285 292 291 296 298 296 296 296 298 298 297 297 297 297 296 296 296 296 296 297 299 299 299 299 300 301 301 302 303 303 304
291 288 283 284 287 289 287 288 289 288 288 284 284 286 291 293 295 296 296 296 296 296 296 296 296 295 295 295 295 295 294 294 295 296 296 296 295 296 296 297 297 298 298 300
295 288 287 283 285 288 286 287 288 289 286 285 285 288 289 291 294 295 295 296 296 296 294 295 295 295 294 294 294 294 293 293 294 294 294 293 293 293 293 294 294 294 295 295
292 286 286 287 287 287 287 287 287 286 289 285 288 287 291 292 294 296 297 296 294 293 293 294 294 294 293 293 293 293 293 292 292 293 292 291 291 291 292 291 291 292 292 292
292 285 286 283 286 286 284 287 287 288 289 288 289 287 292 296 296 295 295 295 293 293 293 293 292 292 292 292 292 292 292 291 291 291 289 289 289 289 289 289 289 290 290 291
289 286 284 282 284 284 283 285 287 288 289 289 286 291 294 291 293 295 296 295 294 293 292 291 291 291 291 291 291 290 290 290 290 289 288 287 287 287 288 288 288 288 288 289
287 285 284 279 282 278 286 286 291 289 290 290 291 292 294 295 295 296 297 296 293 292 291 291 291 291 291 291 290 290 289 289 289 287 286 286 286 285 286 286 286 286 287 286
292 286 281 279 279 283 285 285 287 287 288 292 291 293 293 292 292 290 293 295 293 292 292 292 292 291 291 290 289 288 288 288 287 286 285 285 284 283 283 283 284 285 285 285
289 290 286 278 277 275 283 285 290 289 283 289 293 293 292 290 289 293 290 291 290 291 291 290 290 290 290 289 288 287 286 286 285 284 284 284 284 282 282 284 283 284 283 283
282 283 281 280 280 282 287 286 290 281 286 284 290 292 291 291 293 292 290 289 290 290 289 290 289 288 286 286 285 285 285 284 283 283 283 283 283 281 282 283 283 282 282 282
282 281 281 282 279 277 286 287 285 289 286 288 290 291 291 290 288 288 288 288 288 288 288 287 286 285 284 284 284 284 284 283 282 282 282 281 280 281 282 281 282 282 282 281
280 286 283 285 285 285 287 288 289 289 288 288 289 289 289 288 287 287 287 287 287 287 285 283 283 283 282 281 281 281 281 280 278 277 277 278 278 279 280 280 281 282 283 282
280 281 284 285 284 284 286 288 288 289 289 288 288 288 288 286 286 286 286 285 284 283 281 280 281 280 279 278 277 276 276 275 272 273 275 277 277 278 279 280 281 281 282 282
282 282 280 281 281 284 286 288 289 288 287 286 285 285 287 286 285 285 283 282 281 280 277 277 277 277 275 275 274 273 271 269 270 271 273 275 277 277 277 279 280 280 281 282
281 280 280 282 284 286 287 289 287 286 285 285 284 283 283 285 284 282 281 279 277 276 274 274 273 272 271 270 269 268 266 265 265 268 272 273 272 274 275 277 279 282 282 283

GFSCGP_sfc_thetae_099.txt.gz
Theta_e
302 296 293 296 297 297 297 294 293 296 296 297 296 297 299 302 302 302 303 305 306 306 309 311 310 312 317 325 328 330 332 335 337 332 331 331 330 332 333 334 333 333 332 331
297 293 298 299 295 295 296 294 293 294 296 296 296 295 299 301 301 303 303 304 306 307 308 308 308 310 310 311 319 325 328 331 335 334 332 332 331 331 333 333 333 332 331 330
293 295 298 296 294 293 294 293 293 292 294 295 294 293 296 300 301 302 303 304 305 305 305 307 307 307 309 309 310 312 319 326 331 335 332 331 331 331 330 331 331 331 329 329
295 295 295 294 293 295 290 295 294 292 292 288 294 287 295 298 298 298 301 302 302 304 304 303 303 305 309 310 310 308 310 315 323 331 334 330 328 326 329 330 330 330 329 328
292 292 293 293 294 296 292 295 294 293 291 291 291 288 293 296 295 298 300 301 302 303 303 304 305 306 308 310 311 309 307 309 316 323 330 331 327 328 330 330 329 329 328 328
293 296 296 295 295 296 295 294 293 293 292 285 290 290 290 294 295 297 299 300 302 303 303 304 306 307 308 311 312 315 307 306 312 318 323 327 328 329 328 329 328 328 327 327
291 292 294 296 292 295 294 291 285 283 283 283 288 287 291 296 295 298 298 300 303 303 304 305 305 306 306 307 310 311 315 313 310 315 319 323 325 326 323 323 324 324 326 323
286 284 291 295 294 291 292 292 287 281 281 284 285 284 290 297 298 297 298 300 303 303 303 303 304 305 305 306 308 309 311 315 318 316 317 320 323 323 322 320 322 322 325 324
286 286 293 294 294 295 291 287 292 285 281 285 287 290 295 297 296 296 297 300 302 301 302 302 302 303 304 305 305 307 307 308 312 317 315 316 317 318 318 318 317 317 316 315
291 284 290 291 294 293 292 294 286 288 282 281 285 286 288 291 294 296 297 300 299 300 300 300 301 301 302 303 304 305 305 305 307 308 308 309 309 311 313 314 315 314 315 316
292 291 286 290 289 289 289 288 289 289 289 285 282 286 293 295 297 296 298 300 299 300 300 299 300 300 301 301 301 301 302 302 303 304 304 304 304 305 306 306 306 306 307 307
293 290 285 287 290 292 293 291 290 286 283 286 285 287 294 294 298 299 298 299 300 300 300 300 300 300 299 299 298 298 298 298 299 300 300 300 300 301 301 300 301 302 302 304
292 290 282 284 288 290 288 290 292 292 290 286 285 287 293 295 298 299 298 298 298 299 299 299 298 298 298 297 297 297 297 296 297 298 297 297 296 296 296 296 296 297 297 298
295 292 287 283 286 289 286 289 289 290 286 286 286 289 291 294 296 297 298 298 299 298 298 298 297 297 297 296 296 295 295 295 296 296 295 294 294 294 294 294 294 294 294 294
294 286 289 289 289 290 290 289 288 287 289 286 288 289 293 295 296 298 299 299 297 297 296 297 296 296 295 294 294 294 294 294 295 294 293 292 293 293 293 292 292 292 291 292
293 285 287 284 288 288 287 290 290 289 289 290 290 290 295 297 299 299 298 298 296 296 296 296 295 293 293 293 293 293 293 292 294 292 291 291 291 290 290 290 289 290 290 290
290 286 285 283 286 286 283 286 289 290 291 291 287 292 295 294 295 297 298 298 296 296 296 294 293 292 293 292 292 291 291 292 291 290 288 288 288 287 288 288 288 288 288 289
288 286 286 282 284 277 288 289 292 290 292 293 292 294 296 296 297 298 300 298 297 296 294 293 292 292 292 292 291 291 291 290 289 287 287 286 286 286 287 286 286 287 287 287
291 287 282 280 282 286 287 286 289 288 289 294 292 294 295 295 294 293 297 300 298 296 294 293 293 292 292 291 290 289 289 289 287 286 286 285 285 284 284 283 285 286 285 285
291 290 286 282 280 279 286 289 293 293 285 293 295 294 295 292 289 294 294 295 294 293 292 291 292 291 291 289 288 288 287 287 285 285 284 285 284 283 282 284 284 285 284 284
283 284 282 282 281 285 290 288 294 283 287 286 292 295 294 291 295 293 293 291 291 291 291 291 291 288 287 286 287 286 286 284 284 284 284 284 283 282 283 283 284 283 283 283
283 282 282 284 280 278 289 289 286 290 289 290 292 294 292 293 291 290 290 289 289 289 289 289 286 285 285 285 285 285 283 283 282 280 281 280 280 281 282 281 282 283 283 283
282 287 285 285 286 289 291 291 292 291 291 290 292 292 293 290 289 289 288 288 288 288 286 285 285 283 283 282 281 281 279 279 276 274 274 277 278 279 280 280 280 281 283 283
285 284 286 287 289 287 289 290 290 291 291 291 291 292 292 289 289 287 287 285 285 284 283 282 282 282 280 278 277 276 276 274 270 272 274 276 277 278 279 281 281 282 281 281
285 284 285 284 285 286 288 290 292 290 289 288 289 290 291 288 286 286 285 284 284 282 280 280 280 279 277 276 274 272 271 269 270 271 273 275 277 277 277 278 279 280 281 281
284 284 283 284 288 288 290 291 291 290 288 287 286 285 287 287 286 285 284 283 281 279 278 277 276 275 274 272 270 269 265 265 265 269 273 273 272 274 275 276 277 281 283 283

GFSCGP_sfc_thetae_102.txt.gz
Theta_e
299 293 289 292 293 293 291 290 289 291 294 293 292 292 294 297 296 296 296 297 298 298 301 302 305 308 314 320 323 325 329 332 332 329 330 330 329 331 331 332 331 330 330 329
295 290 295 297 295 292 290 290 289 290 294 292 290 291 294 296 295 296 297 297 298 299 300 303 302 301 305 309 317 322 324 328 332 331 331 330 330 330 331 332 331 331 330 329
291 294 297 295 291 290 289 289 288 289 291 291 286 287 290 294 296 297 298 296 296 296 298 300 300 301 301 301 302 308 316 322 327 331 330 329 329 329 328 329 330 330 329 329
293 294 294 293 291 292 287 292 291 291 287 282 287 279 287 291 292 294 295 295 293 295 299 297 297 299 302 304 304 304 303 306 313 325 328 327 326 325 327 328 330 329 329 328
290 290 291 291 292 294 290 292 291 290 286 285 284 282 285 290 289 292 294 295 297 297 298 299 300 303 304 305 305 304 302 302 304 313 323 326 325 325 325 327 327 328 327 327
291 294 293 293 293 294 293 291 291 288 286 278 283 283 282 287 290 291 293 296 297 296 297 299 301 303 303 304 306 308 301 301 303 309 314 321 323 322 320 321 324 325 325 325
289 289 292 294 290 292 291 287 279 278 277 277 283 282 285 289 290 293 292 296 297 298 298 299 299 300 301 302 303 306 310 306 305 308 312 315 318 319 322 321 320 321 323 322
284 282 289 292 291 288 288 287 281 274 276 278 281 279 285 290 292 293 294 297 298 298 298 298 299 299 300 301 302 304 306 310 311 311 311 313 314 315 317 318 318 319 319 320
284 284 291 291 291 292 287 284 288 281 275 278 280 284 289 290 290 291 292 296 296 296 297 297 298 298 298 298 300 301 302 303 307 313 312 310 311 312 312 315 315 314 314 312
288 281 289 289 291 290 289 290 282 282 271 271 278 280 282 287 289 290 292 295 295 295 296 296 296 297 297 298 298 299 300 300 301 302 302 302 304 305 306 305 303 304 305 305
288 288 284 288 286 286 286 285 286 286 284 277 275 279 285 289 291 290 292 295 294 295 295 295 296 296 296 296 295 295 296 297 297 297 298 297 298 298 298 298 298 298 299 300
290 288 281 284 288 289 288 287 287 281 279 280 281 281 291 290 293 294 295 295 296 296 296 295 295 295 294 294 294 293 294 294 295 296 295 295 295 294 294 294 294 294 295 296
290 286 279 282 285 288 286 288 289 288 285 279 277 280 290 290 293 295 294 295 296 296 295 295 294 294 293 293 292 292 293 293 294 294 293 292 292 292 291 292 292 292 292 292
294 289 285 281 284 286 283 286 287 287 281 281 282 284 287 290 292 293 294 294 295 295 295 294 293 293 292 292 291 291 291 292 292 292 291 290 290 291 291 291 290 290 290 290
291 283 285 287 288 288 286 286 287 285 287 283 285 286 288 290 292 294 294 294 295 294 294 293 292 291 291 290 290 290 290 291 291 290 290 289 289 290 289 288 288 288 287 288
292 281 284 281 287 287 282 287 287 287 288 287 286 285 290 293 294 293 295 295 294 293 293 293 292 291 290 290 289 290 289 289 289 288 287 287 287 286 285 285 285 285 285 285
289 284 281 277 283 283 279 284 287 287 289 288 284 289 291 290 293 293 294 295 294 293 293 292 290 290 289 289 290 288 288 289 287 285 284 284 284 284 284 284 284 284 284 284
286 285 285 279 280 274 284 288 291 289 289 291 290 289 291 291 293 294 295 295 294 293 292 291 290 289 289 289 288 288 287 286 284 284 283 283 283 282 283 283 283 283 283 282
291 286 282 280 279 282 283 284 286 286 286 291 290 291 292 292 291 289 294 296 295 293 291 290 290 289 288 288 288 286 285 284 284 283 283 282 281 280 281 278 281 281 279 279
288 289 286 282 279 275 282 286 291 291 283 290 292 291 291 290 286 289 293 293 292 290 290 289 289 288 287 285 285 284 284 283 282 282 282 282 280 276 276 279 278 279 277 281
282 283 282 281 280 279 283 286 290 279 281 281 289 292 290 288 291 290 291 289 289 289 288 288 288 285 283 284 284 284 282 281 281 280 280 280 279 276 276 276 276 274 275 277
279 279 279 282 276 273 285 285 283 286 285 286 289 291 289 289 289 288 288 287 287 286 287 285 283 282 282 283 283 281 280 280 278 276 276 273 271 274 276 270 271 272 272 277
280 284 282 282 280 286 286 286 288 288 286 285 286 288 289 287 286 286 285 285 285 284 284 283 282 280 279 278 279 278 277 276 272 267 266 267 268 270 271 269 269 270 271 280
281 283 283 282 281 283 285 286 288 288 287 288 287 288 288 286 285 284 284 284 283 282 282 279 279 278 275 274 274 273 273 272 264 263 265 267 267 267 267 271 272 269 270 272
282 283 280 278 280 282 284 285 287 287 285 284 286 287 287 285 283 284 283 282 282 281 279 279 278 277 274 273 270 267 268 264 265 264 267 267 268 265 269 271 271 272 273 275
280 281 281 278 284 285 286 287 287 286 285 284 284 284 284 284 284 283 282 281 280 278 276 275 274 273 270 268 266 261 259 260 260 264 266 266 266 265 269 269 271 277 279 281

GFSCGP_sfc_thetae_105.txt.gz
Theta_e
296 291 289 291 290 291 289 288 287 288 292 291 290 290 293 294 292 292 293 294 295 296 299 301 306 313 317 319 322 327 328 328 328 328 330 330 329 330 331 332 330 330 329 327
292 288 294 295 293 292 289 286 286 288 291 290 288 289 292 293 293 294 294 294 295 295 297 299 300 303 310 315 318 322 329 329 329 329 329 327 330 330 331 332 331 330 329 328
289 291 296 294 291 290 288 286 285 287 289 289 285 284 287 293 294 294 295 295 295 295 297 297 298 298 299 300 301 308 319 328 330 330 328 327 329 328 328 328 329 330 330 329
291 294 294 291 290 290 286 291 290 288 284 280 283 277 283 287 290 292 293 293 294 295 295 295 297 299 300 301 302 301 302 303 314 328 328 327 326 325 327 328 329 329 329 329
289 290 290 290 291 292 288 291 290 288 286 283 282 279 282 286 287 290 291 292 294 294 296 297 299 302 302 303 304 303 301 300 301 310 325 325 325 326 326 327 326 327 327 327
290 293 292 292 292 292 292 289 289 286 284 277 280 280 280 285 287 288 290 293 294 294 296 297 299 301 301 302 303 304 299 299 301 306 316 322 321 323 322 322 324 324 324 324
288 288 291 292 289 291 290 285 279 277 276 276 279 279 283 287 288 291 292 293 293 294 295 296 297 298 299 300 302 307 307 303 305 309 312 314 316 322 322 320 321 322 322 321
282 281 288 291 289 287 286 285 278 272 274 276 279 278 285 289 289 292 294 294 294 295 296 296 297 297 298 299 300 303 306 306 307 308 309 310 311 312 316 317 317 316 316 317
282 283 289 290 290 291 286 283 287 280 272 275 278 282 288 289 288 291 293 294 293 294 295 295 296 296 296 296 298 299 300 301 304 306 304 304 307 308 307 308 309 308 307 307
287 281 287 288 290 290 288 289 282 281 270 269 276 278 281 285 287 289 292 292 293 294 294 295 295 295 295 295 296 297 297 297 298 299 299 299 299 300 300 301 300 300 301 301
289 286 283 287 286 285 285 284 284 285 280 274 273 278 284 287 289 289 290 293 293 293 293 293 294 294 294 293 293 293 294 295 295 295 295 295 294 294 295 294 294 295 295 295
290 286 281 283 287 288 287 286 286 282 279 280 280 279 289 288 290 290 291 294 293 294 293 293 293 292 292 291 291 292 292 293 292 292 292 292 292 292 291 291 291 292 292 292
291 284 278 281 284 287 286 286 287 286 282 278 276 278 289 289 290 291 293 293 294 294 293 293 292 292 291 291 290 291 291 291 291 291 291 290 290 290 290 289 290 290 290 290
295 287 283 279 282 285 283 285 286 286 280 279 280 281 285 288 290 292 292 294 294 294 293 293 292 291 291 290 289 290 290 291 290 290 289 289 288 289 289 289 288 288 288 288
291 282 284 286 287 286 285 286 286 284 287 282 286 284 287 289 291 293 294 294 294 293 293 292 291 290 289 289 289 289 289 289 289 289 288 288 288 288 287 287 287 286 286 286
290 279 284 281 286 286 283 286 287 287 287 286 283 284 289 291 292 293 293 294 294 293 293 292 290 289 288 289 288 289 288 288 288 287 286 286 285 284 284 284 284 284 284 284
288 284 280 278 283 282 279 284 285 287 288 288 283 289 289 288 291 293 293 294 294 293 292 291 290 289 289 288 289 288 288 287 285 284 284 284 284 284 283 284 284 283 283 283
284 283 280 278 278 273 284 288 289 287 288 290 288 287 290 291 293 294 295 294 294 293 292 291 290 289 288 288 287 287 286 284 284 283 283 283 283 282 282 282 282 282 282 281
288 284 279 274 267 279 283 284 285 285 286 290 290 289 290 290 291 290 293 295 295 294 293 291 290 289 288 287 287 285 284 284 283 283 282 282 281 279 280 278 280 281 278 278
286 288 284 275 273 272 281 286 289 290 282 289 291 289 290 289 285 288 292 292 292 292 290 289 288 288 287 285 285 284 283 283 282 282 282 282 280 276 275 278 277 278 275 279
284 283 282 283 280 278 283 286 289 280 283 281 287 290 290 289 291 291 291 289 290 289 288 289 288 286 285 284 284 283 282 282 282 280 280 279 278 275 275 275 275 272 271 274
284 283 282 282 280 276 284 285 285 286 284 284 288 289 289 289 288 288 287 287 287 286 287 286 284 283 283 284 284 282 281 280 277 276 276 272 270 273 274 268 268 267 266 267
280 283 281 283 281 284 284 285 287 289 286 286 286 287 288 287 286 286 285 285 286 285 284 284 283 281 280 281 282 280 278 277 272 270 267 266 266 268 268 265 266 267 266 267
282 283 281 281 283 284 286 287 288 288 287 287 286 287 288 286 285 284 284 284 284 283 282 281 280 279 276 275 277 275 274 272 267 266 265 265 265 264 264 268 268 264 264 266
283 284 281 280 283 284 285 286 288 287 286 285 285 286 287 285 284 284 283 283 283 282 281 281 280 278 275 273 271 268 269 267 267 265 266 265 265 262 265 268 266 268 268 269
281 281 281 280 284 285 285 286 287 285 285 285 285 284 284 284 283 282 282 282 282 281 279 278 276 275 273 270 266 262 260 264 264 266 265 263 263 263 266 265 265 273 276 278

GFSCGP_sfc_thetae_108.txt.gz
Theta_e
296 289 289 291 291 290 289 288 287 288 290 291 289 290 292 293 291 291 292 292 292 294 299 300 306 314 316 319 326 328 327 327 328 327 327 328 329 331 331 331 330 329 328 326
291 288 293 294 293 292 289 287 286 288 290 289 288 290 292 292 292 291 292 292 293 293 295 298 300 308 315 317 322 326 327 327 328 328 328 325 329 330 331 331 331 330 329 327
287 290 295 294 291 290 288 287 286 287 288 288 285 285 287 291 291 292 293 293 294 294 295 294 296 300 306 309 314 321 326 327 328 328 326 322 326 328 327 327 328 329 329 328
288 292 292 291 290 291 287 290 289 288 285 281 285 279 282 286 289 291 293 292 293 293 293 295 296 297 298 300 300 301 309 323 326 326 326 325 324 323 325 327 328 329 329 328
287 289 289 289 291 291 289 291 290 288 284 283 282 279 282 283 285 287 291 290 291 292 294 296 298 300 300 302 302 301 300 300 305 326 326 325 324 325 326 327 326 326 326 327
289 290 292 291 292 292 291 289 288 285 283 278 282 281 280 283 287 286 287 289 292 293 295 297 299 300 299 300 303 300 298 297 299 306 322 325 321 323 323 323 323 324 324 324
286 286 289 291 289 291 290 286 279 277 276 276 279 278 283 285 288 289 289 290 291 293 294 296 297 297 298 299 302 304 300 301 304 307 313 319 319 319 322 321 321 322 321 320
280 279 287 290 289 287 286 286 278 271 273 275 279 278 283 287 288 290 292 292 292 293 295 295 296 296 297 299 301 303 304 304 305 307 308 310 312 314 318 318 316 315 315 314
281 281 287 288 290 291 286 283 286 280 271 275 278 280 286 287 286 290 291 291 292 293 294 295 295 295 296 297 298 300 301 301 301 302 303 302 303 305 309 307 306 304 305 304
285 280 286 287 289 289 288 289 282 280 272 271 276 277 280 284 287 290 290 291 292 293 293 294 294 294 294 295 295 296 297 296 296 297 297 297 297 298 299 300 299 299 299 299
287 285 283 287 286 285 285 284 283 284 281 276 272 277 284 287 287 290 291 292 292 292 292 293 293 293 293 293 293 293 293 294 294 294 294 294 293 293 294 294 294 293 293 293
289 286 281 283 287 288 287 286 285 282 279 279 279 279 286 287 288 289 291 293 293 294 292 292 291 291 291 291 291 291 291 291 291 292 292 291 291 291 291 290 290 291 290 291
290 284 278 281 284 286 285 286 287 285 283 279 277 279 287 288 288 288 290 292 293 293 292 291 290 290 289 289 290 290 290 290 290 291 290 290 289 289 288 288 289 289 289 288
294 286 283 279 281 285 282 284 285 285 280 279 279 282 285 287 289 289 291 293 293 293 292 291 290 290 289 289 289 289 289 290 289 289 289 288 287 287 287 287 287 287 287 286
291 280 282 284 285 286 285 286 285 284 286 282 285 283 286 288 290 291 292 293 292 292 292 291 290 290 289 288 288 288 289 289 289 288 287 286 286 286 286 286 285 285 285 285
289 277 283 280 285 285 283 285 287 286 286 285 283 283 288 289 292 291 293 293 293 293 293 292 291 290 289 289 288 288 288 287 287 286 285 285 285 284 284 284 284 284 284 284
287 282 281 281 283 283 280 284 285 287 288 287 283 289 288 288 291 293 293 294 294 294 293 292 291 290 289 289 289 287 286 286 285 284 284 284 284 283 284 284 283 283 282 283
285 284 281 278 280 276 286 288 289 288 288 290 288 286 289 290 292 294 296 295 295 294 293 292 291 289 288 288 288 287 286 284 284 284 283 283 283 282 283 282 282 282 282 281
287 284 276 275 267 279 282 284 284 284 286 289 289 289 288 289 290 290 292 294 296 295 294 293 292 290 288 288 287 286 284 284 284 283 283 282 282 280 281 279 280 280 278 278
284 286 283 272 269 270 280 286 288 290 282 288 289 288 288 288 285 291 291 295 294 294 294 291 289 288 288 287 286 285 283 283 283 283 283 282 280 278 277 279 277 277 276 278
281 276 280 273 271 276 283 285 288 281 282 285 288 290 290 289 292 291 291 290 292 292 290 289 289 288 287 285 285 284 283 283 283 282 281 279 278 276 276 275 274 272 271 274
282 280 280 276 274 276 284 284 284 286 284 284 287 289 289 289 287 288 288 287 287 287 288 288 287 286 285 285 285 283 283 281 280 279 277 275 272 276 274 271 268 268 267 267
282 284 283 284 282 284 283 284 286 287 285 285 286 286 289 288 286 286 285 285 285 286 285 285 285 283 284 284 285 283 280 278 275 274 272 271 273 272 269 268 266 268 264 265
281 281 282 283 282 282 284 286 287 287 286 286 286 286 288 287 286 285 284 284 284 283 283 283 283 283 281 280 280 280 278 275 273 273 272 270 270 267 264 268 267 262 263 263
283 284 281 281 282 283 284 286 288 287 285 285 285 286 287 286 284 284 283 282 283 282 280 282 283 282 280 278 276 276 274 273 272 272 270 269 267 264 265 267 264 267 267 268
282 283 283 282 287 287 287 287 288 287 286 285 285 284 285 285 285 282 281 282 282 281 280 280 279 279 276 274 271 269 269 271 270 269 269 266 265 263 265 264 264 272 275 277

GFSCGP_sfc_thetae_111.txt.gz
Theta_e
297 293 288 291 291 289 288 289 289 290 293 290 289 290 294 291 290 291 293 295 297 300 309 309 311 315 315 321 326 327 328 328 327 324 324 323 324 329 330 330 329 328 327 325
292 290 294 296 293 291 288 286 288 289 291 290 288 289 291 290 291 293 294 292 294 293 293 296 299 306 313 318 323 326 327 327 328 329 328 324 324 325 330 331 330 329 327 326
288 289 295 294 291 290 287 286 285 288 289 288 285 286 287 290 291 291 292 292 293 294 294 294 295 299 308 313 319 324 326 327 328 328 325 321 323 322 326 328 328 329 329 328
289 293 292 291 290 291 286 290 289 288 286 283 286 281 284 287 289 290 293 291 292 292 293 293 293 296 301 303 308 318 321 324 326 326 325 325 323 322 322 326 328 328 328 328
287 288 288 288 290 292 288 291 289 288 285 283 281 278 287 282 285 289 291 293 293 293 292 293 294 297 299 300 299 300 309 319 321 324 325 324 321 323 325 322 324 325 326 327
288 289 292 290 291 291 291 289 287 286 284 278 282 281 280 282 285 287 291 293 294 291 293 294 297 299 299 300 301 300 298 299 306 322 324 323 322 321 320 323 323 323 323 323
284 285 287 289 287 288 289 286 279 277 277 278 278 277 286 285 287 288 289 289 290 292 294 295 297 297 298 300 301 298 297 298 299 301 322 324 322 321 322 322 322 321 320 319
282 279 286 288 288 285 286 285 277 273 274 276 279 277 283 288 287 288 290 288 291 292 294 295 296 296 297 300 301 301 300 302 303 304 308 316 317 317 317 318 318 316 314 312
281 281 285 287 287 289 283 282 286 279 274 276 278 280 286 287 288 288 289 290 291 292 294 295 295 295 296 298 299 301 301 301 302 303 303 305 308 313 312 306 307 306 305 304
284 280 285 286 287 288 286 288 281 281 275 272 277 277 280 283 288 288 288 290 291 293 294 294 294 294 295 295 296 298 298 298 296 297 297 298 299 301 301 301 300 299 300 300
287 285 283 287 285 283 283 282 282 284 282 277 273 278 284 287 289 289 291 291 292 293 293 293 293 293 294 293 294 294 294 294 294 294 294 295 295 295 295 295 294 293 293 293
288 285 280 283 286 286 285 285 287 282 278 278 279 279 285 286 288 289 290 291 291 292 292 292 292 291 291 292 292 292 292 292 291 291 291 291 292 292 292 291 291 291 290 290
289 284 277 281 284 285 283 284 285 284 282 280 280 282 286 288 288 288 291 291 292 292 291 291 290 290 290 290 290 290 290 290 290 290 290 289 289 290 289 289 289 289 288 287
294 285 283 279 281 284 281 282 283 284 280 281 282 282 285 287 288 288 289 292 292 292 291 290 289 289 289 289 289 289 289 289 289 289 288 288 288 288 288 287 287 286 286 285
290 282 283 284 285 286 285 285 285 283 286 282 285 283 288 288 288 289 289 291 291 291 291 291 290 289 288 288 288 288 288 288 288 288 287 286 286 287 285 285 284 284 284 284
288 278 282 280 285 285 283 285 287 287 287 286 283 283 287 288 291 290 291 292 292 293 292 292 291 290 289 289 289 288 288 287 287 286 286 285 285 284 284 283 283 283 283 283
287 280 278 278 283 283 280 283 284 286 288 287 282 288 287 288 290 291 291 293 293 294 293 292 291 291 290 290 289 288 288 287 286 285 284 284 284 284 283 283 283 283 283 283
285 284 282 277 281 275 284 287 287 286 287 289 287 286 288 290 292 292 294 294 294 294 294 293 293 291 291 290 289 287 286 285 284 284 283 283 283 283 283 283 282 282 282 282
287 283 278 279 273 280 284 283 284 283 285 287 288 289 288 288 288 289 292 295 296 296 296 295 294 292 290 288 287 286 285 284 284 283 283 282 282 282 281 281 281 281 279 278
283 286 282 268 275 275 281 288 287 289 283 292 290 288 287 288 285 291 291 294 295 296 296 294 292 290 288 287 286 285 284 284 284 283 283 282 281 280 279 280 279 278 277 278
278 277 281 271 271 274 282 285 287 280 282 283 287 289 289 289 293 291 290 292 294 294 292 291 290 288 288 286 286 285 284 284 284 282 281 280 279 279 279 278 277 275 275 276
281 278 272 269 267 276 283 284 284 286 284 284 286 287 287 287 287 286 288 289 290 289 289 289 288 287 286 286 286 285 284 283 282 281 279 278 278 278 277 276 273 272 273 273
280 282 278 281 280 285 284 284 286 286 285 284 285 287 287 287 287 286 286 286 286 287 286 287 287 284 284 285 286 284 283 281 280 280 277 275 275 276 274 274 274 273 272 270
281 280 280 283 281 282 284 285 285 286 286 285 286 285 286 285 286 285 285 284 284 282 283 281 283 283 282 284 284 285 281 280 280 277 275 274 274 273 273 273 272 271 268 267
282 283 279 280 281 282 283 285 286 285 286 286 286 286 286 285 284 284 282 280 282 281 279 282 284 284 283 282 281 280 278 279 277 276 274 274 274 273 271 271 269 270 269 269
282 282 284 284 284 285 284 287 287 286 285 286 286 285 284 285 285 282 280 281 279 279 279 279 280 282 280 280 278 277 277 278 276 275 274 274 272 270 269 269 267 273 276 278

GFSCGP_sfc_thetae_117.txt.gz
Theta_e
297 293 290 293 297 293 293 294 293 291 298 293 292 294 297 297 293 293 294 298 307 310 315 317 318 319 321 325 326 327 327 327 326 325 325 325 325 327 328 328 328 329 328 326
294 290 293 292 294 293 293 292 291 294 292 291 291 290 293 295 295 295 295 294 299 306 308 311 315 317 319 321 325 327 327 328 327 327 328 328 329 329 330 330 329 329 328 327
290 292 295 293 290 289 288 287 286 289 288 289 286 287 289 294 293 293 293 295 295 299 304 307 305 312 316 318 321 325 327 328 328 329 327 324 325 327 327 328 329 328 329 327
293 296 294 292 291 290 287 291 290 288 287 281 285 280 286 291 295 291 294 293 294 295 298 301 301 301 308 315 319 323 326 327 328 329 327 326 325 324 327 329 330 329 330 328
290 290 292 291 291 293 289 291 290 289 286 283 282 279 282 286 290 295 295 294 295 295 296 297 298 301 300 305 313 319 323 326 327 328 328 327 326 327 327 326 327 325 327 329
288 290 295 293 293 293 291 290 288 285 286 280 283 281 281 285 288 289 292 294 296 296 295 296 294 294 295 298 305 312 318 322 325 327 328 327 327 325 324 325 324 324 323 326
286 284 287 291 288 291 291 289 281 279 279 278 279 280 288 287 288 289 292 293 294 296 295 294 293 295 296 298 301 304 312 317 321 324 326 326 327 325 325 325 325 322 322 322
282 280 285 287 287 286 289 289 281 275 273 277 279 278 285 289 292 290 289 289 290 291 291 292 294 296 297 298 300 301 302 312 317 322 324 326 326 325 325 324 322 322 321 321
281 281 285 286 288 291 284 286 288 281 271 274 278 281 286 287 288 287 288 289 290 291 292 293 294 296 297 299 301 301 299 299 302 311 318 323 324 324 321 320 320 318 315 312
284 280 284 285 288 286 287 290 282 281 273 270 276 277 282 283 286 288 288 289 291 292 292 294 295 296 297 299 301 301 300 300 301 301 302 310 317 321 318 315 313 312 308 307
285 283 281 285 283 283 283 284 283 284 280 275 272 278 283 286 288 289 290 288 290 292 292 294 295 296 297 298 299 300 300 299 300 300 302 305 308 310 310 310 308 306 303 300
285 283 278 281 284 285 285 284 286 280 277 277 277 281 286 286 286 286 287 288 289 292 292 293 295 295 295 296 297 297 297 298 297 297 301 302 301 303 303 302 300 300 297 295
286 281 273 279 282 283 282 283 287 285 281 277 275 281 289 292 292 288 288 290 290 291 292 293 293 293 294 295 295 295 295 295 294 295 297 297 298 299 298 296 295 295 293 292
293 283 281 278 280 282 281 282 282 284 278 282 280 284 288 286 286 287 288 288 290 291 291 292 292 293 293 293 293 293 293 293 292 292 295 294 295 295 294 293 292 291 291 289
288 280 280 281 282 283 283 283 282 282 285 282 285 283 287 287 289 289 288 288 290 291 291 292 292 292 292 292 292 292 292 290 291 291 292 290 290 290 290 289 288 288 288 287
286 279 282 278 282 282 279 284 285 285 286 284 285 283 290 286 286 288 290 289 289 291 292 292 292 291 291 292 292 291 290 289 289 289 289 288 289 288 288 287 286 286 285 285
284 278 274 277 281 281 280 283 284 284 286 286 283 289 288 286 288 290 290 290 291 292 291 292 293 292 292 292 292 290 289 288 288 288 286 287 287 286 286 286 285 284 284 285
285 281 277 269 276 274 284 287 289 287 288 289 289 286 289 291 292 291 291 292 291 291 292 292 294 294 293 293 291 290 288 287 287 286 286 285 286 285 285 284 284 283 284 284
284 283 276 277 271 279 284 282 282 283 285 289 288 288 287 288 286 289 290 292 293 292 293 295 296 295 293 291 291 289 287 287 286 285 285 284 285 284 283 283 283 282 282 282
283 286 284 275 277 274 281 287 287 288 282 288 288 288 287 286 283 290 291 291 292 293 294 294 294 293 291 291 289 288 287 286 286 286 285 285 285 284 284 283 282 281 282 281
274 273 281 276 277 275 284 284 289 279 282 287 288 289 287 286 291 289 290 290 290 291 291 292 292 291 291 288 288 287 286 286 287 285 284 284 284 284 283 281 280 281 281 280
279 277 276 267 277 276 282 283 285 287 284 286 287 286 287 287 287 287 288 289 289 289 289 288 287 287 286 287 288 287 286 287 285 284 283 282 283 283 282 281 280 280 280 280
276 282 278 282 281 284 283 284 285 287 287 286 286 286 288 286 285 286 287 286 286 286 286 284 284 283 283 286 287 286 286 284 284 284 283 282 281 281 281 280 279 279 280 280
280 280 282 282 281 283 284 285 285 285 285 286 286 285 285 285 286 285 285 285 284 282 284 281 282 282 281 281 283 284 283 284 284 283 282 281 281 280 280 280 280 280 279 279
283 284 278 277 280 283 285 285 286 285 285 285 285 285 285 285 284 284 282 280 282 281 279 280 280 280 279 280 281 282 283 284 284 282 280 280 281 280 279 279 279 280 280 281
282 282 284 283 285 285 286 286 285 284 284 285 285 283 283 284 284 280 278 278 277 277 277 277 277 278 277 278 279 281 283 285 283 280 279 280 279 279 278 277 275 279 279 280

GFSCGP_sfc_thetae_120.txt.gz
Theta_e
302 295 293 298 303 303 302 299 299 300 303 300 301 300 304 307 303 303 304 304 306 312 319 323 325 329 331 333 333 333 331 330 329 328 327 328 327 330 331 331 332 333 334 331
297 294 301 303 301 300 301 299 297 299 299 298 302 301 305 306 305 306 308 308 305 306 314 319 323 325 327 330 332 333 333 333 331 330 330 330 330 332 331 331 330 330 330 329
295 298 299 298 297 295 297 297 294 295 293 294 293 294 298 302 302 304 305 308 311 307 307 314 319 322 325 326 329 331 333 334 333 332 332 331 333 333 331 332 332 331 331 330
297 299 295 296 295 298 292 297 294 290 291 291 292 289 297 300 300 301 301 303 303 304 305 309 314 318 323 326 328 330 332 333 333 334 332 330 328 327 330 330 331 332 331 330
294 295 294 293 295 297 295 296 294 293 291 291 293 288 295 295 294 298 302 303 305 306 304 304 308 313 318 322 326 328 329 331 333 333 333 331 330 331 333 333 333 334 333 331
295 298 299 297 297 297 294 294 294 292 292 285 292 290 292 296 297 300 301 303 304 304 304 304 306 308 311 314 321 325 326 328 331 332 333 332 331 331 331 331 331 332 331 330
289 293 293 298 293 295 294 291 284 282 282 284 288 288 292 298 297 297 298 300 302 304 305 304 303 301 303 306 309 317 322 324 328 331 331 332 332 332 331 331 332 331 329 326
285 283 288 292 295 291 291 292 285 280 280 285 283 285 293 298 300 300 299 301 300 299 301 302 303 303 303 304 306 307 312 319 325 328 330 331 332 332 332 332 332 332 329 328
289 286 290 293 292 296 290 287 292 284 278 282 286 289 294 296 296 297 297 298 299 301 301 301 301 301 302 303 304 306 307 311 318 323 328 329 329 329 330 331 332 330 329 324
292 283 288 289 294 292 294 296 286 287 281 280 285 285 289 291 294 297 298 299 300 300 300 301 302 302 303 303 304 306 307 308 314 319 323 324 326 326 327 328 327 326 322 316
293 290 284 289 289 288 289 289 289 290 287 283 282 287 297 295 297 296 298 297 298 299 300 301 302 303 303 304 305 306 306 306 307 309 316 318 318 323 324 323 322 320 316 313
291 288 283 285 289 291 293 290 290 286 283 285 284 286 294 295 295 294 296 297 298 298 299 300 301 302 302 303 305 306 306 305 305 306 307 309 315 312 313 313 312 309 308 306
290 287 281 282 287 288 287 289 292 291 287 284 283 286 298 298 298 299 296 298 299 298 300 300 300 300 302 303 304 306 306 305 304 303 305 306 307 310 309 305 305 304 301 299
295 287 286 282 285 288 285 287 288 289 285 285 285 288 293 295 295 297 297 296 297 298 299 300 300 300 301 302 303 304 303 303 302 301 302 303 304 306 306 301 300 299 298 295
293 286 286 286 288 288 288 287 287 286 288 285 288 288 292 295 296 297 299 297 296 296 298 299 299 300 300 300 301 302 303 301 300 300 299 298 299 300 298 296 295 293 295 293
291 287 288 283 286 286 285 288 288 288 289 289 290 289 296 298 297 297 297 298 297 297 299 299 298 299 299 299 300 300 301 299 298 298 296 292 293 292 292 291 289 290 289 288
290 286 284 283 286 287 283 286 288 289 290 291 286 291 296 295 295 296 297 298 298 299 299 298 298 299 299 299 300 299 299 298 296 296 292 290 290 289 289 289 288 287 287 288
289 286 287 280 283 277 287 294 292 290 291 292 292 293 295 296 298 299 300 298 297 298 298 298 299 300 300 300 299 299 298 295 294 293 291 289 289 287 287 287 286 286 286 286
292 289 283 282 282 286 288 287 289 287 288 293 292 294 295 296 294 295 297 297 298 299 300 300 301 300 300 299 298 296 294 293 292 290 290 288 288 286 286 286 285 285 286 286
288 292 287 281 280 277 286 293 292 292 284 295 295 294 294 292 289 294 297 296 297 297 297 298 299 299 298 297 295 293 292 291 291 290 289 289 288 287 286 286 285 286 286 285
283 285 283 284 283 286 289 290 294 283 288 292 293 295 295 290 295 294 295 294 294 294 294 296 297 296 296 293 292 291 291 290 291 289 288 287 287 287 287 286 285 285 284 284
283 283 283 285 281 279 290 289 288 293 294 291 292 292 293 294 292 293 292 293 292 292 292 292 293 292 291 291 290 290 290 290 288 287 286 286 286 286 285 285 284 285 284 283
283 288 285 286 286 290 290 294 294 293 293 291 294 294 293 292 291 292 292 291 290 289 288 287 288 288 288 288 290 289 289 287 286 286 285 285 285 285 285 285 284 284 284 284
285 286 287 287 288 289 289 290 291 292 291 291 292 293 293 292 291 289 289 288 287 286 286 285 286 286 286 286 286 287 286 286 286 286 285 285 285 284 284 285 284 284 284 283
288 286 284 285 285 289 290 291 292 290 290 289 289 290 291 291 288 288 286 285 286 285 283 284 285 285 285 285 286 285 285 286 286 285 284 284 285 284 283 284 284 284 285 285
286 286 286 287 290 291 292 292 290 289 289 289 288 287 286 288 287 285 283 282 282 283 283 283 282 283 283 283 283 284 285 286 285 284 284 284 284 284 283 282 281 282 283 284

GFSCGP_sfc_thetae_123.txt.gz
Theta_e
301 295 294 300 305 306 304 302 301 304 306 302 303 304 306 310 309 306 308 309 309 310 316 320 324 328 330 331 332 332 331 330 330 330 329 329 328 330 331 333 333 333 332 332
297 294 303 306 305 303 303 301 300 304 303 301 303 303 307 309 310 311 311 311 312 312 311 316 321 325 328 329 332 333 333 332 331 330 330 329 329 330 332 332 333 334 334 334
298 301 305 303 302 301 301 300 300 300 298 299 298 297 301 305 307 308 310 311 313 314 313 312 318 323 326 328 330 332 334 334 333 332 331 330 331 331 331 332 332 332 333 332
299 303 302 300 299 301 296 303 301 297 296 293 297 290 299 303 303 305 307 307 309 311 314 313 314 320 324 326 331 332 333 334 335 334 332 330 328 328 331 332 333 333 332 332
296 298 298 296 298 302 299 301 299 298 295 295 295 291 296 301 300 302 304 307 307 309 312 313 311 316 322 326 328 331 332 333 334 335 334 332 331 332 333 333 333 334 334 332
298 302 300 299 301 302 300 297 296 295 295 288 294 293 294 298 301 303 306 306 307 308 309 312 313 312 318 324 328 329 330 330 333 334 335 333 332 332 331 332 332 333 333 331
292 295 298 300 297 299 298 294 286 284 284 285 292 292 295 301 302 301 302 303 305 306 307 308 310 310 310 315 323 326 328 327 330 332 333 333 333 333 332 332 332 332 332 331
287 285 294 299 296 293 295 295 288 282 283 287 287 287 294 301 302 303 304 305 305 305 305 305 307 311 309 309 314 319 323 325 327 330 331 333 333 333 333 333 333 333 333 332
290 288 297 299 299 296 291 289 296 286 281 284 289 292 297 300 299 301 301 303 303 304 305 305 305 305 307 308 309 310 313 318 323 327 329 331 332 332 331 333 334 333 334 331
295 284 293 291 295 295 295 297 287 289 283 281 287 290 291 295 297 299 300 302 303 305 303 304 305 306 307 306 307 309 309 309 314 320 326 328 330 331 332 332 332 332 333 328
298 290 286 290 289 289 290 291 292 293 290 285 283 288 299 299 300 300 301 300 300 301 302 303 304 305 306 306 307 307 308 308 309 312 318 324 327 329 329 328 328 329 328 323
295 290 283 287 291 294 296 293 293 288 285 289 288 288 299 299 300 300 299 299 301 302 303 303 304 304 305 305 306 306 307 308 308 310 313 319 322 323 324 324 323 321 320 318
292 288 282 283 288 290 290 294 295 294 290 287 285 288 299 300 298 299 300 301 300 301 302 303 304 304 304 305 305 306 308 308 308 308 309 310 315 316 318 319 315 313 310 309
296 289 287 282 286 289 285 289 292 292 286 286 287 290 296 297 297 298 300 301 302 302 301 302 303 304 304 304 305 306 307 308 308 306 306 307 309 312 309 305 305 304 304 302
294 287 289 289 290 290 289 288 289 288 291 287 289 290 293 296 298 299 300 300 300 300 301 302 302 304 304 304 304 304 306 307 306 304 304 304 305 307 306 301 299 297 298 299
295 287 288 284 289 289 288 289 290 290 290 291 291 290 297 299 299 299 299 299 299 300 301 301 302 302 302 303 303 303 304 305 304 303 302 300 300 299 298 296 293 294 291 291
292 289 286 284 287 288 283 286 289 290 291 291 287 292 297 296 297 298 299 299 299 300 301 301 301 302 303 303 303 302 304 305 301 301 297 293 292 292 292 290 290 289 289 289
290 288 287 282 285 277 288 294 293 291 292 293 293 294 296 297 299 300 301 300 300 301 301 301 302 302 304 304 303 303 303 302 298 297 292 290 290 289 288 288 288 287 287 288
295 291 284 282 282 287 289 289 290 289 289 295 294 295 297 298 299 298 301 301 300 301 302 303 303 303 303 303 303 301 298 297 295 294 292 290 289 288 287 287 287 286 287 287
291 293 289 284 281 278 288 294 296 295 284 296 296 295 296 297 291 295 300 298 298 298 299 298 299 301 301 301 299 296 294 294 293 293 292 291 289 288 287 287 286 286 287 286
284 286 284 284 283 287 293 293 297 284 289 294 297 297 297 295 297 299 297 297 297 296 296 297 298 297 297 295 294 292 292 292 293 290 290 288 288 288 288 287 286 286 285 285
284 284 284 285 283 280 294 292 289 294 297 294 294 296 296 298 298 297 296 295 295 294 294 292 292 292 292 292 291 291 291 291 289 288 287 287 287 287 286 286 285 285 285 285
285 289 287 288 287 293 294 295 298 299 298 294 296 296 296 296 295 295 295 294 293 291 289 288 288 288 288 289 289 288 289 288 286 286 286 286 286 286 286 285 285 284 285 285
289 291 290 290 291 292 292 295 296 295 296 295 296 296 296 295 293 291 290 289 289 288 287 286 287 286 286 286 286 287 286 286 286 285 285 285 285 285 285 285 285 285 285 284
291 289 288 288 287 290 292 294 295 294 293 291 291 292 294 293 290 289 287 286 286 286 285 285 285 285 284 285 285 285 285 285 285 285 285 285 285 285 284 284 285 285 285 286
290 290 288 288 293 293 294 295 295 292 291 291 290 288 288 290 289 287 284 284 284 283 283 283 283 283 283 283 282 283 283 284 284 284 284 285 285 284 284 283 283 283 285 287